[[{"header":{"parameterUnit":"m.s-1","parameterCategory":1,"la1":30.6,"la2":28.766,"lo1":-90.7593,"lo2":-88.6598,"dy":0.0162,"dx":0.0183,"nx":116,"ny":114,"refTime":"2024-04-06T12:00:00:Z","depth":0,"parameterNumber":2,"parameterNumberName":"U-component_of_WINDS"},"data":[0.0,0.0,0.0,0.0,0.0,0.0,0.0,0.0,0.0,0.0,0.0,0.0,0.0,0.0,0.0,0.0,0.0,0.0,0.0,0.0,0.0,0.0,0.0,0.0,0.0,0.0,0.0,0.0,0.0,0.0,0.0,0.0,0.0,0.0,0.0,0.0,0.0,0.0,0.0,0.0,0.0,0.0,0.0,0.0,0.0,0.0,0.0,0.0,0.0,0.0,0.0,0.0,0.0,0.0,0.0,0.0,0.0,0.0,0.0,0.0,0.0,0.0,0.0,0.0,0.0,0.0,0.0,0.0,0.0,0.0,0.0,0.0,0.0,0.0,0.0,0.0,0.0,0.0,0.0,0.0,0.0,0.0,0.0,0.0,0.0,0.0,0.0,0.0,0.0,0.0,0.0,0.0,0.0,0.0,0.0,0.0,0.0,0.0,0.0,0.0,0.0,0.0,0.0,0.0,0.0,0.0,0.0,0.0,0.0,0.0,0.0,0.0,0.0,0.0,0.0,0.0,0.0,0.0,0.0,0.0,0.0,0.0,0.0,0.0,0.0,0.0,0.0,0.0,0.0,0.0,0.0,0.0,0.0,0.0,0.0,0.0,0.0,0.0,0.0,0.0,0.0,0.0,0.0,0.0,0.0,0.0,0.0,0.0,0.0,0.0,0.0,0.0,0.0,0.0,0.0,0.0,0.0,0.0,0.0,0.0,0.0,0.0,0.0,0.0,0.0,0.0,0.0,0.0,0.0,0.0,0.0,0.0,0.0,0.0,0.0,0.0,0.0,0.0,0.0,0.0,0.0,0.0,0.0,0.0,0.0,0.0,0.0,0.0,0.0,0.0,0.0,0.0,0.0,0.0,0.0,0.0,0.0,0.0,0.0,0.0,0.0,0.0,0.0,0.0,0.0,0.0,0.0,0.0,0.0,0.0,0.0,0.0,0.0,0.0,0.0,0.0,0.0,0.0,0.0,0.0,0.0,0.0,0.0,0.0,0.0,0.0,0.0,0.0,0.0,0.0,0.0,0.0,0.0,0.0,0.0,0.0,0.0,0.0,0.0,0.0,0.0,0.0,0.0,0.0,0.0,0.0,0.0,0.0,0.0,0.0,0.0,0.0,0.0,0.0,0.0,0.0,0.0,0.0,0.0,0.0,0.0,0.0,0.0,0.0,0.0,0.0,0.0,0.0,0.0,0.0,0.0,0.0,0.0,0.0,0.0,0.0,0.0,0.0,0.0,0.0,0.0,0.0,0.0,0.0,0.0,0.0,0.0,0.0,0.0,0.0,0.0,0.0,0.0,0.0,0.0,0.0,0.0,0.0,0.0,0.0,0.0,0.0,0.0,0.0,0.0,0.0,0.0,0.0,0.0,0.0,0.0,0.0,0.0,0.0,0.0,0.0,0.0,0.0,0.0,0.0,0.0,0.0,0.0,0.0,0.0,0.0,0.0,0.0,0.0,0.0,0.0,0.0,0.0,0.0,0.0,0.0,0.0,0.0,0.0,0.0,0.0,0.0,0.0,0.0,0.0,0.0,0.0,0.0,0.0,0.0,0.0,0.0,0.0,0.0,0.0,0.0,0.0,0.0,0.0,0.0,0.0,0.0,0.0,0.0,0.0,0.0,0.0,0.0,0.0,0.0,0.0,0.0,0.0,0.0,0.0,0.0,0.0,0.0,0.0,0.0,0.0,0.0,0.0,0.0,0.0,0.0,0.0,0.0,0.0,0.0,0.0,0.0,0.0,0.0,0.0,0.0,0.0,0.0,0.0,0.0,0.0,0.0,0.0,0.0,0.0,0.0,0.0,0.0,0.0,0.0,0.0,0.0,0.0,0.0,0.0,0.0,0.0,0.0,0.0,0.0,0.0,0.0,0.0,0.0,0.0,0.0,0.0,0.0,0.0,0.0,0.0,0.0,0.0,0.0,0.0,0.0,0.0,0.0,0.0,0.0,0.0,0.0,0.0,0.0,0.0,0.0,0.0,0.0,0.0,0.0,0.0,0.0,0.0,0.0,0.0,0.0,0.0,0.0,0.0,0.0,0.0,0.0,0.0,0.0,0.0,0.0,0.0,0.0,0.0,0.0,0.0,0.0,0.0,0.0,0.0,0.0,0.0,0.0,0.0,0.0,0.0,0.0,0.0,0.0,0.0,0.0,0.0,0.0,0.0,0.0,0.0,0.0,0.0,0.0,0.0,0.0,0.0,0.0,0.0,0.0,0.0,0.0,0.0,0.0,0.0,0.0,0.0,0.0,0.0,0.0,0.0,0.0,0.0,0.0,0.0,0.0,0.0,0.0,0.0,0.0,0.0,0.0,0.0,0.0,0.0,0.0,0.0,0.0,0.0,0.0,0.0,0.0,0.0,0.0,0.0,0.0,0.0,0.0,0.0,0.0,0.0,0.0,0.0,0.0,0.0,0.0,0.0,0.0,0.0,0.0,0.0,0.0,0.0,0.0,0.0,0.0,0.0,0.0,0.0,0.0,0.0,0.0,0.0,0.0,0.0,0.0,0.0,0.0,0.0,0.0,0.0,0.0,0.0,0.0,0.0,0.0,0.0,0.0,0.0,0.0,0.0,0.0,0.0,0.0,0.0,0.0,0.0,0.0,0.0,0.0,0.0,0.0,0.0,0.0,0.0,0.0,0.0,0.0,0.0,0.0,0.0,0.0,0.0,0.0,0.0,0.0,0.0,0.0,0.0,0.0,0.0,0.0,0.0,0.0,0.0,0.0,0.0,0.0,0.0,0.0,0.0,0.0,0.0,0.0,0.0,0.0,0.0,0.0,0.0,0.0,0.0,0.0,0.0,0.0,0.0,0.0,0.0,0.0,0.0,0.0,0.0,0.0,0.0,0.0,0.0,0.0,0.0,0.0,0.0,0.0,0.0,0.0,0.0,0.0,0.0,0.0,0.0,0.0,0.0,0.0,0.0,0.0,0.0,0.0,0.0,0.0,0.0,0.0,0.0,0.0,0.0,0.0,0.0,0.0,0.0,0.0,0.0,0.0,0.0,0.0,0.0,0.0,0.0,0.0,0.0,0.0,0.0,0.0,0.0,0.0,0.0,0.0,0.0,0.0,0.0,0.0,0.0,0.0,0.0,0.0,0.0,0.0,0.0,0.0,0.0,0.0,0.0,0.0,0.0,0.0,0.0,0.0,0.0,0.0,0.0,0.0,0.0,0.0,0.0,0.0,0.0,0.0,0.0,0.0,0.0,0.0,0.0,0.0,0.0,0.0,0.0,0.0,0.0,0.0,0.0,0.0,0.0,0.0,0.0,0.0,0.0,0.0,0.0,0.0,0.0,0.0,0.0,0.0,0.0,0.0,0.0,0.0,0.0,0.0,0.0,0.0,0.0,0.0,0.0,0.0,0.0,0.0,0.0,0.0,0.0,0.0,0.0,0.0,0.0,0.0,0.0,0.0,0.0,0.0,0.0,0.0,0.0,0.0,0.0,0.0,0.0,0.0,0.0,0.0,0.0,0.0,0.0,0.0,0.0,0.0,0.0,0.0,0.0,0.0,0.0,0.0,0.0,0.0,0.0,0.0,0.0,0.0,0.0,0.0,0.0,0.0,0.0,0.0,0.0,0.0,0.0,0.0,0.0,0.0,0.0,0.0,0.0,0.0,0.0,0.0,0.0,0.0,0.0,0.0,0.0,0.0,0.0,0.0,0.0,0.0,0.0,0.0,0.0,0.0,0.0,0.0,0.0,0.0,0.0,0.0,0.0,0.0,0.0,0.0,0.0,0.0,0.0,0.0,0.0,0.0,0.0,0.0,0.0,0.0,0.0,0.0,0.0,0.0,0.0,0.0,0.0,0.0,0.0,0.0,0.0,0.0,0.0,0.0,0.0,0.0,0.0,0.0,0.0,0.0,0.0,0.0,0.0,0.0,0.0,0.0,0.0,0.0,0.0,0.0,0.0,0.0,0.0,0.0,0.0,0.0,0.0,0.0,0.0,0.0,0.0,0.0,0.0,0.0,0.0,0.0,0.0,0.0,0.0,0.0,0.0,0.0,0.0,0.0,0.0,0.0,0.0,0.0,0.0,0.0,0.0,0.0,0.0,0.0,0.0,0.0,0.0,0.0,0.0,0.0,0.0,0.0,0.0,0.0,0.0,0.0,0.0,0.0,0.0,0.0,0.0,0.0,0.0,0.0,0.0,0.0,0.0,0.0,0.0,0.0,0.0,0.0,0.0,0.0,0.0,0.0,0.0,0.0,0.0,0.0,0.0,0.0,0.0,0.0,0.0,0.0,0.0,0.0,0.0,0.0,0.0,0.0,0.0,0.0,0.0,0.0,0.0,0.0,0.0,0.0,0.0,0.0,0.0,0.0,0.0,0.0,0.0,0.0,0.0,0.0,0.0,0.0,0.0,0.0,0.0,0.0,0.0,0.0,0.0,0.0,0.0,0.0,0.0,0.0,0.0,0.0,0.0,0.0,0.0,0.0,0.0,0.0,0.0,0.0,0.0,0.0,0.0,0.0,0.0,0.0,0.0,0.0,0.0,0.0,0.0,0.0,0.0,0.0,0.0,0.0,0.0,0.0,0.0,0.0,0.0,0.0,0.0,0.0,0.0,0.0,0.0,0.0,0.0,0.0,0.0,0.0,0.0,0.0,0.0,0.0,0.0,0.0,0.0,0.0,0.0,0.0,0.0,0.0,0.0,0.0,0.0,0.0,0.0,0.0,0.0,0.0,0.0,0.0,0.0,0.0,0.0,0.0,0.0,0.0,0.0,0.0,0.0,0.0,0.0,0.0,0.0,0.0,0.0,0.0,0.0,0.0,0.0,0.0,0.0,0.0,0.0,0.0,0.0,0.0,0.0,0.0,0.0,0.0,0.0,0.0,0.0,0.0,0.0,0.0,0.0,0.0,0.0,0.0,0.0,0.0,0.0,0.0,0.0,0.0,0.0,0.0,0.0,0.0,0.0,0.0,0.0,0.0,0.0,0.0,0.0,0.0,0.0,0.0,0.0,0.0,0.0,0.0,0.0,0.0,0.0,0.0,0.0,0.0,0.0,0.0,0.0,0.0,0.0,0.0,0.0,0.0,0.0,0.0,0.0,0.0,0.0,0.0,0.0,0.0,0.0,0.0,0.0,0.0,0.0,0.0,0.0,0.0,0.0,0.0,0.0,0.0,0.0,0.0,0.0,0.0,0.0,0.0,0.0,0.0,0.0,0.0,0.0,0.0,0.0,0.0,0.0,0.0,0.0,0.0,0.0,0.0,0.0,0.0,0.0,0.0,0.0,0.0,0.0,0.0,0.0,0.0,0.0,0.0,0.0,0.0,0.0,0.0,0.0,0.0,0.0,0.0,0.0,0.0,0.0,0.0,0.0,0.0,0.0,0.0,0.0,0.0,0.0,0.0,0.0,0.0,0.0,0.0,0.0,0.0,0.0,0.0,0.0,0.0,0.0,0.0,0.0,0.0,0.0,0.0,0.0,0.0,0.0,0.0,0.0,0.0,0.0,0.0,0.0,0.0,0.0,0.0,0.0,0.0,0.0,0.0,0.0,0.0,0.0,0.0,0.0,0.0,0.0,0.0,0.0,0.0,0.0,0.0,0.0,0.0,0.0,0.0,0.0,0.0,0.0,0.0,0.0,0.0,0.0,0.0,0.0,0.0,0.0,0.0,0.0,0.0,0.0,0.0,0.0,0.0,0.0,0.0,0.0,0.0,0.0,0.0,0.0,0.0,0.0,0.0,0.0,0.0,0.0,0.0,0.0,0.0,0.0,0.0,0.0,0.0,0.0,0.0,0.0,0.0,0.0,0.0,0.0,0.0,0.0,0.0,0.0,0.0,0.0,0.0,0.0,0.0,0.0,0.0,0.0,0.0,0.0,0.0,0.0,0.0,0.0,0.0,0.0,0.0,0.0,0.0,0.0,0.0,0.0,0.0,0.0,0.0,0.0,0.0,0.0,0.0,0.0,0.0,0.0,0.0,0.0,0.0,0.0,0.0,0.0,0.0,0.0,0.0,0.0,0.0,0.0,0.0,0.0,0.0,0.0,0.0,0.0,0.0,0.0,0.0,0.0,0.0,0.0,0.0,0.0,0.0,0.0,0.0,0.0,0.0,0.0,0.0,0.0,0.0,0.0,0.0,0.0,0.0,-4.7072,0.0,0.0,0.0,0.0,0.0,0.0,0.0,0.0,0.0,0.0,0.0,0.0,0.0,0.0,0.0,0.0,0.0,0.0,0.0,0.0,0.0,0.0,0.0,0.0,-5.3783,-5.4235,-5.4486,-5.4787,-5.5064,-5.534,-5.5365,0.0,0.0,0.0,0.0,0.0,0.0,-5.5365,-5.5365,-5.5365,-5.5491,-5.5742,-5.4644,-5.4146,-5.411,0.0,0.0,0.0,0.0,0.0,0.0,0.0,0.0,0.0,0.0,0.0,0.0,0.0,0.0,0.0,0.0,0.0,0.0,0.0,0.0,0.0,0.0,0.0,0.0,0.0,0.0,0.0,0.0,0.0,0.0,0.0,0.0,0.0,0.0,0.0,0.0,0.0,0.0,0.0,0.0,0.0,0.0,0.0,0.0,0.0,0.0,0.0,0.0,0.0,0.0,0.0,0.0,0.0,0.0,0.0,0.0,0.0,0.0,0.0,0.0,0.0,0.0,0.0,0.0,0.0,0.0,0.0,0.0,0.0,0.0,0.0,-4.7962,0.0,0.0,0.0,0.0,0.0,0.0,0.0,0.0,0.0,0.0,0.0,0.0,0.0,0.0,0.0,0.0,0.0,0.0,0.0,0.0,0.0,-5.3733,-5.3833,-5.4361,-5.4888,-5.534,-5.5491,-5.5717,-5.6168,-5.6219,-5.6219,-5.6219,-5.6219,-5.6219,-5.6219,-5.6219,-5.6219,-5.6219,-5.6495,-5.6972,-5.7525,-5.5824,-5.5261,-5.5691,-5.4602,0.0,0.0,0.0,0.0,0.0,0.0,0.0,0.0,0.0,0.0,0.0,0.0,0.0,0.0,0.0,0.0,0.0,0.0,0.0,0.0,0.0,0.0,0.0,0.0,0.0,0.0,0.0,0.0,0.0,0.0,0.0,0.0,0.0,0.0,0.0,0.0,0.0,0.0,0.0,0.0,0.0,0.0,0.0,0.0,0.0,0.0,0.0,0.0,0.0,0.0,0.0,0.0,0.0,0.0,0.0,0.0,0.0,0.0,0.0,0.0,0.0,0.0,0.0,-5.2847,-5.2838,-5.2118,-5.2424,-5.2064,-5.1287,-5.099,-4.996,-4.8596,-4.8596,0.0,0.0,0.0,0.0,0.0,0.0,0.0,0.0,0.0,0.0,0.0,0.0,0.0,0.0,0.0,0.0,0.0,0.0,0.0,-5.3884,-5.4386,-5.4938,-5.5315,-5.539,-5.5817,-5.6143,-5.6219,-5.6219,-5.6219,-5.6219,-5.6219,-5.6219,-5.6219,-5.6219,-5.6219,-5.6219,-5.765,-5.888,-5.9885,-6.0076,-6.028,-6.0136,-5.4818,-5.308,-5.421,0.0,0.0,0.0,0.0,0.0,0.0,0.0,0.0,0.0,0.0,0.0,0.0,0.0,0.0,0.0,0.0,0.0,0.0,0.0,0.0,0.0,0.0,0.0,0.0,0.0,0.0,0.0,0.0,0.0,0.0,0.0,0.0,0.0,0.0,0.0,0.0,0.0,0.0,0.0,0.0,0.0,-4.8858,-4.7473,0.0,0.0,0.0,0.0,0.0,0.0,0.0,0.0,0.0,0.0,0.0,0.0,0.0,-5.0743,-5.2122,-5.3308,-5.4129,-5.4668,-5.5973,-5.6474,-5.6391,-5.6081,-5.5896,-5.5736,-5.5139,0.0,-4.938,-4.94,0.0,0.0,0.0,0.0,0.0,0.0,0.0,0.0,0.0,0.0,0.0,0.0,0.0,0.0,0.0,0.0,0.0,0.0,0.0,0.0,0.0,-5.6093,-5.6796,-5.6796,-5.8152,-5.8478,-5.7248,-5.7725,-5.7499,-5.6269,-5.6219,-5.6219,-5.6219,-5.6219,-5.6821,-5.8052,-6.0035,-6.1567,-6.2647,-6.0757,-6.052,-6.1495,-5.6355,-5.4523,-5.5129,-5.3334,0.0,0.0,0.0,0.0,0.0,0.0,0.0,0.0,0.0,0.0,0.0,0.0,0.0,0.0,0.0,0.0,0.0,0.0,0.0,0.0,0.0,0.0,0.0,0.0,0.0,0.0,0.0,0.0,0.0,0.0,0.0,0.0,0.0,0.0,0.0,0.0,0.0,0.0,0.0,-4.8558,-4.9091,-4.7568,-4.8479,-4.8748,0.0,0.0,0.0,0.0,0.0,0.0,0.0,0.0,0.0,-5.2333,-5.3053,-5.3855,-5.4662,-5.5757,-5.6534,-5.6981,-5.811,-5.8396,-5.7841,-5.7902,-5.7594,-5.7062,-5.7097,-5.5585,-5.3149,-5.1677,-5.0125,-4.8619,0.0,0.0,0.0,0.0,-4.7344,-4.752,0.0,0.0,0.0,0.0,0.0,0.0,0.0,0.0,0.0,0.0,0.0,0.0,-5.6168,-5.76,-5.8629,-5.893,-6.0437,-6.0638,-5.8855,-5.8956,-5.8353,-5.6721,-5.6369,-5.6219,-5.6219,-5.6771,-5.8127,-6.0337,-6.2446,-6.3827,-6.4516,-6.1787,-6.1141,-6.2171,-5.8449,-5.6576,-5.6023,-5.3243,-5.1656,-5.0984,0.0,0.0,0.0,0.0,0.0,0.0,0.0,0.0,0.0,0.0,0.0,0.0,0.0,0.0,0.0,0.0,0.0,0.0,0.0,0.0,0.0,0.0,0.0,0.0,0.0,0.0,0.0,0.0,0.0,0.0,0.0,0.0,0.0,0.0,0.0,0.0,0.0,-4.881,-4.9535,-4.8045,-4.9887,-5.0487,0.0,0.0,0.0,0.0,0.0,0.0,-5.1331,-5.2631,-5.3929,-5.5314,-5.6338,-5.7224,-5.7843,-5.831,-5.8816,-5.9495,-6.0169,-6.0158,-5.9525,-5.9963,-5.9606,-5.8861,-5.8866,-5.8179,-5.6945,-5.4164,-5.1983,-5.0323,-4.9442,-4.8822,-4.8442,-4.8442,-4.8553,-4.8892,0.0,0.0,0.0,0.0,0.0,0.0,0.0,0.0,0.0,0.0,0.0,-5.6194,-5.8328,-5.9533,-6.0638,-6.1692,-6.1893,-6.1692,-6.1065,-5.9106,-5.7926,-5.7826,-5.6796,-5.6219,-5.6219,-5.8252,-6.0437,-6.2672,-6.4329,-6.5013,-6.4554,-6.4876,-6.4363,-6.2974,-6.0866,-5.8642,-5.629,-5.5513,-5.4203,-5.2579,-5.0311,0.0,0.0,0.0,0.0,0.0,0.0,0.0,0.0,0.0,0.0,0.0,0.0,0.0,0.0,0.0,0.0,0.0,0.0,0.0,0.0,0.0,0.0,0.0,0.0,0.0,0.0,0.0,0.0,0.0,0.0,0.0,0.0,0.0,0.0,0.0,0.0,0.0,0.0,-4.8562,-5.1501,0.0,0.0,0.0,0.0,-5.2247,-5.2149,-5.2701,-5.3978,-5.4995,-5.6172,-5.7462,-5.8897,-6.0326,-6.1681,-6.1025,-6.1311,-6.2312,-6.2332,-6.2557,-6.2853,-6.3092,-6.2859,-6.2405,-6.1489,-6.0469,-5.9344,-5.6525,-5.4324,-5.2675,-5.1705,-5.1111,-5.0828,-5.0734,-5.0471,-5.0208,0.0,0.0,0.0,0.0,0.0,-5.3833,-5.421,-5.4737,-5.5164,-5.5365,-5.6646,-5.8102,-5.9583,-6.1692,-6.3425,-6.4555,-6.5308,-6.5032,-6.34,-6.1567,-6.006,-5.8981,-5.7524,-5.7248,-5.8303,-6.0161,-6.167,-6.2872,-6.4845,-6.5615,-6.5131,-6.3965,-6.3349,-6.3046,-6.0997,-5.92,-5.7683,-5.5706,-5.3443,-5.1134,-4.9807,-4.8774,0.0,0.0,0.0,0.0,0.0,0.0,0.0,0.0,0.0,0.0,0.0,0.0,0.0,0.0,0.0,0.0,0.0,0.0,0.0,0.0,0.0,0.0,0.0,0.0,0.0,0.0,0.0,0.0,0.0,0.0,0.0,0.0,0.0,0.0,0.0,0.0,0.0,-5.1978,-5.4606,0.0,-5.3468,-5.3587,-5.4054,-5.4601,-5.5005,-5.5909,-5.7197,-5.8223,-5.9369,-6.0809,-6.1264,-6.1973,-6.2767,-6.2486,-6.2558,-6.2945,-6.2588,-6.2689,-6.3169,-6.2332,-6.215,-6.2436,-6.1342,-6.0558,-5.9767,-5.8264,-5.6518,-5.4624,-5.3742,-5.296,-5.2319,-5.2319,-5.2403,-5.2451,0.0,0.0,0.0,0.0,-5.426,-5.4411,-5.4787,-5.5315,-5.5666,-5.5666,-5.76,-5.9533,-6.1014,-6.3827,-6.6112,-6.7392,-6.7869,-6.7292,-6.5434,-6.2873,-6.0864,-5.9558,-5.8278,-5.8378,-6.0035,-6.157,-6.3129,-6.4845,-6.6151,-6.6393,-6.5522,-6.4034,-6.2915,-6.2107,-6.0762,-5.9802,-5.8953,-5.6987,-5.4379,-5.146,-5.0239,-4.9287,-4.8479,0.0,0.0,0.0,0.0,0.0,0.0,0.0,0.0,0.0,0.0,0.0,0.0,0.0,0.0,0.0,0.0,0.0,0.0,0.0,0.0,0.0,0.0,0.0,0.0,0.0,0.0,0.0,0.0,0.0,0.0,0.0,0.0,0.0,0.0,-5.2702,-5.4524,-5.4524,-5.7215,-5.8353,-5.6511,-5.6673,-5.6945,-5.7332,-5.7819,-5.8581,-5.9772,-6.0801,-6.1732,-6.2608,-6.32,-6.3445,-6.3278,-6.3278,-6.3185,-6.3071,-6.2824,-6.2824,-6.3051,-6.2616,-6.2322,-6.2247,-6.1535,-6.0924,-6.0286,-5.9408,-5.8146,-5.6654,-5.5343,-5.4564,-5.4123,-5.3925,-5.3926,-5.4046,0.0,0.0,0.0,-5.3858,-5.4637,-5.5365,-5.5415,-5.5867,-5.6219,-5.6219,-5.8177,-6.0412,-6.2647,-6.586,-6.8547,-7.0204,-6.93,-6.817,-6.7066,-6.2847,-6.0111,-5.9533,-5.9056,-5.9608,-6.1291,-6.2434,-6.4869,-6.8633,-6.8108,-6.7006,-6.5492,-6.5393,-6.3465,-6.005,-6.0506,-6.0464,-6.0009,-5.9533,-5.7277,-5.3861,-5.1978,-5.0922,-5.028,0.0,0.0,0.0,0.0,0.0,0.0,0.0,0.0,0.0,0.0,0.0,0.0,0.0,0.0,0.0,0.0,0.0,0.0,0.0,0.0,0.0,0.0,0.0,0.0,0.0,0.0,0.0,0.0,0.0,0.0,0.0,0.0,0.0,-5.1232,-5.3944,-5.5973,-5.6035,-5.9202,-6.0692,-5.8933,-5.9833,-6.0536,-6.0536,-6.0401,-6.0738,-6.1603,-6.2608,-6.3168,-6.2911,-6.4479,-6.4725,-6.3595,-6.3595,-6.3364,-6.2785,-6.3364,-6.3364,-6.2785,-6.3941,-6.3684,-6.238,-6.2267,-6.1764,-6.0859,-5.9974,-5.933,-5.8633,-5.6694,-5.5979,-5.6023,-5.5521,-5.5143,-5.4791,0.0,0.0,-5.416,-5.4813,-5.4838,-5.5064,-5.5867,-5.6118,-5.6219,-5.6219,-5.9182,-6.1994,-6.3827,-6.7342,-7.0255,-7.1912,-7.0305,-6.8748,-6.7643,-6.3776,-6.1115,-6.0136,-6.0362,-6.1843,-6.468,-6.552,-6.6823,-6.8647,-6.731,-6.6079,-6.493,-6.3214,-6.1853,-6.0982,-6.1106,-6.1085,-6.0941,-6.0485,-5.9326,-5.7546,-5.4731,-5.293,-5.175,0.0,0.0,0.0,0.0,0.0,0.0,0.0,0.0,0.0,0.0,0.0,0.0,0.0,0.0,0.0,0.0,0.0,0.0,0.0,0.0,0.0,0.0,0.0,0.0,0.0,0.0,0.0,0.0,0.0,0.0,0.0,-5.2267,-5.3696,-5.4006,-5.5973,-5.798,-5.9636,-6.1292,-6.2245,-6.2079,-6.2295,-6.2566,-6.31,-6.2913,-6.3107,-6.3717,-6.359,-6.3503,-6.3394,-6.3419,-6.3731,-6.4266,-6.4266,-6.4381,-6.4631,-6.4422,-6.4381,-6.4631,-6.4151,-6.3638,-6.3391,-6.2614,-6.1764,-6.0859,-5.9558,-5.8702,-5.8205,-5.7435,-5.6921,-5.6645,-5.6542,-5.6159,-5.5943,0.0,-5.4258,-5.4472,-5.501,-5.4963,-5.5214,-5.6068,-5.6219,-5.6219,-5.6219,-5.9784,-6.2797,-6.4002,-6.7794,-7.0656,-7.161,-6.9903,-6.8095,-6.6513,-6.3199,-6.1115,-6.0688,-6.2119,-6.4028,-6.6413,-6.732,-6.8561,-7.0365,-6.8024,-6.6587,-6.6023,-6.3691,-6.2041,-6.1085,-6.1458,-6.152,-6.1334,-6.1272,-6.0941,-6.0257,-5.8022,-5.6055,-5.4296,-5.2516,-5.1481,-5.0798,-4.9556,-4.9349,-4.9411,-4.7962,0.0,0.0,0.0,0.0,0.0,0.0,0.0,0.0,0.0,0.0,0.0,0.0,0.0,0.0,0.0,0.0,0.0,0.0,0.0,0.0,0.0,0.0,0.0,0.0,-5.4172,-5.6014,-5.7049,-5.8436,-6.005,-6.1976,-6.299,-6.3735,-6.417,-6.3896,-6.3834,-6.4194,-6.4213,-6.423,-6.4516,-6.4171,-6.3941,-6.3941,-6.3595,-6.371,-6.4151,-6.4605,-6.4564,-6.4266,-6.4354,-6.4198,-6.3785,-6.3163,-6.2843,-6.2743,-6.1941,-6.1127,-6.0157,-5.9239,-5.8377,0.0,0.0,0.0,0.0,0.0,-5.623,-5.5913,0.0,-5.4879,-5.491,-5.4628,-5.501,-5.5491,-5.6043,-5.6168,-5.6219,-5.6219,-5.996,-6.2873,-6.345,-6.7317,-6.9953,-7.0154,-6.8597,-6.6689,-6.453,-6.2069,-6.1014,-6.1718,-6.4329,-6.6287,-6.7417,-6.8651,-7.0438,-7.2816,-6.9789,-6.8268,-6.7963,-6.5743,-6.3311,-6.0941,-6.1748,-6.1872,-6.152,-6.1934,-6.2079,-6.1976,-6.1148,-5.945,-5.7152,-5.5082,-5.442,-5.4337,-5.2247,-5.1274,-5.0798,-4.9721,0.0,0.0,0.0,0.0,0.0,0.0,0.0,0.0,0.0,0.0,0.0,0.0,0.0,0.0,0.0,0.0,0.0,0.0,0.0,0.0,0.0,0.0,0.0,0.0,-5.6035,-5.8125,-6.003,-6.1065,-6.21,-6.33,-6.4232,-6.4915,-6.535,-6.4954,-6.4611,-6.4611,-6.4672,-6.4672,-6.4611,0.0,0.0,0.0,0.0,-6.4253,-6.3851,-6.4659,-6.4406,-6.3077,-6.3841,-6.3432,-6.2086,-6.2153,-6.1946,-6.1468,-6.111,-6.0525,-5.9628,-5.912,-5.8338,-5.7325,-5.6845,-5.6582,-5.6543,-5.6152,-5.5742,-5.5449,0.0,-5.4363,-5.4398,-5.4398,-5.4572,-5.4913,-5.5465,-5.5917,-5.6219,-5.6219,-5.9307,-6.1718,-6.227,-6.5484,-6.8145,-6.9476,-6.7668,-6.571,-6.3952,-6.335,-6.3676,-6.5082,-6.7392,-6.915,-7.0255,-7.1837,-7.2911,-7.3418,-7.1878,-7.0227,-6.8388,-6.6608,-6.4446,-6.2307,-6.2472,-6.2493,-6.2431,-6.2493,-6.2348,-6.2017,-6.1851,-6.0402,-5.825,-5.7442,-5.6262,-5.4958,-5.4172,-5.4048,-5.3944,-5.1957,-5.1646,-5.1791,-4.9845,-4.8666,0.0,0.0,0.0,0.0,0.0,0.0,0.0,0.0,0.0,0.0,0.0,0.0,0.0,0.0,0.0,0.0,0.0,0.0,0.0,-5.6138,-5.7877,-5.9657,-6.1851,-6.2928,-6.3632,-6.388,-6.4418,-6.4915,-6.535,-6.5318,-6.5183,-6.5183,-6.5555,-6.569,-6.5298,-6.5094,-6.5067,-6.5067,-6.4563,-6.4669,-6.5461,-6.4847,-6.478,-6.5394,0.0,0.0,-6.4152,-6.3834,-6.3474,-6.3043,-6.287,-6.2111,-6.0921,-6.0408,-5.9363,-5.798,-5.7048,-5.6582,-5.6582,-5.6484,-5.6191,-5.5879,0.0,-5.4295,-5.4235,-5.4516,-5.4536,-5.4808,-5.5577,-5.5987,-5.6219,-5.6219,-5.8629,-6.0437,-6.0713,-6.3224,-6.5132,-6.5685,-6.4178,-6.335,-6.3676,-6.3927,-6.5308,-6.807,-6.9526,-7.0782,-7.1887,-7.3293,-7.3996,-7.3996,-7.3102,-7.1579,-6.9305,-6.7341,-6.5111,-6.2679,-6.2679,-6.2555,-6.2369,-6.2617,-6.2679,-6.2679,-6.2452,-6.1665,-6.0527,-5.9388,-5.8394,-5.7463,-5.6552,-5.6221,-5.5973,-5.4379,-5.384,-5.3571,-5.1978,-5.0839,-4.9908,0.0,0.0,0.0,0.0,0.0,0.0,0.0,0.0,0.0,0.0,0.0,0.0,0.0,0.0,-5.1191,-5.2557,0.0,-5.5973,-5.825,-5.9761,-6.1148,-6.2493,-6.3673,-6.4418,-6.4418,-6.4791,-6.5163,-6.5412,-6.5619,-6.566,-6.5432,-6.5846,-6.5991,-6.5784,-6.5435,-6.5428,-6.5962,-6.542,-6.5522,-6.629,-6.6077,-6.5872,-6.5653,-6.506,-6.4598,-6.4149,-6.3496,-6.3179,-6.3228,-6.2549,-6.1748,-6.0798,-6.0036,-5.9471,-5.8948,-5.8304,-5.7812,-5.7415,-5.7197,-5.682,-5.6483,0.0,-5.464,-5.444,-5.4834,-5.4816,-5.495,-5.5766,-5.6132,-5.6292,-5.6219,-5.8026,-5.9258,-5.9182,-6.0989,-6.1994,-6.1542,-6.109,-6.1667,-6.3701,-6.4731,-6.6815,-7.028,-7.1359,-7.2213,-7.2891,-7.4222,-7.4799,-7.4573,-7.4358,-7.31,-7.0669,-6.898,-6.6557,-6.3548,-6.3527,-6.3033,-6.2327,-6.2741,-6.3114,-6.3321,-6.299,-6.2741,-6.2493,-6.0878,-6.0195,-5.9988,-5.885,-5.7918,-5.7132,-5.649,-5.5621,-5.4668,-5.3944,-5.3137,-5.2164,-5.0715,-5.0342,0.0,0.0,0.0,0.0,0.0,0.0,0.0,0.0,-4.9307,-4.968,-5.0963,-5.2081,-5.3406,-5.5248,-5.678,-5.8332,-5.9988,-6.1334,-6.2348,-6.2866,-6.3983,-6.477,-6.4853,-6.5163,-6.5412,-6.5412,-6.5743,-6.5805,-6.5432,-6.5929,-6.6219,-6.6116,-6.5838,-6.6085,-6.6923,-6.6455,-6.6455,-6.6923,-6.7075,-6.6572,-6.5326,-6.5408,-6.485,-6.3759,-6.2788,-6.2608,-6.3036,-6.1687,-6.0869,-6.0439,-5.9725,-5.9511,-5.9693,-5.9855,-5.939,-5.856,-5.7982,-5.7495,-5.7217,0.0,-5.5154,-5.5245,-5.5297,-5.5165,-5.5259,-5.5888,-5.6446,-5.6583,-5.6292,-5.7571,-5.8428,-5.8077,-5.9156,-5.9834,-5.9784,-6.1466,-6.3073,-6.4304,-6.6739,-6.8999,-7.0907,-7.3418,-7.4372,-7.3519,-7.5527,-7.613,-7.5151,-7.6483,-7.5768,-7.3083,-7.2877,-7.0541,-6.6364,-6.6364,-6.517,-6.3238,-6.3694,-6.3694,-6.3362,-6.33,-6.3052,-6.2555,-6.1582,-6.0941,-6.0589,-6.0423,-5.9015,-5.7277,-5.7587,-5.6821,-5.5703,-5.56,-5.5227,-5.4461,-5.2702,-5.1336,-5.0115,-4.8686,-4.8065,-4.8107,-4.9245,-4.9245,-4.9638,0.0,-5.264,-5.2909,-5.3882,-5.5434,-5.6697,-5.6945,-5.8477,-6.0009,-6.1023,-6.1996,-6.2928,-6.3797,-6.4377,-6.4853,-6.5288,-6.537,-6.5412,-6.5412,-6.5474,-6.5474,-6.5412,-6.624,-6.655,-6.6116,-6.6785,-6.7337,-6.742,-6.7399,-6.7399,-6.742,-6.6578,-6.6009,-6.5959,-6.4234,-6.3844,-6.4544,-6.3203,-6.2942,-6.3272,-6.1909,-6.1061,-6.0669,-6.0913,-6.0604,-6.0006,-6.081,-6.0583,-5.9715,-5.8453,-5.81,-5.7977,0.0,0.0,-5.5836,-5.6174,-5.607,-5.6111,-5.6553,-5.6708,-5.6729,-5.6583,-5.6914,-5.7044,-5.6922,-5.7323,-5.7575,-5.7575,-5.9608,-6.1918,-6.4304,-6.6764,-6.9451,-7.2414,-7.3343,-7.372,-7.3594,-7.4799,-7.5226,-7.4749,-7.6406,-7.5952,-7.3416,-7.3518,-7.1842,-6.879,-6.8768,-6.7485,-6.5386,-6.5857,-6.5213,-6.3756,-6.3487,-6.3259,-6.299,-6.2079,-6.0961,-5.9802,-5.9264,-5.8105,0.0,-5.6759,-5.6159,-5.5517,-5.5786,-5.5393,-5.4544,-5.3282,-5.2102,-5.0984,-4.9866,-4.9431,-4.9473,-5.0322,-5.1005,-5.1895,-5.3592,-5.4379,-5.5082,-5.6262,-5.7753,-5.9078,-5.9885,-6.1085,-6.2079,-6.2452,-6.33,-6.3921,-6.4066,-6.4439,-6.4729,-6.4625,-6.4625,-6.4853,-6.535,-6.566,-6.5722,-6.5432,-6.6033,-6.6302,-6.6116,-6.6488,-6.6923,-6.7482,-6.7233,-6.7233,-6.7482,-6.6792,-6.6338,-6.6095,-6.5018,-6.4472,-6.4667,-6.33,-6.2369,-6.1769,-6.121,-6.0858,-6.0692,-6.0878,-6.0878,-6.0816,-6.1189,-6.1106,-6.0607,-5.925,-5.8799,-5.8742,0.0,0.0,0.0,-5.6745,-5.691,-5.7094,-5.7306,-5.7169,-5.7091,-5.6946,-5.6801,-5.6558,-5.6365,-5.6292,-5.6219,-5.6219,-5.7951,-6.0412,-6.3576,-6.6162,-6.9175,-7.274,-7.3092,-7.3468,-7.4046,-7.4724,-7.5101,-7.5101,-7.6607,-7.6404,-7.458,-7.4682,-7.3402,-7.1298,-7.1298,-7.001,-6.7836,-6.767,-6.6554,-6.4796,-6.3874,-6.3259,-6.2679,-6.1665,-6.0133,-5.8477,-5.7918,-5.6738,-5.5393,-5.5062,-5.4544,-5.4151,-5.4751,-5.4668,-5.411,-5.295,-5.1874,-5.0922,-5.0384,-5.0425,-5.0818,-5.1667,-5.2806,-5.4048,-5.5207,-5.6159,-5.7215,-5.8581,-5.9761,-6.0899,-6.2017,-6.2741,-6.3176,-6.3176,-6.3921,-6.4377,-6.3942,-6.4253,-6.4315,-6.3756,-6.3487,-6.3611,-6.4418,-6.5225,-6.5598,-6.5225,-6.5784,-6.6178,-6.6302,-6.6426,-6.6799,-6.7482,-6.7171,-6.7047,-6.7109,-6.6674,-6.6178,-6.5722,-6.5122,-6.4667,-6.4294,-6.3052,-6.1831,-6.0671,-6.0671,-6.0609,-6.0506,-6.063,-6.0796,-6.0982,-6.1106,-6.1085,-6.0837,-5.9719,-5.9305,-5.9181,0.0,0.0,0.0,0.0,-5.7739,-5.8355,-5.7901,-5.7856,-5.7713,-5.7451,-5.7641,-5.7569,-5.6874,-5.6438,-5.6219,-5.6219,-5.7273,-5.9131,-6.1893,-6.5183,-6.8246,-7.1033,-7.3217,-7.4623,-7.5176,-7.6256,-7.6808,-7.6808,-7.7913,-7.8189,-7.7561,-7.7561,-7.6394,-7.4264,-7.4136,-7.2885,-7.0711,-6.8854,-6.754,-6.6494,-6.4728,-6.299,-6.1251,-5.9906,-5.825,-5.6697,-5.7111,-5.5248,-5.2619,-5.2599,-5.1998,-5.1398,-5.2309,-5.3178,-5.3509,-5.1708,-5.0218,-4.9245,-4.9659,-5.0425,-5.1522,-5.3323,-5.4441,-5.56,-5.7401,-5.8539,-5.9595,-6.0961,-6.1624,-6.212,-6.2555,-6.2679,-6.2679,-6.2679,-6.3487,-6.3942,-6.3445,-6.3797,-6.3756,-6.2804,-6.1955,-6.1624,0.0,-6.3735,-6.4791,-6.4729,-6.5598,-6.6302,-6.6737,-6.7192,-6.7482,-6.7482,-6.7482,-6.7047,-6.6157,-6.5681,-6.5225,-6.4729,-6.3859,-6.3425,-6.3383,-6.2472,-6.1562,-6.0671,-6.0671,-6.0423,-6.005,-6.0506,-6.0423,-6.0071,-6.0527,-6.0423,-5.9968,-5.9471,-5.9305,-5.914,0.0,0.0,0.0,0.0,0.0,-5.7434,-5.7755,-5.7837,-5.7856,-5.7713,-5.7354,0.0,0.0,0.0,0.0,0.0,-5.7248,-5.8755,-6.0763,-6.3676,-6.6212,-6.8271,-7.0832,-7.2464,-7.3016,-7.4473,-7.5251,-7.5251,-7.5979,-7.6055,-7.5527,-7.5904,-7.5658,-7.4937,-7.5655,-7.4707,-7.246,-7.0734,-6.873,-6.6472,-6.3493,-6.1706,-6.0692,-5.8684,-5.6614,-5.4627,0.0,-5.2102,-5.0632,-5.0322,-4.9804,-4.9452,-5.0384,-5.0673,-5.0425,-4.9204,-4.9369,-5.0073,-5.0529,-5.1771,-5.3364,-5.5186,-5.6324,-5.7318,-5.856,-5.9781,-6.0796,-6.1251,-6.1479,-6.1541,-6.1375,-6.1603,-6.1706,-6.1396,-6.2866,-6.3991,-6.3445,-6.3756,-6.3383,-6.1562,-6.1355,-6.092,0.0,0.0,0.0,-6.3756,-6.4667,-6.5246,-6.5412,-6.6157,-6.655,-6.655,-6.5991,-6.566,-6.566,-6.4915,-6.4439,-6.4294,-6.3362,-6.2452,-6.1582,-6.1272,-6.0796,-6.0216,-6.0216,-6.032,-6.0444,-6.0278,-6.032,-6.0402,-5.9947,-5.9678,-5.9471,-5.9015,-5.8457,-5.7939,0.0,0.0,0.0,0.0,0.0,0.0,0.0,0.0,0.0,0.0,0.0,0.0,0.0,0.0,0.0,0.0,0.0,-5.8051,-5.9357,-6.1667,-6.3726,-6.5434,-6.7568,-6.9074,-6.9828,-7.0882,-7.1636,-7.2062,-7.2791,-7.3092,-7.2941,-7.3694,-7.4146,-7.4372,-7.5075,-7.4689,-7.3343,-7.1185,-6.8972,-6.6436,-6.2511,-6.0211,-5.891,-5.623,-5.3985,0.0,-5.0425,-4.9307,-4.85,-4.8189,-4.79,-4.7755,-4.8355,-4.8334,-4.8065,-4.7962,-4.8997,-5.0425,-5.1543,-5.3302,-5.5248,-5.709,-5.8229,-5.914,-6.0071,-6.0837,-6.1396,-6.1562,-6.1065,-6.0527,-6.0237,-5.9885,-5.9657,-5.9678,-6.092,-6.1996,-6.2348,-6.2514,-6.212,-6.0837,-6.063,-6.0154,-5.8974,-5.9926,0.0,-6.2555,-6.3611,-6.4356,-6.4729,-6.5288,-6.5681,-6.5846,-6.5101,-6.4791,-6.4936,-6.419,-6.3673,-6.33,-6.241,-6.152,-6.0671,-6.0506,-6.0278,-5.9988,-5.9988,-6.0154,-6.0402,-6.0113,-6.0071,-6.0133,-5.9533,-5.9202,-5.8974,-5.8353,-5.7732,-5.7277,0.0,0.0,0.0,0.0,0.0,0.0,0.0,0.0,0.0,0.0,0.0,0.0,0.0,0.0,0.0,0.0,0.0,0.0,-5.775,-5.9332,-6.0939,-6.2521,-6.3701,-6.4831,-6.5886,-6.5961,-6.6538,-6.7643,-6.8648,-6.9426,-6.9978,-7.1033,-7.1811,-7.2339,-7.2389,-7.269,-7.3072,-7.0131,-6.8061,-6.6273,-6.189,-5.8598,-5.6051,-5.3023,-5.0679,-4.8914,-4.8003,-4.7113,-4.6266,-4.6266,-4.6287,-4.6308,-4.6328,-4.6349,-4.672,-4.8086,-4.9162,-5.0425,-5.2723,-5.5,-5.7132,-5.8953,-6.0071,-6.0941,-6.1769,-6.1624,-6.1417,-6.1789,-6.0423,-5.914,-5.9036,-5.7629,-5.678,-5.7711,-5.796,-5.8705,-6.0527,-6.0423,-6.0299,-6.063,-5.9926,-5.9367,-5.9305,-5.9347,0.0,-6.121,0.0,-6.3735,-6.4604,-6.4729,-6.4915,-6.535,-6.4915,-6.4418,-6.4004,-6.3507,-6.2804,-6.1955,-6.1085,-6.0671,-6.063,-6.0195,-5.9988,-5.9988,-5.9968,-5.9968,-5.9988,-5.9947,-5.9657,-5.9264,-5.9202,-5.8912,-5.8394,-5.7484,-5.7132,-5.7132,0.0,0.0,0.0,0.0,0.0,0.0,0.0,0.0,0.0,0.0,0.0,0.0,0.0,0.0,0.0,0.0,0.0,0.0,-5.662,-5.8202,-5.9131,-5.9156,-6.1391,-6.2772,-6.3048,-6.3877,-6.463,-6.5308,-6.5208,-6.5434,-6.5961,-6.6237,-6.6664,-6.7191,-6.7618,-6.7894,-6.7818,-6.5451,-6.4211,-6.3463,-5.9633,-5.6996,-5.5101,-5.2951,-5.0633,-4.8479,-4.79,-4.7113,-4.6266,-4.6266,-4.6493,-4.6927,-4.7237,-4.7568,-4.8127,-4.9494,-5.1046,-5.2806,-5.5082,-5.7111,-5.8953,-6.0444,-6.1003,-6.1148,-6.1044,-6.0941,-6.0589,-5.9678,-5.8291,-5.6842,-5.5476,-5.5393,-5.5828,-5.6759,-5.8643,-6.0485,-6.1955,-6.2369,-6.2058,-6.0837,-6.0754,-6.0423,-5.9409,-5.9926,-6.0464,0.0,-6.21,-6.3114,-6.3673,-6.4356,-6.4604,-6.4418,-6.3942,-6.3487,-6.3052,-6.2245,-6.1582,-6.1023,-6.0796,-6.0506,-6.0154,-6.005,-5.9988,-5.9968,-5.9636,-5.9678,-5.9926,-5.9243,-5.8891,-5.8726,-5.8022,-5.7484,-5.7008,-5.6428,-5.5993,-5.5703,0.0,0.0,0.0,0.0,0.0,0.0,0.0,0.0,0.0,0.0,0.0,0.0,0.0,0.0,0.0,0.0,0.0,0.0,0.0,-5.7097,-5.7374,-5.6821,-5.8278,-5.8981,-5.8755,-5.9357,-6.0186,-6.1215,-6.0914,-6.1291,-6.2295,-6.2295,-6.2571,-6.3124,-6.3701,-6.4078,-6.422,-6.2992,-6.219,0.0,0.0,-5.6068,-5.4432,-5.1724,-4.9847,-4.8392,-4.7422,-4.6782,-4.6349,-4.703,-4.7548,-4.8045,-4.8686,-4.9473,-5.0404,-5.1584,-5.322,-5.5082,-5.6945,-5.8808,-6.0423,-6.1396,-6.1644,-6.1417,-6.0568,-6.0071,-5.9264,-5.7484,-5.6035,-5.4648,-5.322,-5.3364,-5.4068,-5.5186,-5.7173,-5.9264,-6.123,-6.1727,-6.1727,-6.1313,-6.1499,-6.1355,-6.0568,-6.0961,-6.1355,0.0,-6.2079,-6.2617,-6.3052,-6.3549,-6.3797,-6.3756,-6.3114,-6.2555,-6.21,-6.1396,-6.092,-6.0671,-6.0464,-6.0237,-5.9988,-5.9988,-5.9988,-5.9968,0.0,-5.945,-5.9636,-5.8912,-5.8374,-5.7939,-5.7422,-5.6821,-5.62,-5.5745,-5.5414,-5.5165,0.0,0.0,0.0,0.0,0.0,0.0,0.0,0.0,0.0,0.0,-5.8089,-5.785,0.0,0.0,0.0,0.0,0.0,0.0,0.0,0.0,-5.5892,-5.5415,-5.5315,-5.5013,-5.4461,-5.4386,-5.5089,-5.6595,-5.652,-5.7298,-5.8855,-5.8755,-5.9031,-5.9583,-6.0085,-6.0613,-6.1115,-6.1115,-6.0613,-5.9528,-5.7193,-5.5472,-5.4095,0.0,-4.9214,-4.8583,-4.6891,-4.6266,-4.6493,-4.8065,-4.8873,-4.9431,-5.0466,-5.1729,-5.3054,-5.4089,-5.5538,-5.7152,-5.8581,-6.0175,-6.1541,-6.2017,-6.2038,-6.1582,-6.0216,-5.9098,-5.7691,-5.5393,-5.3903,-5.2702,-5.1708,-5.1688,-5.2288,-5.3778,-5.5165,-5.7028,-5.9864,-6.0257,-6.0734,-6.1976,-6.212,-6.2141,-6.2203,-6.2162,-6.2307,-6.2741,-6.2369,-6.2286,-6.2679,-6.2679,-6.2866,-6.3176,-6.2327,-6.1665,-6.1251,-6.0816,-6.0589,-6.0589,-6.0175,-5.9988,-5.9988,-5.9988,-5.9968,-5.9864,-5.9409,-5.9181,-5.9078,-5.8622,-5.7877,-5.7049,-5.7049,-5.649,-5.5641,-5.5248,-5.5103,-5.5041,0.0,0.0,0.0,0.0,0.0,0.0,0.0,0.0,0.0,0.0,-5.7726,-5.741,0.0,0.0,0.0,0.0,0.0,0.0,0.0,0.0,0.0,-5.539,-5.4963,-5.4436,-5.3858,-5.3432,-5.3557,-5.4285,-5.3858,-5.426,-5.5415,-5.4938,-5.5013,-5.5566,-5.5666,-5.6018,-5.6545,-5.6545,-5.6696,-5.6897,-5.64,-5.5287,-5.3795,-5.3072,0.0,0.0,-4.6891,-4.6266,-4.6678,-4.879,-4.9804,-5.0487,-5.2164,-5.3633,-5.5041,-5.6718,-5.7711,-5.8643,-6.0402,-6.1375,-6.2017,-6.2452,-6.2017,-6.1106,-5.974,-5.8125,-5.6283,-5.4006,-5.2743,-5.1646,-5.0342,-5.1046,-5.2495,-5.4606,-5.6097,-5.8084,-6.123,-6.1686,-6.1893,-6.2493,-6.2555,-6.2741,-6.3114,-6.2804,0.0,0.0,-6.2804,-6.2617,-6.2679,-6.2679,-6.2555,-6.2286,-6.1396,-6.0878,-6.0796,-6.034,-6.0113,-6.0113,-6.003,-5.9988,-5.9988,-5.9988,-5.9781,-5.9388,-5.8933,0.0,-5.8125,-5.767,-5.6925,-5.6117,-5.6117,-5.5559,-5.4751,-5.4668,-5.4648,-5.4648,0.0,0.0,0.0,0.0,0.0,0.0,0.0,-5.6842,-5.7112,-5.8758,-5.8206,-5.7707,-5.7822,-5.6899,-5.6213,0.0,0.0,0.0,0.0,0.0,0.0,-5.4963,-5.4712,-5.416,-5.3306,-5.3055,-5.3181,-5.3708,0.0,-5.3331,-5.411,-5.3557,-5.3457,-5.3733,-5.431,-5.4712,-5.4988,-5.5566,-5.5968,-5.6219,-5.6219,-5.5754,-5.4893,-5.405,0.0,0.0,-4.789,-4.7592,-4.7708,-4.8755,-5.039,-5.2284,-5.3768,-5.5496,-5.7194,-5.8312,-5.9471,-6.063,-6.1748,-6.2369,-6.2741,-6.2679,-6.1644,-6.0092,-5.8001,-5.6283,-5.4441,-5.1915,-5.1046,-5.0466,-4.9556,-5.0529,-5.1957,-5.353,-5.4938,-5.6863,-5.9843,-6.0464,-6.1044,-6.2203,-6.2555,-6.2866,-6.3321,-6.2948,-6.2866,-6.3321,-6.2741,-6.2452,-6.2679,-6.2472,-6.2038,-6.1355,-6.092,-6.0568,-6.032,-6.0113,-5.9988,-5.9988,-5.9988,-5.9988,-5.9988,-5.9988,-5.9864,-5.9616,-5.8912,0.0,-5.7856,-5.7173,-5.6345,-5.5517,-5.5517,-5.5103,-5.4544,-5.4544,-5.4544,-5.4544,0.0,0.0,0.0,0.0,0.0,0.0,-5.7468,-5.706,-5.7284,-5.9345,-5.8937,-5.8275,-5.7833,-5.6962,-5.6199,0.0,0.0,0.0,0.0,0.0,0.0,0.0,0.0,0.0,-5.3105,0.0,0.0,-5.3532,-5.313,0.0,0.0,0.0,0.0,0.0,-5.3959,-5.4461,-5.4637,-5.5616,-5.6093,0.0,0.0,-5.6219,-5.6047,0.0,0.0,0.0,0.0,-4.8583,-4.8264,-4.84,-5.0314,-5.2795,-5.3996,-5.6159,-5.8374,-5.8746,-6.0216,-6.1851,-6.239,-6.2866,-6.3114,-6.2679,-6.1106,-5.9015,-5.6449,-5.4586,-5.2681,-5.0135,-4.9684,-4.9473,-4.8997,-4.997,-5.115,-5.2185,-5.3406,-5.5207,-5.7939,-5.8891,-5.9947,-6.1686,-6.2348,-6.2866,-6.3321,-6.2948,0.0,-6.3321,-6.2534,-6.2141,-6.239,-6.2079,-6.152,-6.0713,-6.0589,-6.0361,-5.9988,-5.9988,-5.9988,-5.9988,-5.9988,-5.9988,-5.9988,-5.9885,-5.9781,-5.9636,-5.8726,0.0,0.0,-5.6759,-5.5931,-5.5186,-5.5186,-5.4917,-5.4544,-5.4544,-5.4544,-5.4544,0.0,0.0,0.0,0.0,0.0,0.0,-5.7468,-5.7608,-5.825,-6.0124,-5.9721,-5.8909,-5.7953,-5.7492,-5.6611,0.0,0.0,0.0,0.0,0.0,0.0,0.0,0.0,0.0,0.0,0.0,0.0,-5.3005,-5.2955,0.0,0.0,0.0,0.0,0.0,0.0,-5.4084,-5.4612,-5.5214,0.0,0.0,0.0,0.0,0.0,0.0,0.0,0.0,0.0,-4.781,-4.6717,-4.8004,-4.8939,-4.9773,-5.1094,-5.4192,-5.7359,-5.7401,-5.9036,-6.1003,-6.1851,-6.241,-6.2617,-6.2203,-6.0402,-5.8229,-5.6304,-5.3861,-5.1439,-4.9514,-4.9121,-4.8997,-4.8521,-4.9224,-5.0322,-5.1646,-5.2681,-5.4255,-5.6966,-5.8477,-5.9823,-6.123,-6.2162,-6.2866,-6.3321,-6.2948,-6.2866,-6.3321,-6.2534,-6.1872,-6.1499,-6.1437,-6.1189,-6.0692,-6.0278,-6.003,-5.9988,-5.9988,-5.9988,-5.9988,-5.9988,-5.9988,-5.9988,-5.9554,-5.914,-5.8684,-5.7753,0.0,0.0,-5.6138,-5.5641,-5.5186,-5.5186,-5.4917,-5.4544,-5.4544,-5.4544,-5.4544,0.0,0.0,0.0,0.0,0.0,0.0,-5.7468,-5.7373,-5.7903,-6.0055,-6.0189,-5.9903,-5.9331,-5.858,-5.7132,-5.4535,0.0,0.0,0.0,0.0,0.0,0.0,0.0,0.0,0.0,0.0,-5.2929,-5.2929,-5.2929,0.0,0.0,0.0,0.0,0.0,0.0,-5.4034,-5.4683,-5.5164,0.0,0.0,0.0,0.0,0.0,0.0,0.0,0.0,0.0,0.0,-4.9065,-4.7601,-4.8911,-5.083,-4.8798,-5.0487,-5.3571,-5.5766,-5.7649,-5.945,-6.1479,-6.2348,-6.2555,-6.2141,-6.0092,-5.7649,-5.5538,-5.3157,-5.0943,-4.939,-4.9059,-4.9017,-4.8831,-4.91,-4.9618,-5.0446,-5.0653,-5.1564,-5.4027,-5.5103,-5.6635,-5.9367,-6.0506,-6.1562,0.0,0.0,-6.2555,-6.2183,-6.2079,-6.1603,-6.0589,-6.0796,-6.0734,-6.0278,-6.0092,-5.9988,-5.9988,-5.9988,-5.9988,-5.9988,-5.9988,-5.9988,-5.9968,-5.9512,-5.9057,-5.856,-5.7629,0.0,0.0,-5.5641,-5.5186,-5.4793,-5.4793,-5.4689,-5.4544,-5.4544,-5.4544,-5.4544,0.0,0.0,0.0,0.0,0.0,-5.5621,-5.7163,-5.7216,-5.7747,-5.9742,-6.022,-6.0376,-6.0289,-5.9056,-5.732,-5.4988,-5.4279,0.0,0.0,0.0,0.0,0.0,0.0,0.0,0.0,0.0,-5.2929,-5.2929,-5.2929,-5.2929,0.0,0.0,-5.2929,-5.2955,0.0,0.0,0.0,0.0,0.0,0.0,0.0,0.0,0.0,0.0,0.0,0.0,0.0,0.0,0.0,0.0,0.0,-5.0175,-4.7241,-4.7672,-4.9887,-5.3261,-5.5703,-5.7836,-6.0175,-6.1437,-6.2017,-6.1706,-5.9554,-5.7008,-5.5,-5.2661,-5.0508,-4.9142,-4.8976,-4.9017,-4.8893,-4.8976,-4.9183,-4.9494,-4.939,-4.997,-5.1998,-5.2806,-5.4337,-5.7422,-5.8498,-5.974,-6.1706,-6.2245,-6.2162,-6.1396,-6.152,0.0,-6.005,-6.0299,-6.032,-6.0009,-5.9988,-5.9988,-5.9988,-5.9988,-5.9988,-5.9988,-5.9988,-5.9926,-5.9761,-5.916,-5.8643,-5.8146,-5.709,0.0,0.0,-5.5186,-5.4813,-5.4544,-5.4544,-5.4544,-5.4544,-5.4544,-5.4544,-5.4544,0.0,0.0,0.0,0.0,0.0,-5.5491,-5.6641,-5.7294,-5.812,-5.9454,-5.9955,-6.031,-6.0513,-5.8471,-5.6958,-5.6579,-5.497,0.0,0.0,0.0,0.0,0.0,0.0,0.0,0.0,0.0,-5.2929,-5.2929,-5.2929,-5.2929,-5.2929,-5.2929,-5.2929,-5.2955,0.0,0.0,0.0,0.0,0.0,0.0,0.0,0.0,-5.6219,0.0,0.0,0.0,0.0,0.0,0.0,0.0,0.0,0.0,0.0,-4.6287,-4.6845,-4.968,-5.3054,-5.62,-5.7587,-5.9305,-6.0692,-6.0692,-5.8622,-5.6221,-5.4855,-5.2412,-5.0032,-4.8666,-4.8748,-4.8935,-4.8459,-4.8748,-4.9059,-4.908,-4.9452,-5.0239,-5.1626,-5.2599,-5.3861,-5.5683,-5.6324,-5.7504,-5.9802,-6.1251,-6.1851,-6.1375,-6.0941,0.0,-6.0009,-5.9988,-5.9988,-5.9988,-5.9988,-5.9988,-5.9988,-5.9988,-5.9988,-5.9988,-5.9988,-5.9761,-5.9285,-5.8353,-5.767,0.0,0.0,0.0,0.0,-5.4731,-5.4544,-5.4544,-5.4544,-5.4544,-5.4544,-5.4544,-5.4544,-5.4544,0.0,0.0,0.0,0.0,0.0,0.0,-5.6092,-5.6353,-5.6885,-5.8172,-5.84,-5.8836,-5.9658,-5.7882,-5.6685,-5.6907,-5.5108,0.0,0.0,0.0,0.0,0.0,0.0,0.0,0.0,-5.2929,-5.3105,-5.3457,-5.3457,-5.3457,-5.3457,-5.3457,-5.3281,-5.2929,-5.3105,-5.3356,0.0,0.0,0.0,0.0,0.0,-5.5717,-5.6219,0.0,0.0,0.0,0.0,0.0,0.0,0.0,0.0,0.0,0.0,0.0,0.0,-4.7755,-5.0032,-5.2516,-5.4213,-5.5786,-5.6863,-5.6552,-5.5579,-5.4358,-5.2971,-5.1501,-5.0115,-4.9059,-4.8955,-4.9017,-4.8873,-4.8955,-4.9183,-4.9494,-4.9659,-5.0011,-5.0756,-5.1936,-5.3489,-5.5621,-5.8498,-6.0464,0.0,0.0,-6.1727,-6.0941,-6.0754,0.0,-6.0009,-5.9988,-5.9988,-5.9988,-6.0299,-6.032,-5.9988,-6.0299,-6.0299,-5.9988,-5.9678,-5.945,-5.9264,-5.8022,-5.7194,0.0,0.0,0.0,0.0,-5.4586,-5.4544,-5.4544,-5.4544,-5.4544,-5.4544,-5.4544,-5.4544,-5.4544,0.0,0.0,0.0,0.0,0.0,0.0,-5.5543,-5.5778,-5.617,-5.6902,-5.719,-5.7765,-5.8798,-5.704,-5.5993,-5.6598,-5.4901,0.0,0.0,0.0,0.0,0.0,0.0,0.0,-5.3206,-5.3231,-5.3582,-5.4336,-5.4536,-5.4536,-5.4336,-5.4561,-5.4135,-5.3231,-5.3231,-5.3281,0.0,0.0,0.0,0.0,-5.5089,-5.5415,-5.5892,0.0,0.0,0.0,0.0,0.0,0.0,0.0,0.0,0.0,0.0,0.0,0.0,0.0,-4.79,-4.9618,-5.1812,-5.3385,-5.4441,-5.4524,-5.3923,-5.3075,-5.204,-5.0963,-4.997,-4.9224,-4.9059,-4.9059,-4.9059,-4.9059,-4.9162,-4.9452,-4.958,-4.9721,-5.0342,-5.1315,-5.2806,-5.5103,-5.856,0.0,0.0,-6.1044,-6.1292,-6.0734,0.0,0.0,-6.0009,-5.9988,-5.9988,-5.9988,-6.0278,-6.0278,-5.9988,-6.0113,-6.0009,-5.9719,-5.9078,-5.8684,-5.8477,-5.7277,-5.6469,0.0,0.0,0.0,0.0,-5.4544,-5.4544,-5.4544,-5.4544,-5.4544,-5.4524,-5.4337,-5.4275,-5.4255,0.0,0.0,0.0,0.0,0.0,0.0,0.0,-5.5517,-5.5857,-5.5789,-5.6259,-5.6947,-5.7688,-5.5975,-5.5088,-5.5827,-5.4366,0.0,0.0,0.0,0.0,0.0,0.0,0.0,-5.3683,-5.3658,-5.421,-5.539,-5.5867,-5.5842,-5.539,-5.5917,-5.5265,-5.3708,-5.3708,-5.3432,-5.3005,-5.3507,-5.4059,-5.4612,-5.4658,-5.4888,0.0,0.0,0.0,0.0,0.0,0.0,0.0,0.0,0.0,0.0,0.0,0.0,0.0,0.0,0.0,0.0,0.0,-5.1791,-5.2992,-5.384,-5.3137,-5.2143,-5.1708,-5.0653,0.0,-4.9162,-4.9059,-4.9059,-4.9059,-4.9059,-4.908,-4.91,-4.9121,-4.9431,-5.0342,-5.1025,-5.2267,-5.4461,-5.7111,0.0,-5.8622,-5.9864,-6.0671,-6.063,0.0,0.0,-5.9988,-5.9988,-5.9968,-5.9947,-5.9947,-5.9947,-5.9947,-5.9512,-5.9264,-5.9202,-5.8291,-5.7629,-5.7152,-5.6242,-5.56,0.0,0.0,0.0,0.0,-5.4544,-5.4544,-5.4524,-5.4503,-5.4482,-5.442,-5.3965,-5.3799,-5.3737,0.0,0.0,0.0,0.0,0.0,0.0,0.0,0.0,0.0,0.0,-5.4956,-5.507,-5.5287,-5.4432,-5.4099,0.0,0.0,0.0,0.0,0.0,0.0,0.0,0.0,0.0,-5.3683,-5.3306,-5.3858,-5.539,-5.5089,-5.5089,-5.539,-5.5516,-5.4913,-5.3708,-5.3708,-5.3632,-5.3532,-5.3658,-5.4285,-5.5164,-5.4737,-5.4888,0.0,0.0,0.0,0.0,-5.1657,-5.0665,0.0,0.0,0.0,0.0,0.0,0.0,0.0,0.0,-4.6349,-4.6638,-4.7734,0.0,-4.9017,-4.9245,-4.9576,-4.9845,0.0,-4.9742,-4.9704,-4.9162,-4.9059,-4.9059,-4.9059,-4.9059,-4.9183,-4.9535,-4.9684,-4.9908,-5.0818,-5.3137,-5.5207,-5.6449,-5.8726,-5.9781,-5.8705,-5.9864,-6.0527,-6.0175,0.0,-5.9988,-5.9988,-5.9988,-5.9823,-5.9471,-5.9471,-5.9471,-5.9471,-5.9367,-5.8933,-5.8229,-5.767,-5.7152,-5.6697,-5.5766,-5.5289,0.0,0.0,0.0,-5.4544,-5.4544,-5.4544,-5.4503,-5.4151,-5.3912,-5.3944,-5.3509,-5.3344,-5.3323,0.0,0.0,0.0,0.0,0.0,0.0,0.0,0.0,0.0,0.0,-5.4645,-5.4443,-5.4309,-5.3793,-5.3546,0.0,0.0,0.0,0.0,0.0,0.0,0.0,-5.2929,-5.3181,-5.3683,-5.3683,-5.4361,-5.5767,-5.5993,-5.6118,-5.6143,-5.642,-5.5666,-5.4084,-5.3582,-5.3356,-5.3381,-5.3884,-5.4461,-5.4988,-5.4687,0.0,0.0,0.0,0.0,0.0,-5.1597,-5.0857,0.0,-4.7432,-4.6266,-4.6266,0.0,0.0,0.0,0.0,-4.6266,-4.6328,-4.6576,-4.7196,-4.7734,-4.7941,-4.8376,-4.881,-4.9017,-4.91,-4.9121,-4.908,-4.9059,-4.9059,-4.9059,-4.9059,-4.9224,-4.968,-4.9849,-5.0218,-5.1564,-5.3778,-5.5745,-5.707,-5.8705,-5.9595,0.0,-5.9926,-6.0257,0.0,0.0,-5.9988,-5.9988,-5.9781,-5.9554,-5.9305,-5.8891,-5.8767,-5.8974,-5.856,-5.8105,-5.7587,-5.6718,-5.6159,-5.591,-5.5207,-5.4896,0.0,0.0,0.0,-5.4544,-5.4544,-5.442,-5.4192,-5.3944,-5.3716,-5.3489,-5.3033,-5.2868,-5.2847,0.0,0.0,0.0,0.0,0.0,0.0,0.0,0.0,0.0,0.0,0.0,0.0,0.0,0.0,0.0,0.0,0.0,0.0,0.0,0.0,0.0,0.0,-5.2929,-5.3206,-5.3808,-5.416,-5.4938,-5.6219,-5.7173,-5.7474,-5.7173,-5.7826,-5.6947,-5.4762,-5.3758,-5.3206,-5.3105,-5.4034,-5.4486,-5.4561,-5.4461,0.0,0.0,0.0,0.0,0.0,0.0,0.0,0.0,-4.747,-4.6447,-4.6566,-4.6326,0.0,0.0,0.0,0.0,0.0,-4.6349,-4.7113,-4.7858,-4.8107,-4.8231,-4.8396,-4.8852,-4.8666,-4.85,-4.8976,-4.9059,-4.9059,-4.9059,-4.9121,-4.9307,-4.9787,-4.9928,-5.0736,-5.264,-5.4027,-5.5476,-5.7132,-5.8208,0.0,-5.9719,-5.9906,-5.9988,0.0,0.0,-5.9885,-5.9885,-5.9388,-5.9098,-5.9098,-5.8187,-5.7898,-5.8291,-5.7525,-5.7049,-5.6904,-5.5745,-5.5145,-5.5082,-5.471,-5.4544,-5.4544,0.0,0.0,-5.442,-5.442,-5.4151,-5.3737,-5.3675,-5.3406,-5.3013,-5.2557,-5.2392,-5.2329,0.0,0.0,0.0,0.0,0.0,0.0,0.0,0.0,0.0,0.0,0.0,0.0,0.0,0.0,0.0,0.0,0.0,0.0,0.0,0.0,0.0,-5.2929,-5.2929,-5.3406,-5.4411,-5.3607,-5.4185,-5.6219,-5.6394,-5.6922,-5.7775,-5.878,-5.8077,-5.5942,-5.529,-5.4486,-5.3582,-5.3758,-5.411,-5.4607,-5.4034,0.0,0.0,0.0,0.0,0.0,0.0,0.0,0.0,-4.7532,-4.6938,-4.7612,-4.6605,0.0,0.0,0.0,0.0,0.0,-4.6741,-4.7589,-4.8107,-4.7424,-4.7527,-4.792,-4.8376,-4.8417,-4.85,-4.8976,-4.9059,-4.9059,-4.9059,-4.939,-4.9767,-4.9829,-5.0736,-5.2247,-5.4461,0.0,-5.6635,-5.7691,0.0,-5.9533,-5.8891,-5.9533,0.0,0.0,0.0,-5.9409,-5.9409,-5.8601,-5.8125,-5.8125,-5.7256,-5.6801,-5.6883,-5.6738,-5.6262,-5.5496,-5.5289,-5.4979,-5.4627,-5.4565,-5.4544,-5.4544,0.0,-5.4317,-5.3944,-5.3944,-5.3675,-5.324,-5.2847,-5.2661,-5.2536,-5.2081,-5.1915,-5.1895,0.0,0.0,0.0,0.0,0.0,0.0,0.0,0.0,0.0,0.0,0.0,0.0,0.0,0.0,0.0,0.0,0.0,0.0,0.0,-5.2929,-5.3055,-5.3331,-5.3356,-5.3582,-5.4084,-5.421,-5.5039,-5.6646,-5.7273,-5.8127,-5.9207,-5.8805,-5.7775,-5.6168,-5.5315,-5.4486,-5.3708,-5.4034,-5.4336,-5.4511,0.0,0.0,0.0,0.0,0.0,0.0,0.0,0.0,0.0,0.0,-4.6711,-4.7775,-4.6371,0.0,0.0,0.0,0.0,0.0,-4.6514,-4.732,-4.79,-4.7486,-4.792,-4.8479,-4.8707,-4.8562,-4.85,-4.8976,-4.9059,-4.9142,-4.939,-4.9804,-5.0446,-5.1439,-5.2536,-5.3716,-5.5,-5.5766,-5.6614,0.0,0.0,-5.9264,-5.9347,-5.974,0.0,0.0,0.0,0.0,-5.8581,-5.7918,-5.7546,-5.7546,-5.6656,-5.62,-5.62,-5.5952,-5.56,-5.5186,-5.4938,-5.4731,-5.4544,-5.4544,-5.4544,-5.4524,0.0,-5.4048,-5.382,-5.3592,-5.322,-5.2785,-5.2578,-5.235,-5.2102,-5.1874,-5.1791,-5.1791,0.0,0.0,0.0,0.0,0.0,0.0,0.0,0.0,0.0,0.0,0.0,0.0,0.0,0.0,0.0,0.0,0.0,0.0,0.0,-5.2929,-5.3155,-5.3683,-5.3708,-5.3884,-5.4285,-5.5139,-5.6244,-5.7625,-5.8755,-5.991,-6.1065,-5.9433,-5.8001,-5.6746,-5.5516,-5.4561,-5.3934,-5.4235,-5.4436,-5.4536,0.0,0.0,0.0,0.0,0.0,0.0,0.0,0.0,0.0,0.0,0.0,0.0,0.0,0.0,0.0,-4.6266,-4.6266,-4.6308,-4.6596,-4.7237,-4.7879,-4.7982,-4.8459,-4.8997,-4.9307,-4.9017,-4.8893,-4.9576,-4.9618,-4.9659,-5.0011,-5.0529,-5.1439,-5.3075,-5.4089,-5.4917,-5.5579,-5.5973,-5.6656,-5.7939,-5.8394,-5.8891,-5.9595,0.0,0.0,0.0,0.0,0.0,-5.7815,-5.7215,-5.6904,-5.6904,-5.6035,-5.56,-5.5703,-5.5269,-5.5041,-5.502,-5.4689,-5.4544,-5.4544,-5.4544,-5.4544,-5.4503,-5.4048,-5.3778,-5.3654,-5.3199,-5.2743,-5.2329,-5.2329,-5.2122,-5.1791,-5.1791,-5.1791,-5.1791,0.0,0.0,0.0,0.0,0.0,0.0,0.0,0.0,0.0,0.0,0.0,0.0,0.0,0.0,0.0,0.0,0.0,0.0,0.0,-5.2929,-5.3155,-5.3683,-5.3708,-5.4436,-5.5993,-5.6118,-5.7198,-5.9307,-6.0437,-6.1843,-6.3425,-6.1743,-6.0085,-5.8478,-5.6821,-5.5491,-5.4461,-5.3984,-5.4084,-5.4561,-5.4511,0.0,0.0,0.0,0.0,0.0,0.0,0.0,0.0,0.0,0.0,0.0,0.0,0.0,-4.6266,-4.6266,-4.6266,-4.6452,-4.7361,-4.7941,-4.8438,-4.8852,-4.8686,-4.8769,-5.0032,-4.997,-5.0032,-5.1336,-5.1253,-5.0984,-5.1005,-5.1729,-5.2661,-5.3633,-5.4544,-5.56,-5.6904,0.0,-5.7484,-5.8436,-5.8581,-5.8643,-5.8705,0.0,0.0,0.0,0.0,0.0,-5.7318,-5.6449,-5.5973,-5.5973,-5.5103,-5.4834,-5.5227,-5.4793,-5.4586,-5.4586,-5.4544,-5.4544,-5.4544,-5.4544,-5.4544,-5.4503,-5.4048,-5.3613,-5.3199,-5.2723,-5.2267,-5.1853,-5.1853,-5.1833,-5.1791,-5.1791,-5.1791,-5.1791,0.0,0.0,0.0,0.0,0.0,0.0,0.0,0.0,0.0,0.0,0.0,0.0,0.0,0.0,0.0,0.0,0.0,0.0,-5.2427,-5.2729,-5.3155,-5.3683,-5.4059,-5.4863,-5.6194,-5.6897,-5.8679,-6.1567,-6.3023,-6.335,-6.2621,-6.1291,-5.9408,-5.7123,-5.6495,-5.5591,-5.4587,-5.4687,-5.4888,-5.5039,-5.4712,-5.4436,0.0,0.0,0.0,0.0,0.0,0.0,0.0,0.0,-4.6134,-4.7081,-4.5849,-4.5892,-4.6266,-4.6266,-4.6266,-4.6349,-4.6761,-4.7382,-4.8065,-4.8521,-4.8728,-4.9162,-5.0529,-5.0943,-5.117,-5.1688,-5.2329,-5.2723,-5.2454,-5.3157,-5.3965,-5.4586,-5.5434,-5.6428,-5.7504,-5.7649,-5.7898,-5.8539,-5.8601,-5.8601,0.0,0.0,0.0,0.0,0.0,0.0,-5.6449,-5.6055,-5.5745,-5.5455,-5.4855,-5.4751,-5.5186,-5.4751,-5.4544,-5.4544,-5.4544,-5.4544,-5.4544,-5.4544,-5.4379,-5.4089,-5.3633,-5.3178,-5.2723,-5.2247,-5.1957,-5.1791,-5.1791,-5.1791,-5.1791,-5.1791,-5.1791,-5.1853,0.0,0.0,0.0,0.0,0.0,0.0,0.0,0.0,0.0,0.0,0.0,0.0,0.0,0.0,0.0,0.0,0.0,0.0,-5.2126,-5.2628,-5.3155,-5.3683,-5.426,-5.5164,-5.6445,-5.775,-5.9784,-6.2571,-6.4404,-6.4254,-6.2245,-6.0964,-5.9257,-5.7223,-5.6344,-5.5817,-5.5616,-5.544,-5.5491,-5.5616,-5.5239,-5.4988,0.0,0.0,0.0,0.0,0.0,0.0,0.0,0.0,-4.5812,-4.6442,-4.554,-4.5726,-4.6266,-4.6266,-4.6266,-4.6287,-4.6452,-4.7113,-4.7796,-4.8252,-4.8831,-4.9721,-5.1377,-5.1895,-5.2226,-5.295,-5.3613,-5.3923,-5.3468,-5.4027,-5.4668,-5.5103,-5.6076,-5.6987,-5.7608,-5.7691,-5.7815,-5.8146,-5.8167,0.0,0.0,0.0,0.0,0.0,0.0,0.0,0.0,-5.5745,-5.5434,-5.5,-5.4689,-5.4668,-5.4979,-5.4689,-5.4544,-5.4544,-5.4544,-5.4544,-5.4524,-5.4379,-5.4151,-5.382,-5.322,-5.2785,-5.2454,-5.1998,-5.1791,-5.1791,-5.1791,-5.1791,-5.1791,-5.1791,-5.1791,-5.1853,0.0,0.0,0.0,0.0,0.0,0.0,0.0,0.0,0.0,0.0,0.0,0.0,0.0,0.0,0.0,0.0,0.0,0.0,-5.2126,-5.2628,-5.3155,-5.3683,-5.426,-5.534,-5.6972,-5.8629,-6.0311,-6.2019,-6.4203,-6.4429,-6.2772,-6.1115,-6.0035,-5.9332,-5.662,-5.6344,-5.7775,-5.6118,-5.5717,-5.6219,-5.6219,-5.5892,-5.539,0.0,0.0,0.0,0.0,0.0,0.0,0.0,-4.7115,-4.5064,-4.554,-4.5995,-4.6266,-4.6266,-4.6266,-4.637,-4.6906,-4.7341,-4.7796,-4.8252,-4.908,-5.0363,-5.2661,-5.2826,-5.3137,-5.5414,-5.5165,-5.4399,-5.3944,-5.4234,-5.4689,-5.5124,-5.6324,-5.7215,-5.7235,-5.7235,-5.7235,-5.7235,0.0,0.0,0.0,0.0,0.0,0.0,0.0,0.0,0.0,-5.5434,-5.4979,-5.4544,-5.4544,-5.4544,-5.4544,-5.4544,-5.4544,-5.4544,-5.4524,-5.4524,-5.4503,-5.4048,-5.384,-5.3778,-5.2888,-5.2495,-5.2454,-5.1998,-5.1791,-5.1791,-5.1791,-5.1791,-5.1791,-5.1791,-5.1791,-5.1791,0.0,0.0,0.0,0.0,0.0,0.0,0.0,0.0,0.0,0.0,0.0,0.0,0.0,0.0,0.0,0.0,0.0,0.0,-5.2126,-5.2628,-5.3005,-5.3155,-5.4059,-5.4787,-5.529,-5.77,-6.0136,-6.2571,-6.4002,-6.3274,-6.0487,-6.0387,-5.9207,-5.7198,-5.7549,-5.7323,-5.6721,-5.6595,-5.642,-5.6219,-5.6219,-5.6118,-5.5968,0.0,0.0,0.0,0.0,0.0,0.0,0.0,0.0,0.0,-4.5147,-4.5954,-4.6761,-4.637,-4.6493,-4.6721,-4.6514,-4.6885,-4.7424,-4.8189,-4.908,-5.0363,-5.2661,-5.3075,-5.3716,-5.6283,-5.5848,-5.5145,-5.5662,-5.56,-5.5517,-5.5641,-5.6283,-5.6863,-5.7194,-5.7235,-5.7235,0.0,0.0,0.0,0.0,0.0,0.0,0.0,0.0,0.0,0.0,-5.5269,-5.4979,-5.4544,-5.4544,-5.4544,-5.4544,-5.4544,-5.4544,-5.4524,-5.4213,-5.4048,-5.4048,-5.3808,-5.3489,-5.2888,-5.2599,-5.2309,-5.1998,-5.1853,-5.1791,-5.1791,-5.1791,-5.1791,-5.1791,-5.1791,-5.1791,-5.1895,0.0,0.0,0.0,0.0,0.0,0.0,0.0,0.0,0.0,0.0,-5.2998,-5.2929,0.0,0.0,0.0,0.0,0.0,0.0,-5.2126,-5.2628,-5.303,-5.3231,-5.4084,-5.4988,-5.5867,-5.7951,-5.9734,-6.1165,-6.2521,-6.1793,-5.9207,-5.996,-5.9433,-5.7876,-5.888,-5.878,-5.7826,-5.775,-5.7248,-5.6545,-5.6545,-5.6821,-5.7148,0.0,0.0,0.0,0.0,0.0,0.0,0.0,0.0,0.0,-4.5271,-4.5954,-4.6638,-4.6349,-4.6452,-4.6617,-4.6349,-4.6803,-4.7465,-4.8189,-4.9349,-5.0839,-5.2971,-5.4151,-5.5248,-5.6883,-5.6428,-5.591,-5.6469,-5.618,-5.5931,-5.6117,-5.6531,-5.6925,-5.7194,-5.7235,0.0,0.0,0.0,0.0,0.0,0.0,0.0,0.0,0.0,0.0,0.0,-5.502,-5.4813,-5.4544,-5.4544,-5.4544,-5.4544,-5.4544,-5.4441,-5.4255,-5.3985,-5.3654,-5.3302,-5.3302,-5.3013,-5.2474,-5.2288,-5.206,-5.1791,-5.1791,-5.1791,-5.1791,-5.1791,-5.1915,-5.2081,-5.2081,-5.2081,-5.2185,0.0,0.0,-5.4485,-5.4366,0.0,0.0,0.0,0.0,0.0,0.0,-5.3136,-5.2929,0.0,0.0,0.0,0.0,0.0,0.0,0.0,-5.2653,-5.3155,-5.3683,-5.4361,-5.5717,-5.7851,-5.8805,-5.9031,-5.8529,-6.0211,-6.0186,-5.8604,-5.9759,-6.0286,-6.0236,-6.0362,-6.0337,-6.0186,-5.9106,-5.8027,-5.7022,-5.7022,-5.77,-5.8604,-5.7474,0.0,0.0,0.0,0.0,0.0,0.0,0.0,0.0,-4.5685,-4.6016,-4.6328,-4.6287,-4.6287,-4.6328,-4.6328,-4.703,-4.7817,-4.8417,-5.0011,-5.1874,-5.3633,-5.5662,-5.7173,-5.7173,-5.6883,-5.6635,-5.6676,-5.6304,-5.6138,-5.6552,-5.6966,-5.7215,-5.7173,-5.7194,0.0,0.0,0.0,0.0,0.0,0.0,0.0,0.0,0.0,0.0,0.0,-5.4731,-5.4503,-5.442,-5.4503,-5.4524,-5.4482,-5.4482,-5.4255,-5.384,-5.3758,-5.3302,-5.2495,-5.2495,-5.2474,-5.2412,-5.1978,-5.1791,-5.1791,-5.1791,-5.1791,-5.1791,-5.1791,-5.2081,-5.2495,-5.2495,-5.2516,-5.2619,0.0,0.0,-5.4608,-5.3608,0.0,0.0,0.0,0.0,0.0,0.0,-5.2929,0.0,0.0,0.0,0.0,0.0,0.0,0.0,0.0,-5.2854,-5.3155,-5.3683,-5.5089,-5.6495,-5.7876,-5.7675,-5.7499,-5.7399,-5.9056,-5.9006,-5.7449,-5.9408,-6.0085,-5.9709,-6.0613,-6.0512,-5.9608,-5.8529,-5.7675,-5.7022,-5.7022,-5.77,-5.8604,-5.7474,-5.6524,0.0,0.0,0.0,0.0,0.0,0.0,0.0,-4.5685,-4.6244,-4.6823,-4.637,-4.6514,-4.6885,-4.6885,-4.7279,-4.8045,-4.9597,-5.1895,-5.4089,-5.5186,-5.6097,-5.6718,-5.6718,-5.6904,-5.7194,-5.7566,-5.7256,-5.6966,-5.707,-5.7173,-5.7111,-5.6759,0.0,0.0,0.0,0.0,0.0,0.0,0.0,0.0,0.0,0.0,0.0,-5.4151,-5.4379,-5.4213,-5.3489,-5.4172,-5.4358,-5.3985,-5.3985,-5.3944,0.0,-5.3116,-5.2681,-5.2495,-5.2495,-5.2288,-5.1936,-5.1853,-5.1791,-5.1791,-5.1791,-5.1791,-5.1791,-5.1791,-5.2081,-5.2495,-5.2495,-5.2723,-5.3095,0.0,0.0,0.0,0.0,0.0,0.0,0.0,0.0,0.0,0.0,0.0,0.0,0.0,0.0,0.0,0.0,-5.2929,0.0,0.0,-5.2929,-5.3281,-5.4084,-5.5717,-5.6771,-5.7072,-5.7047,-5.6897,-5.6646,-5.7499,-5.7625,-5.7072,-5.8755,-5.9809,-6.0337,-6.119,-6.0939,-5.9859,-5.9307,-5.8428,-5.7474,-5.7725,-5.8504,-5.9332,-5.7976,-5.6744,-5.553,-5.3294,0.0,0.0,0.0,0.0,0.0,0.0,0.0,-4.6576,-4.6328,-4.6597,-4.703,-4.703,-4.7672,-4.8831,-5.0901,-5.2992,-5.4772,-5.5662,-5.6221,-5.6614,-5.6842,-5.707,-5.7297,-5.7546,-5.738,-5.7235,-5.7235,-5.7049,-5.6821,0.0,0.0,0.0,0.0,0.0,0.0,0.0,0.0,0.0,0.0,0.0,-5.4006,-5.3551,-5.3758,-5.3675,-5.3199,-5.384,-5.3985,-5.353,-5.3737,-5.3633,-5.3199,-5.2723,-5.2371,-5.2164,-5.2164,-5.2019,-5.1812,-5.204,-5.2143,-5.2143,-5.2143,-5.2143,-5.2102,-5.1895,-5.2226,-5.2826,-5.2826,-5.3116,-5.3571,0.0,0.0,0.0,0.0,0.0,0.0,0.0,0.0,0.0,0.0,0.0,0.0,0.0,0.0,-5.2929,0.0,0.0,0.0,0.0,0.0,0.0,-5.4662,-5.6118,-5.6771,-5.652,-5.6846,-5.6821,-5.6344,-5.6269,-5.6595,-5.7349,-5.8252,-5.9508,-6.104,-6.1416,-6.1065,-6.0161,-5.9859,-5.9031,-5.7951,-5.8504,-5.9357,-6.0161,-5.8629,-5.7415,-5.6357,-5.4075,-5.1501,-4.9135,-4.8583,0.0,0.0,0.0,0.0,-4.6266,-4.6266,-4.6535,-4.6947,-4.701,-4.8148,-4.9804,-5.1957,-5.3468,-5.4648,-5.5559,-5.6055,-5.6449,-5.6904,-5.7111,-5.7235,-5.7235,-5.7173,-5.7111,-5.7111,-5.6738,0.0,0.0,0.0,0.0,0.0,0.0,0.0,0.0,0.0,0.0,0.0,0.0,-5.3654,-5.3199,-5.3178,-5.3137,-5.3054,-5.3509,-5.3509,-5.3075,-5.3427,-5.324,-5.2495,-5.2412,-5.2164,-5.1791,-5.1874,-5.1915,-5.1957,-5.2412,-5.2619,-5.2619,-5.2619,-5.2619,-5.2578,-5.2185,-5.2557,-5.3302,-5.3302,-5.3592,-5.4027,0.0,0.0,0.0,0.0,0.0,0.0,0.0,0.0,0.0,0.0,-5.3206,-5.3105,0.0,0.0,0.0,-5.2929,-5.2929,-5.2929,-5.2929,0.0,0.0,-5.5239,-5.5942,-5.6746,-5.765,-5.7248,-5.6923,-5.6922,-5.6445,-5.6997,-5.8504,-5.8629,-5.9307,-6.0412,-6.001,-5.9734,-5.9508,-5.8077,-5.765,-5.7951,-5.8504,-5.9357,-6.0186,-5.9056,-5.8502,-5.7767,-5.3235,-5.137,-5.052,-4.7571,-4.6509,0.0,0.0,0.0,-4.6266,-4.6266,-4.6308,-4.6452,-4.6927,-4.8603,-5.0591,-5.2122,-5.322,-5.4172,-5.5082,-5.5331,-5.5496,-5.5952,-5.6676,-5.7235,-5.7235,-5.6925,-5.6656,-5.6656,0.0,0.0,0.0,0.0,0.0,0.0,0.0,0.0,0.0,0.0,0.0,0.0,-5.3633,-5.3654,-5.3199,-5.3178,-5.2992,-5.2599,-5.3033,-5.3054,-5.2578,-5.264,-5.2619,-5.2495,-5.2081,-5.1853,-5.1812,-5.2226,-5.2392,-5.2433,-5.2888,-5.3095,-5.3095,-5.3095,-5.3095,-5.3075,-5.3013,-5.3302,-5.3758,-5.3758,-5.4048,-5.4461,0.0,0.0,0.0,0.0,0.0,0.0,0.0,0.0,0.0,0.0,0.0,-5.3582,0.0,0.0,0.0,-5.3381,-5.3356,-5.3231,-5.2955,-5.2614,-5.3187,-5.4888,-5.4619,-5.5213,-5.6922,-5.6696,-5.6103,-5.5162,-5.5879,-5.6601,-5.7323,-5.8596,-5.9885,-6.1215,-6.0362,-5.996,-5.9885,-5.8855,-5.8403,-5.8378,-5.8629,-5.9006,-5.9307,-5.8202,-5.6592,-5.4658,-5.2179,-5.0053,-4.8288,-4.6811,-4.6266,-4.6266,-4.6266,0.0,0.0,0.0,-4.6452,-4.6947,-4.792,-4.91,-5.0384,-5.1771,-5.2599,-5.3385,-5.4565,-5.4813,-5.502,-5.5724,-5.62,-5.6469,-5.6469,-5.6304,-5.618,-5.618,0.0,0.0,0.0,0.0,0.0,0.0,0.0,0.0,0.0,0.0,0.0,0.0,-5.322,-5.3157,-5.2454,-5.2412,-5.2309,-5.2102,-5.2557,-5.2578,-5.2102,-5.2371,-5.2371,-5.2102,-5.1895,-5.1936,-5.2205,-5.2661,-5.2743,-5.2536,-5.324,-5.3551,-5.353,-5.3282,-5.3323,-5.3509,-5.2992,-5.322,-5.384,-5.384,-5.4151,-5.4544,0.0,0.0,0.0,0.0,0.0,0.0,0.0,0.0,0.0,0.0,0.0,0.0,0.0,0.0,0.0,0.0,-5.3582,-5.3192,-5.2377,-5.1598,-5.2038,-5.3917,-5.323,-5.3912,-5.612,-5.5361,-5.4522,-5.3726,-5.4967,-5.595,-5.6673,-5.8212,-6.0313,-6.2772,-6.1366,-6.0426,-5.9831,-5.9629,-5.91,-5.8464,-5.8166,-5.7737,-5.7155,-5.6366,-5.4454,-5.2005,-5.1149,-4.9166,-4.6891,-4.6428,-4.6266,-4.6266,-4.6266,-4.6266,0.0,0.0,0.0,-4.7113,-4.8252,-4.8976,-4.9701,-5.0963,-5.1812,-5.2619,-5.3758,-5.4192,-5.4544,0.0,-5.5455,-5.5538,-5.5538,-5.5621,-5.5703,0.0,0.0,0.0,0.0,0.0,0.0,0.0,0.0,0.0,0.0,0.0,0.0,0.0,-5.2743,-5.2702,-5.2019,-5.1853,-5.1853,-5.1978,-5.2205,-5.2143,-5.1812,-5.2267,-5.2309,-5.1978,-5.2102,-5.2329,-5.2681,-5.3137,-5.3157,-5.2868,-5.3551,-5.3923,-5.3985,-5.353,-5.3613,-5.3944,-5.3282,-5.3427,-5.4027,-5.4027,-5.4234,-5.4544,0.0,0.0,0.0,0.0,0.0,0.0,0.0,0.0,0.0,0.0,0.0,-5.411,-5.5239,-5.4386,-5.3733,-5.3708,-5.3256,-5.2308,-5.0787,-5.067,-5.1152,-5.226,-5.2187,0.0,-5.612,-5.3148,-5.2289,-5.3726,-5.3801,-5.5226,-5.7783,-5.7622,-6.0212,-6.5032,-6.2873,-6.0707,-5.8717,-5.9309,-5.89,-5.7846,-5.6752,-5.509,-5.3195,-5.361,-5.3092,-5.1895,-5.0237,-4.9213,-4.8446,-4.6811,-4.6266,-4.6266,-4.6266,-4.6266,-4.6266,0.0,0.0,0.0,-4.701,-4.7775,-4.8666,-4.9618,-5.086,-5.1978,-5.2495,-5.3261,-5.3903,-5.3944,-5.4296,-5.4606,-5.4606,-5.4938,0.0,0.0,0.0,0.0,0.0,0.0,0.0,0.0,0.0,0.0,0.0,0.0,0.0,0.0,-5.2267,-5.2516,-5.2454,-5.204,-5.1998,-5.2433,-5.206,-5.1833,-5.1791,-5.2267,-5.2474,-5.2454,-5.2909,-5.3116,-5.3157,-5.3613,-5.3799,-5.3778,-5.382,-5.4089,-5.4461,-5.4006,-5.4089,-5.4503,-5.4441,-5.4461,-5.4503,-5.4503,-5.4524,-5.4544,0.0,0.0,0.0,0.0,0.0,0.0,0.0,0.0,0.0,0.0,0.0,0.0,0.0,-5.2146,-5.1576,-5.1244,-5.0436,-4.9842,-4.95,-4.8575,-4.8959,-5.104,-5.0109,-5.0657,-5.2973,-5.1907,-5.1062,-5.0598,-5.1678,-5.2626,-5.3583,-5.5147,-5.681,-5.8438,-5.8747,-6.005,-6.1639,-5.8151,-5.7099,-5.755,-5.5051,-5.371,-5.3336,-5.3568,-5.3008,-5.2005,-5.2148,-5.0734,-4.8741,-4.8129,-4.7192,-4.6266,-4.6266,-4.6266,-4.6204,-4.5995,-4.6119,-4.6308,-4.6554,-4.7051,-4.7879,-4.939,-4.9908,-5.0404,-5.175,-5.2288,-5.2619,-5.2909,-5.3344,-5.3675,-5.3675,0.0,0.0,0.0,0.0,0.0,0.0,0.0,0.0,0.0,0.0,0.0,0.0,0.0,0.0,0.0,0.0,-5.2371,-5.206,-5.1895,-5.1874,-5.204,-5.1895,-5.1936,-5.2247,-5.2702,-5.293,-5.293,-5.3095,-5.3344,-5.3613,-5.3778,-5.3912,-5.4275,-5.3985,-5.411,-5.4482,-5.3716,-5.3861,-5.4482,-5.3903,-5.384,-5.4089,-5.4089,-5.4089,-5.413,0.0,0.0,0.0,-5.4619,0.0,-5.2405,-5.1006,-5.0505,-5.0237,-5.0065,0.0,0.0,0.0,0.0,-5.0329,-4.9824,-4.864,-4.8094,-4.8358,-4.7405,-4.7705,-4.9598,-4.8642,-4.9096,-5.1293,-5.0546,-4.9681,-4.882,-5.0232,-5.0969,-5.1208,-5.3078,-5.4614,-5.5842,-5.5333,-5.7549,-6.137,-5.7801,-5.6567,-5.6721,-5.346,-5.2151,-5.2057,-5.2116,-5.1719,-5.1108,-5.1866,-5.0577,-4.8399,-4.8077,-4.7192,-4.6266,-4.6266,-4.6266,-4.6285,-4.5995,-4.6119,-4.6266,-4.6266,-4.6597,-4.7403,-4.8914,-4.9059,-4.9224,-5.0756,-5.1232,-5.146,-5.1936,-5.2516,-5.2992,-5.3157,0.0,0.0,0.0,0.0,0.0,0.0,0.0,0.0,0.0,0.0,0.0,0.0,0.0,0.0,0.0,0.0,0.0,-5.1812,-5.1791,-5.1791,-5.1791,-5.1957,-5.2185,-5.2495,-5.3095,-5.3406,-5.3406,-5.3571,-5.3799,-5.4068,-5.3923,-5.4006,-5.4275,-5.382,-5.3965,-5.4482,-5.3716,-5.3758,-5.4234,-5.3633,-5.3489,-5.3633,-5.3799,-5.3758,-5.3696,-5.6047,-5.4328,-5.2808,-5.2808,-5.1021,-4.9628,-4.9553,-4.9531,-4.9713,-5.0315,0.0,0.0,0.0,0.0,0.0,-4.9524,-4.8142,-4.7247,-4.7247,-4.7247,-4.7465,-4.8021,-4.7965,-4.8963,-5.1139,-4.8849,-4.7996,-4.8741,-4.962,-5.0458,-5.1164,-5.1336,-5.3842,-5.7975,-5.3244,-5.3512,-5.748,-5.8187,-5.7333,-5.518,-5.214,-5.0226,-4.9121,-4.9165,-4.9165,-4.9165,-4.923,-4.8648,-4.7672,-4.6781,-4.6409,-4.6349,-4.6308,-4.6287,-4.6287,-4.6246,-4.6246,-4.6266,0.0,0.0,0.0,-4.8127,-4.8334,-4.8583,-4.9494,-5.0052,-5.0487,-5.0963,-5.1791,-5.2578,0.0,0.0,0.0,0.0,0.0,0.0,0.0,0.0,0.0,0.0,0.0,0.0,0.0,0.0,0.0,0.0,-5.1791,-5.1791,-5.1791,-5.1791,-5.1791,-5.1791,-5.2247,-5.2495,-5.2495,-5.3385,-5.384,-5.3861,-5.4317,-5.4524,-5.4503,-5.4048,-5.3746,-5.3799,-5.3364,-5.3675,-5.4461,-5.4006,-5.382,-5.382,-5.382,-5.3551,-5.322,-5.3654,-5.353,-5.322,-5.2897,-5.2172,-5.1775,-5.1775,-5.0901,-4.9875,-4.8729,-4.8211,-4.7707,0.0,0.0,0.0,-4.7608,-4.7544,-4.7288,-4.6819,-4.6405,-4.6169,-4.6169,-4.6169,-4.6379,-4.6762,-4.6783,-4.7065,-4.7651,-4.7062,-4.6758,-4.6972,-4.7223,-4.7662,-4.8227,-4.8923,-5.042,-5.2643,-5.2291,-5.2819,-5.3829,-5.2741,-5.3253,-5.4587,-5.1039,-4.9967,-5.0601,-5.0741,-5.1058,-5.1485,-5.2376,-5.1734,-5.037,-4.9851,-4.9088,-4.8189,-4.7527,-4.7092,-4.672,-4.6057,-4.6099,-4.6285,-4.5954,0.0,0.0,0.0,0.0,0.0,-4.8541,-4.8852,-4.908,-4.9535,-5.0363,-5.1129,0.0,0.0,0.0,0.0,0.0,0.0,0.0,0.0,0.0,0.0,0.0,0.0,0.0,0.0,0.0,0.0,-5.1791,-5.1791,-5.1791,-5.1791,-5.1791,-5.1791,-5.2247,-5.2495,-5.2495,-5.3385,-5.384,-5.3861,-5.4317,-5.4358,-5.4027,-5.3903,-5.3675,-5.3364,-5.324,-5.3323,-5.3551,-5.3427,-5.3364,-5.3323,-5.2992,-5.2785,-5.2702,-5.2826,-5.2785,-5.2743,-5.1447,-5.0753,-5.0287,-5.0287,-4.944,-4.8405,-4.7483,-4.709,-4.6632,0.0,0.0,0.0,-4.6596,-4.6803,-4.672,-4.6285,-4.6244,-4.6161,-4.5975,-4.5954,-4.6078,-4.6246,-4.6266,-4.6266,-4.6266,-4.6906,-4.6927,-4.6266,-4.6927,-4.7051,-4.6761,-4.7672,-4.8728,-4.9887,-5.0694,-5.1377,-5.1812,-5.0156,-5.1043,-5.3238,-5.0635,-5.0446,-5.1674,-5.167,-5.1913,-5.2341,-5.2886,-5.2325,-5.1188,-5.042,-4.966,-4.8914,-4.7982,-4.7775,-4.7672,-4.6575,-4.6699,-4.7051,-4.6409,-4.6575,-4.7072,-4.7796,0.0,0.0,-4.7693,-4.7672,-4.7651,0.0,-4.879,0.0,0.0,0.0,0.0,0.0,0.0,0.0,0.0,0.0,0.0,0.0,0.0,0.0,0.0,-5.1791,-5.1791,-5.1791,-5.1791,-5.1791,-5.1791,-5.1791,-5.1791,-5.1791,-5.2433,-5.2681,-5.2495,-5.3385,-5.3758,-5.3571,-5.384,-5.384,-5.3571,-5.3364,-5.3137,-5.2888,-5.2888,-5.2785,-5.2619,-5.2806,-5.2888,-5.2868,-5.2599,-5.2371,-5.2226,-5.2433,-5.2495,-5.2557,0.0,-4.9506,-4.8504,-4.8504,-4.7314,-4.6349,-4.6349,-4.6349,-4.637,0.0,-4.6492,-4.6678,-4.7134,-4.7527,-4.761,-4.7217,-4.7134,-4.6906,-4.637,-4.6287,-4.6266,-4.6266,-4.6266,-4.6266,-4.6266,-4.7589,-4.761,-4.6266,-4.761,-4.761,-4.637,-4.7299,-4.8148,-4.8997,-4.9038,-4.9742,-5.0818,-4.9701,-5.0135,-5.1501,-5.0736,-5.1274,-5.2516,-5.206,-5.2164,-5.2516,-5.204,-5.1605,-5.1067,-4.9804,-4.9266,0.0,-4.8169,-4.8376,-4.8666,-4.7465,-4.7631,-4.8065,-4.732,-4.7382,-4.7775,-4.8189,-4.7734,0.0,-4.6989,-4.6761,-4.6535,-4.703,-4.7506,0.0,0.0,0.0,0.0,0.0,0.0,0.0,0.0,0.0,0.0,0.0,0.0,0.0,-5.1791,-5.1708,-5.1667,-5.1729,-5.1667,-5.1688,-5.1791,-5.1708,-5.1667,-5.1729,-5.2516,-5.2764,-5.235,-5.324,-5.3509,-5.3116,-5.3157,-5.3157,-5.3095,-5.2681,-5.2474,-5.2412,-5.2412,-5.2185,-5.1833,-5.2247,-5.2412,-5.2412,-5.2412,-5.2164,-5.1853,-5.2267,-5.2412,-5.2474,-4.7512,-4.7052,-4.6811,-4.6811,-4.68,-4.6824,-4.6824,-4.6824,-4.703,-4.7382,-4.7424,-4.761,-4.8065,-4.8189,-4.821,-4.8127,-4.7775,-4.7361,-4.6927,-4.6473,-4.6266,-4.6266,-4.6266,-4.6266,-4.6266,-4.6968,-4.6989,-4.6266,-4.6989,-4.7154,-4.6906,-4.7444,-4.7982,-4.8521,-4.8893,-4.9224,-4.9494,-4.9949,-5.0156,-5.0177,-5.0342,-5.1481,-5.2992,-5.2536,-5.264,-5.2992,-5.2516,-5.2288,-5.2122,-5.1481,-5.0529,-4.9597,0.0,0.0,0.0,-4.7631,-4.7444,-4.7341,-4.7506,-4.761,-4.7693,0.0,0.0,0.0,-4.7196,-4.7237,-4.7444,0.0,-4.821,0.0,0.0,0.0,0.0,0.0,0.0,0.0,0.0,0.0,0.0,0.0,0.0,0.0,-5.1771,-5.1129,-5.0839,-5.1212,-5.0901,-5.1005,-5.1771,-5.1087,-5.086,-5.1232,-5.1419,-5.146,-5.1377,-5.2288,-5.2723,-5.264,-5.3013,-5.2992,-5.2619,-5.2536,-5.2288,-5.1936,-5.1936,-5.1874,-5.1812,-5.1895,-5.1936,-5.1936,-5.1936,-5.1874,-5.1812,-5.1895,-5.1936,-5.1998,-4.6509,-4.6266,-4.6266,-4.6266,-4.674,-4.703,-4.703,-4.7217,-4.7444,-4.7651,-4.7879,-4.8127,-4.8355,-4.8583,-4.8541,-4.8065,-4.7817,-4.7403,-4.674,-4.639,-4.6266,-4.6266,-4.6266,-4.637,-4.6597,-4.7134,-4.7134,-4.6617,-4.7134,-4.7258,-4.7051,-4.7486,-4.792,-4.8396,-4.8624,-4.8852,-4.908,-4.9307,-4.9535,-4.9845,-5.0736,-5.1667,-5.2516,-5.2743,-5.2992,-5.3178,-5.3178,-5.2868,-5.235,-5.1419,-5.0963,0.0,-4.9701,-4.9411,-4.9266,0.0,-4.8376,-4.8334,0.0,0.0,0.0,-4.8376,0.0,0.0,0.0,-4.7175,-4.7134,-4.7589,-4.7527,0.0,0.0,0.0,0.0,0.0,0.0,0.0,0.0,0.0,0.0,0.0,0.0,0.0,-5.1087,-5.0694,-5.0508,-5.0736,-5.0549,-5.0632,-5.1087,-5.0673,-5.0529,-5.0756,-5.0984,-5.1108,-5.1108,-5.1791,-5.2143,-5.2143,-5.2392,-5.2371,-5.2143,-5.2143,-5.2019,-5.1791,-5.1791,-5.1791,-5.1791,-5.1791,-5.1791,-5.1791,-5.1791,-5.1936,-5.2143,-5.2143,-5.2288,-5.2516,-4.6246,-4.6266,-4.6266,-4.6266,-4.6803,-4.7154,-4.7154,-4.7527,-4.7817,-4.7817,-4.821,-4.85,-4.85,-4.8831,-4.8831,-4.8252,-4.7879,-4.7486,-4.703,-4.6514,-4.6266,-4.6266,-4.6266,-4.639,-4.6782,-4.7299,-4.7341,-4.6906,-4.7341,-4.7382,-4.7051,-4.7403,-4.7858,-4.8376,-4.8189,-4.8521,-4.9162,-4.8603,-4.8914,-4.9866,-5.115,-5.1667,-5.175,-5.2599,-5.2971,-5.3095,-5.3447,-5.3054,-5.2185,-5.1067,-5.1129,-5.1419,-4.9928,-5.0094,0.0,0.0,0.0,0.0,0.0,0.0,0.0,0.0,0.0,-4.8603,0.0,0.0,0.0,0.0,0.0,0.0,0.0,0.0,0.0,0.0,0.0,0.0,0.0,0.0,0.0,0.0,0.0,0.0,0.0,-5.0466,-5.0384,-5.0301,-5.0301,-5.0322,-5.0425,-5.0259,-5.0197,-5.028,-5.0653,-5.088,-5.0984,-5.1439,-5.1708,-5.1791,-5.1791,-5.1791,-5.1791,-5.1791,-5.1791,-5.1791,-5.1791,-5.1791,-5.1791,-5.1791,-5.1791,-5.1791,-5.1791,-5.2019,-5.2371,-5.2454,-5.2723,-5.3075,-4.6264,-4.6266,-4.6266,-4.6266,-4.7051,-4.761,-4.761,-4.8003,-4.8293,-4.8293,-4.8707,-4.8997,-4.8997,-4.9038,-4.9349,-5.0052,-4.8624,-4.8169,-4.9287,-4.7465,-4.6266,-4.6266,-4.6266,-4.6182,-4.585,-4.6678,-4.6885,-4.6349,-4.6885,-4.7092,-4.703,-4.7092,-4.7568,-4.8334,-4.7548,-4.8107,-4.9618,-4.8748,-4.8914,-4.9845,-5.0798,-5.1191,-5.1253,-5.1771,-5.2226,-5.2578,-5.2619,-5.2309,-5.1853,0.0,-5.1439,-5.115,0.0,-5.0425,-4.9949,-5.0197,0.0,0.0,0.0,0.0,0.0,0.0,-4.9928,0.0,0.0,0.0,-4.8562,-4.7838,0.0,0.0,0.0,0.0,0.0,0.0,0.0,0.0,0.0,0.0,0.0,0.0,0.0,0.0,0.0,-5.0653,-5.0259,-4.9866,-4.9825,-5.0011,-5.0404,-4.9659,-4.9411,-4.9825,-4.9887,-5.0094,-5.0487,-5.0963,-5.1398,-5.1791,-5.1791,-5.1791,-5.1791,-5.1791,-5.1791,-5.1791,-5.1791,-5.1791,-5.1791,-5.1791,-5.1791,-5.1791,-5.1791,-5.1833,-5.1936,-5.235,-5.2516,-5.2681,-4.6202,-4.614,-4.6037,-4.6225,-4.7092,-4.7693,-4.7693,-4.8314,-4.8769,-4.8769,-4.8955,-4.9162,-4.9431,-4.9473,-4.9618,-5.0011,-4.908,-4.8728,-4.9328,-4.7713,-4.7092,-4.79,-4.7175,-4.6906,-4.7237,-4.761,-4.7465,-4.674,-4.7196,-4.7279,-4.703,-4.703,-4.7382,-4.7941,-4.732,-4.7755,-4.8935,-4.8541,-4.8603,-4.908,-5.0529,-5.0798,-5.0487,-5.2019,-5.3054,-5.3633,-5.3364,-5.3157,-5.2826,0.0,-5.1626,0.0,0.0,0.0,0.0,0.0,0.0,0.0,0.0,0.0,0.0,0.0,0.0,0.0,-4.9307,0.0,-4.8314,0.0,0.0,0.0,0.0,0.0,0.0,0.0,-4.8293,0.0,0.0,0.0,0.0,0.0,0.0,0.0,0.0,0.0,0.0,0.0,-4.9307,-4.9597,-4.9245,-4.9121,-4.9162,-4.9349,-4.9349,-4.9701,-5.0404,-5.0611,-5.1087,-5.1791,-5.1791,-5.1791,-5.1791,-5.1791,-5.1791,-5.1791,-5.1791,-5.1791,-5.1791,-5.1791,-5.1791,-5.1791,-5.1791,-5.1957,-5.2226,-5.2433,-5.2661,-5.295,-4.6016,-4.5912,-4.5871,-4.643,-4.7175,-4.7775,-4.8024,-4.8624,-4.9121,-4.9245,-4.9245,-4.9473,-5.0052,-5.0363,-5.0549,-5.0694,-5.028,-4.9949,0.0,-4.8541,-4.8003,-4.8479,-4.8045,-4.7796,-4.7817,-4.8189,-4.7941,-4.703,-4.7237,-4.7217,-4.703,-4.703,-4.7341,-4.7858,-4.7672,-4.8024,-4.8769,-4.8893,-4.9017,-4.9245,-5.0715,-5.1129,-5.1025,-5.2454,-5.3489,-5.413,-5.3778,-5.3675,-5.3468,-5.2122,-5.204,0.0,-5.1315,0.0,0.0,0.0,0.0,0.0,-5.0653,0.0,0.0,0.0,0.0,0.0,0.0,0.0,0.0,0.0,0.0,0.0,0.0,0.0,0.0,0.0,0.0,-4.8645,0.0,0.0,0.0,0.0,0.0,0.0,0.0,0.0,0.0,-4.8148,-4.9121,-4.9349,-4.8417,-4.8686,-4.8935,-4.9059,-4.9059,-4.9494,-5.0404,-5.0425,-5.088,-5.1791,-5.1791,-5.1791,-5.1791,-5.1791,-5.1791,-5.1791,-5.1791,-5.1791,-5.1791,-5.1791,-5.1791,-5.1791,-5.1791,-5.1998,-5.2329,-5.2578,-5.2888,-5.322,-4.5602,-4.5705,-4.5975,-4.6865,-4.7382,-4.7982,-4.8893,-4.9038,-4.9224,-4.9767,-4.9829,-5.0073,-5.0963,-5.1874,-5.2578,-5.3033,-5.264,-5.2185,-5.175,0.0,-4.8893,0.0,0.0,-4.8645,0.0,-4.7693,-4.7941,-4.703,-4.6514,-4.6535,-4.703,-4.703,-4.7506,-4.8376,-4.881,-4.9266,-4.9742,-5.0177,-5.0611,-5.1067,-5.1584,-5.2557,-5.3633,0.0,-5.2806,-5.322,-5.3199,0.0,0.0,-5.3137,-5.2847,0.0,0.0,0.0,0.0,0.0,0.0,0.0,0.0,0.0,0.0,-5.0653,0.0,0.0,0.0,0.0,-4.9452,0.0,0.0,0.0,0.0,0.0,-4.8997,-4.9017,0.0,0.0,0.0,0.0,0.0,0.0,0.0,0.0,0.0,0.0,0.0,-4.9121,-4.9473,-4.9349,-4.8417,-4.8396,-4.8603,-4.9059,-4.9059,-4.9494,-5.0404,-5.0425,-5.088,-5.1791,-5.1791,-5.1791,-5.1791,-5.1791,-5.1791,-5.1791,-5.1791,-5.1791,-5.1791,-5.1791,-5.1791,-5.1791,-5.1791,-5.1812,-5.1936,-5.2826,-5.3178,-5.3302,-4.5602,-4.5685,-4.5871,-4.6471,-4.7196,-4.8107,-4.9328,-4.9266,-4.968,-5.1357,-5.1294,-5.1791,-5.3613,-5.4089,-5.4461,-5.4917,-5.4275,-5.3778,-5.3633,-5.204,0.0,0.0,0.0,-5.028,0.0,0.0,-4.9597,-4.8376,-4.8231,-4.792,-4.7465,-4.7775,-4.8086,-4.8396,-4.8852,-4.9162,-4.9369,-5.0425,-5.0611,-5.0342,-5.1708,-5.3075,-5.4234,0.0,-5.3675,-5.4048,-5.3737,-5.3633,0.0,-5.293,-5.2826,-5.2888,-5.2578,-5.2392,-5.2226,-5.206,-5.1915,0.0,0.0,0.0,-5.1646,-5.1025,0.0,0.0,0.0,0.0,0.0,0.0,0.0,0.0,0.0,0.0,-4.9514,-4.9514,-4.9746,0.0,0.0,0.0,0.0,0.0,0.0,0.0,0.0,0.0,0.0,-4.7796,-4.8127,-4.8127,-4.7527,-4.8045,-4.8438,-4.8603,-4.8914,-4.9494,-5.0404,-5.0425,-5.088,-5.1791,-5.1791,-5.1791,-5.1791,-5.1791,-5.1791,-5.1791,-5.1791,-5.1791,-5.1791,-5.1791,-5.1791,-5.1791,-5.1791,-5.1791,-5.1833,-5.2164,-5.2454,-5.2764,-4.5892,-4.6057,-4.6244,-4.6452,-4.7465,-4.8479,-4.9369,-4.9804,-5.0694,-5.2495,-5.2764,-5.3509,-5.5455,-5.5952,-5.62,-5.6345,-5.6117,-5.5579,-5.4606,-5.3571,0.0,-5.2019,-5.1895,0.0,0.0,0.0,0.0,0.0,-4.9224,-4.8935,-4.8666,-4.879,-4.8873,-4.8893,-4.968,-4.968,-4.9183,-5.1067,-5.1315,-5.0653,0.0,-5.3758,0.0,0.0,-5.4027,-5.4255,0.0,-5.3737,-5.3509,-5.293,-5.2826,-5.2888,-5.2578,-5.2371,-5.2247,-5.2247,-5.204,-5.1791,-5.1791,-5.1791,0.0,-5.1232,-5.0673,0.0,-4.9452,0.0,0.0,0.0,0.0,0.0,0.0,0.0,0.0,-5.0052,-4.999,-4.9763,0.0,-4.8396,0.0,0.0,0.0,0.0,0.0,0.0,-4.8293,-4.6885,-4.7051,-4.7092,0.0,0.0,-4.8045,-4.8355,-4.8976,-4.9659,-5.0404,-5.0591,-5.1046,-5.1791,-5.1791,-5.1791,-5.1791,-5.1791,-5.1791,-5.1791,-5.1791,-5.1791,-5.1791,-5.1791,-5.1791,-5.1791,-5.1791,-5.1791,-5.1812,-5.1978,-5.235,-5.2723,-4.639,-4.6761,-4.7113,-4.7134,-4.8189,-4.9059,-4.9162,-5.0653,-5.2143,-5.3178,-5.4089,-5.5165,-5.6573,-5.7525,-5.7877,-5.7401,-5.8167,-5.7566,-5.4917,-5.5082,0.0,0.0,-5.2578,-5.2433,-5.0591,0.0,0.0,0.0,-4.9659,-4.9659,-5.0446,-5.0052,-4.9825,-4.9845,-5.1232,-5.0839,-4.9307,-5.2019,-5.2681,-5.206,-5.382,-5.4544,-5.4482,-5.4048,-5.3861,-5.3746,-5.3799,-5.3509,-5.3137,-5.3116,-5.2847,-5.2495,-5.2495,-5.2185,-5.1833,-5.1833,-5.1812,-5.1791,-5.1791,-5.1791,-5.1688,-5.1253,0.0,0.0,0.0,0.0,-5.0963,0.0,0.0,0.0,0.0,0.0,0.0,-5.057,-5.0404,0.0,0.0,0.0,0.0,0.0,0.0,0.0,0.0,-4.9121,-4.8707,-4.639,-4.6204,-4.6204,0.0,0.0,-4.7444,-4.8314,-4.9245,-4.9949,-5.0425,-5.088,-5.1336,-5.1791,-5.1791,-5.1791,-5.1791,-5.1791,-5.1791,-5.1791,-5.1791,-5.1791,-5.1791,-5.1791,-5.1791,-5.1791,-5.1791,-5.1791,-5.1853,-5.2288,-5.2743,-5.3054,-4.6947,-4.7486,-4.8148,-4.8479,-4.8541,-4.9017,-5.0384,-5.0984,-5.2226,-5.4834,-5.5683,-5.6821,-5.8891,-5.9636,-5.9781,-5.9326,-5.9492,0.0,0.0,0.0,0.0,-5.4213,-5.4482,-5.3985,-5.2495,-5.2909,0.0,-5.1957,0.0,-5.1377,-5.0943,-5.117,-5.0901,-5.0301,-5.1688,-5.1481,-5.0197,-5.2309,-5.324,-5.3385,-5.4213,-5.4544,-5.4524,0.0,-5.4151,-5.3758,-5.3075,-5.2764,-5.2619,-5.2267,-5.2309,-5.2495,-5.2495,-5.2412,-5.2309,-5.2309,-5.206,-5.1791,-5.1791,-5.1791,-5.1771,-5.1646,-5.1108,-5.0529,0.0,0.0,0.0,0.0,0.0,0.0,0.0,0.0,0.0,0.0,0.0,0.0,0.0,0.0,0.0,-4.7258,0.0,0.0,0.0,-4.7775,-4.7217,-4.5954,-4.554,-4.5498,0.0,0.0,0.0,-4.7838,-4.8748,-4.9618,-5.0404,-5.088,-5.1336,-5.1791,-5.1791,-5.1791,-5.1791,-5.1791,-5.1791,-5.1791,-5.1791,-5.1791,-5.1791,-5.1791,-5.1791,-5.1791,-5.1791,-5.1791,-5.1812,-5.1936,-5.206,-5.2143,-4.7713,-4.8355,-4.9183,-4.9845,-4.9742,-4.9908,-5.0963,-5.1626,-5.2806,-5.5,-5.62,-5.7422,-5.8933,-5.9864,-6.0361,-6.0299,-6.0113,0.0,-5.8953,0.0,0.0,-5.5848,-5.5393,-5.4648,-5.3489,-5.3323,0.0,-5.2785,0.0,-5.2226,-5.2288,-5.175,-5.1108,-5.0466,-5.1667,-5.1419,-5.0259,-5.2102,-5.3261,-5.3861,-5.3923,-5.4068,0.0,-5.3799,-5.3489,-5.3157,-5.2454,-5.2329,-5.2433,-5.1957,-5.1978,-5.2185,-5.2185,-5.2185,-5.2226,-5.2433,-5.2164,-5.1853,-5.204,-5.1957,-5.1791,-5.1791,-5.1419,-5.1025,-5.1025,-5.1025,-5.1025,0.0,0.0,0.0,0.0,0.0,0.0,0.0,0.0,0.0,0.0,0.0,0.0,0.0,-4.7506,0.0,0.0,-4.6927,-4.5975,-4.4857,-4.4919,-4.5105,0.0,0.0,0.0,-4.7672,-4.8769,-4.9701,-5.0404,-5.1087,-5.1543,-5.1791,-5.1791,-5.1791,-5.1791,-5.1791,-5.1791,-5.1791,-5.1791,-5.1791,-5.1791,-5.1791,-5.1791,-5.1791,-5.1791,-5.1791,-5.1791,-5.1791,-5.1791,-5.1791,-4.8707,-4.939,-5.028,-5.1067,-5.1294,-5.1419,-5.1543,-5.264,-5.3799,-5.4772,0.0,-5.7691,-5.8229,-5.9409,-6.0299,-6.0651,0.0,-5.9947,-5.9429,-5.8891,-5.8043,-5.6801,-5.5807,-5.4834,-5.3861,-5.3075,0.0,0.0,0.0,-5.2495,-5.3447,-5.1853,-5.086,-5.0466,-5.1315,-5.1046,-5.0052,-5.1833,-5.293,-5.3468,-5.3323,-5.3468,-5.3675,-5.295,-5.264,-5.2516,-5.206,-5.2102,-5.235,-5.1936,-5.1791,-5.1791,-5.1791,-5.1791,-5.1874,-5.2288,-5.2122,-5.1895,-5.2288,-5.2102,-5.1812,-5.1874,-5.1853,-5.1812,-5.1874,-5.1853,-5.1791,-5.1791,-5.1791,-5.1667,0.0,0.0,0.0,0.0,0.0,0.0,0.0,0.0,0.0,0.0,0.0,0.0,0.0,0.0,-4.5374,-4.3987,-4.4629,0.0,0.0,0.0,0.0,-4.7589,-4.8873,-4.9825,-5.0322,0.0,-5.1729,-5.1791,-5.1791,-5.1791,-5.1791,-5.1791,-5.1791,-5.1791,-5.1791,-5.1791,-5.1791,-5.1791,-5.1791,-5.1791,-5.1791,-5.1791,-5.1791,-5.1791,-5.1791,-5.1791,-5.0011,-5.0818,-5.1501,-5.1646,-5.2309,-5.3075,-5.382,-5.4441,-5.5289,-5.6594,-5.8022,-5.9264,-6.0113,-6.0754,-6.0982,-6.0713,-6.0941,0.0,0.0,0.0,0.0,-5.7711,-5.6449,-5.5145,-5.3882,-5.3696,-5.3282,0.0,0.0,-5.2474,-5.1584,-5.1253,-5.086,-5.0446,-5.0984,-5.1108,-5.0963,-5.2433,0.0,-5.1708,-5.3157,-5.3551,-5.3323,-5.353,-5.3385,-5.2992,-5.2536,-5.2185,-5.1915,-5.1833,-5.1791,-5.1791,-5.1791,-5.1791,-5.1812,-5.1895,-5.1853,-5.1812,-5.1895,-5.1853,-5.1895,-5.2267,-5.2081,-5.1895,-5.2288,-5.2081,-5.1791,-5.1791,-5.1791,-5.1667,-5.1191,0.0,0.0,0.0,0.0,0.0,0.0,0.0,0.0,0.0,0.0,-4.7382,0.0,0.0,0.0,0.0,0.0,0.0,0.0,0.0,0.0,0.0,-4.8107,0.0,0.0,0.0,-5.1419,-5.1791,-5.1791,-5.1791,-5.1791,-5.1791,-5.1791,-5.1791,-5.1791,-5.1791,-5.1791,-5.1791,-5.1791,-5.1791,-5.1791,-5.1791,-5.1791,-5.1791,-5.1791,-5.1791,-5.1357,-5.1853,-5.2392,-5.3095,-5.4059,0.0,0.0,-5.7003,-5.7619,-5.6983,-5.7877,-5.8746,-5.9202,-6.0092,-6.0651,-6.0671,-6.0651,-6.0568,-6.0361,-5.9471,-5.8664,-5.7939,-5.6842,0.0,-5.3882,-5.3633,-5.3282,-5.2847,0.0,0.0,-5.1812,-5.086,-5.0032,-4.9369,-4.9597,-5.0094,0.0,0.0,0.0,-5.1212,-5.2329,-5.2806,-5.2826,-5.2806,-5.2661,-5.2433,-5.2226,-5.1998,-5.1791,-5.1791,-5.1791,-5.1791,-5.1791,-5.1791,-5.1791,-5.1791,-5.1791,-5.1791,-5.1791,-5.1791,-5.1853,-5.2081,-5.1957,-5.1853,-5.2081,-5.1957,-5.1791,-5.1791,-5.1791,-5.1667,-5.1191,-5.0756,0.0,0.0,0.0,0.0,0.0,0.0,0.0,0.0,0.0,0.0,0.0,0.0,0.0,0.0,0.0,0.0,0.0,0.0,0.0,0.0,0.0,0.0,0.0,0.0,0.0,-5.1791,-5.1791,-5.1791,-5.1791,-5.1791,-5.1791,-5.1791,-5.1791,-5.1791,-5.1791,-5.1791,-5.1791,-5.1791,-5.1791,-5.1791,-5.1791,-5.1791,-5.1791,-5.1791,-5.2819,-5.3337,-5.391,-5.4979,-5.6093,-5.6985,-5.7483,-5.909,-5.9444,-5.7477,-5.7856,-5.8394,-5.8498,-5.9471,-6.0278,-6.0651,-6.034,-6.0257,-6.0527,-5.9761,-5.8933,-5.8105,-5.7111,-5.5807,-5.4172,-5.3509,-5.3033,0.0,0.0,0.0,0.0,-5.0197,-4.9059,-4.8107,0.0,0.0,0.0,0.0,-5.1005,-5.088,-5.1646,-5.2102,-5.2309,-5.206,-5.1895,-5.1791,-5.1791,-5.1791,-5.1791,-5.1791,-5.1791,-5.1791,-5.1791,-5.1791,-5.1791,-5.1791,-5.1791,-5.1791,-5.1791,-5.1791,-5.1833,-5.1915,-5.1874,-5.1833,-5.1936,-5.1874,-5.1791,-5.1791,-5.1791,-5.1667,-5.1191,-5.1108,0.0,0.0,0.0,0.0,0.0,0.0,0.0,0.0,0.0,0.0,0.0,0.0,0.0,0.0,0.0,0.0,0.0,0.0,0.0,0.0,0.0,-4.8769,-4.9597,0.0,-5.1191,-5.1646,-5.175,-5.1791,-5.1791,-5.1791,-5.1791,-5.1791,-5.1791,-5.1791,-5.1791,-5.1791,-5.1791,-5.1791,-5.1791,-5.1791,-5.1791,-5.1791,-5.1791,-5.1791,-5.4513,-5.5877,0.0,0.0,0.0,-5.8673,-5.8655,-5.9512,-5.9909,-5.9098,-5.9492,-5.9968,-6.0382,-6.0547,-6.063,-6.0671,-6.0651,-6.0464,-6.0071,-5.9574,-5.9078,-5.856,-5.7277,-5.6097,-5.5082,-5.382,-5.2557,0.0,0.0,0.0,0.0,0.0,0.0,0.0,0.0,0.0,0.0,-5.0197,-5.0632,-5.0032,-5.175,-5.2205,-5.1915,-5.2288,-5.2164,-5.1791,-5.1791,-5.1791,-5.1791,-5.1791,-5.1791,-5.1791,-5.1791,-5.1791,-5.1791,-5.1791,-5.1791,-5.1791,-5.1791,-5.1791,-5.1895,-5.2329,-5.2102,-5.1915,-5.2329,-5.2102,-5.1791,-5.1791,-5.1791,-5.1667,-5.1191,-5.1108,-5.0943,0.0,0.0,0.0,0.0,0.0,0.0,0.0,0.0,0.0,0.0,-4.7154,0.0,0.0,0.0,0.0,0.0,0.0,0.0,-4.7072,0.0,-4.8624,-4.9121,-5.0032,-5.0715,-5.117,-5.1605,-5.1791,-5.1791,-5.1791,-5.1791,-5.1791,-5.1791,-5.1791,-5.1791,-5.1791,-5.1791,-5.1791,-5.1791,-5.1791,-5.1791,-5.1791,-5.1791,-5.1791,0.0,0.0,0.0,0.0,0.0,0.0,0.0,-6.0856,-6.0856,-5.9955,-5.9927,-6.005,-6.0257,-6.0257,-6.0154,-5.9885,-5.9843,-5.9657,-5.9202,-5.8726,-5.827,-5.7794,-5.6738,-5.56,-5.4399,-5.3592,-5.2785,0.0,0.0,0.0,0.0,0.0,0.0,0.0,0.0,-4.8107,-4.8189,-4.968,-5.0239,-5.0259,-5.1564,-5.1957,-5.1812,-5.1998,-5.1957,-5.1833,-5.2122,-5.2226,-5.2267,-5.2536,-5.2267,-5.1791,-5.1791,-5.1791,-5.1791,-5.1791,-5.1791,-5.1791,-5.1791,-5.1791,-5.1853,-5.204,-5.1936,-5.1853,-5.204,-5.1936,-5.1791,-5.1791,-5.1791,-5.175,-5.1564,-5.1522,-5.1377,0.0,0.0,0.0,0.0,0.0,0.0,0.0,0.0,0.0,0.0,0.0,0.0,0.0,0.0,0.0,0.0,0.0,0.0,-4.703,0.0,-4.8459,-4.9473,-5.0094,-5.0798,-5.1522,-5.1708,-5.1791,-5.1791,-5.1791,-5.1791,-5.1791,-5.1791,-5.1791,-5.1791,-5.1791,-5.1791,-5.1791,-5.1791,-5.1791,-5.1791,-5.1791,-5.1791,-5.1791,-5.8423,0.0,-5.9128,0.0,-6.1211,-6.1464,-6.1501,-6.1557,-6.1227,-6.0362,-5.987,-5.9595,-5.9554,-5.9574,-5.945,-5.9119,-5.9098,-5.8953,-5.8622,-5.8167,-5.7711,-5.7256,-5.6366,0.0,-5.4068,-5.3489,-5.2826,-5.2081,-5.1895,0.0,0.0,0.0,0.0,0.0,-4.7113,-4.7651,-4.8438,-4.9369,-5.0094,-5.0694,-5.1481,-5.1791,-5.1791,-5.1791,-5.1791,-5.1853,-5.2164,-5.2371,-5.2536,-5.2868,-5.264,-5.2185,-5.204,-5.1915,-5.1791,-5.1791,-5.1791,-5.1791,-5.1791,-5.1791,-5.1791,-5.1791,-5.1791,-5.1791,-5.1791,-5.1791,-5.1791,-5.1791,-5.1791,-5.1791,-5.1791,-5.1791,-5.1688,-5.1377,0.0,0.0,0.0,0.0,0.0,0.0,-4.8231,-4.7631,-4.7092,0.0,0.0,0.0,0.0,0.0,0.0,0.0,0.0,0.0,0.0,0.0,0.0,-5.0052,-5.0736,-5.1398,-5.1667,-5.1791,-5.1791,-5.1791,-5.1791,-5.1791,-5.1791,-5.1791,-5.1791,-5.1791,-5.1791,-5.1791,-5.1791,-5.1791,-5.1791,-5.1791,-5.1791,-5.1791,-5.9201,-6.0226,-6.1304,-6.1901,-6.1993,-6.178,-6.1166,-6.1138,-6.0934,-6.031,-5.9318,-5.8689,-5.8621,-5.8622,-5.8622,-5.8622,-5.8622,-5.8622,-5.8601,-5.8167,-5.7711,0.0,0.0,-5.5455,-5.4544,-5.3633,-5.2516,-5.1129,0.0,0.0,-4.7713,0.0,-4.6721,-4.6308,-4.7279,-4.7941,-4.8438,-4.9369,-5.028,-5.115,-5.1605,-5.1791,-5.1791,-5.1791,-5.1791,-5.1791,-5.1812,-5.2102,-5.2495,-5.2495,-5.2806,-5.3095,-5.264,-5.2164,-5.1791,-5.1791,-5.1791,-5.1791,-5.1791,-5.1791,-5.1791,-5.1791,-5.1791,-5.1791,-5.1791,-5.1791,-5.1791,-5.1791,-5.1791,-5.1791,-5.1791,-5.1791,-5.1791,-5.1791,0.0,0.0,0.0,0.0,0.0,0.0,-4.9721,-4.9017,-4.7217,0.0,0.0,0.0,0.0,0.0,0.0,0.0,0.0,-4.7072,-4.79,0.0,-4.8396,-4.9742,-5.0425,-5.0446,-5.1357,-5.1791,-5.1791,-5.1791,-5.1791,-5.1791,-5.1791,-5.1791,-5.1791,-5.1791,-5.1791,-5.1791,-5.1791,-5.1791,-5.1791,-5.1791,-5.1791,-5.1791,-6.0524,-6.0937,-6.1396,-6.1901,-6.1993,-6.1946,-6.1732,-6.1096,-6.0574,-6.0327,-5.8911,-5.7779,-5.7782,-5.7697,-5.7546,0.0,-5.7215,-5.709,0.0,-5.6614,-5.6469,-5.6304,-5.5724,-5.4979,-5.4089,-5.3778,-5.2971,-5.1584,0.0,0.0,0.0,-4.9556,-4.8935,-4.8231,-4.8831,-4.9349,-4.9804,-5.0425,-5.1025,-5.1584,-5.175,-5.1791,-5.1791,-5.1791,-5.1791,-5.1874,-5.2516,-5.2847,-5.3054,-5.3675,-5.3778,-5.3613,-5.3468,-5.2888,-5.2267,-5.2267,-5.204,-5.1791,-5.1791,-5.1791,-5.1791,-5.1791,-5.1791,-5.1791,-5.1791,-5.1791,-5.1791,-5.1791,-5.1791,-5.1791,-5.1791,-5.1791,-5.1791,-5.1791,-5.1791,0.0,0.0,0.0,0.0,0.0,-4.7796,-4.7196,0.0,-4.6285,0.0,0.0,0.0,0.0,0.0,0.0,0.0,0.0,-4.8065,0.0,-4.9307,-5.0363,-5.0901,-5.0901,-5.1501,-5.1791,-5.1791,-5.1791,-5.1791,-5.1791,-5.1791,-5.1791,-5.1791,-5.1791,-5.1791,-5.1791,-5.1791,-5.1791,-5.1791,-5.1791,-5.1791,-5.1791,-6.1341,-6.1163,-6.1051,-6.135,-6.1419,-6.1419,-6.1419,-6.0682,-6.0107,-6.0107,-5.8534,-5.7301,-5.6924,-5.6485,0.0,-5.6112,-5.589,-5.5745,-5.5621,-5.5289,-5.5269,-5.56,-5.4855,-5.4172,-5.3613,0.0,0.0,-5.1791,-5.204,-5.1791,-5.1108,-5.0466,-4.9866,-4.9349,-4.9804,-5.0259,-5.0694,-5.0984,-5.1377,-5.1791,-5.1791,-5.1791,-5.1791,-5.1791,-5.1915,-5.2143,-5.2723,-5.3137,-5.3509,-5.4089,-5.4192,-5.411,-5.411,-5.3592,-5.2971,-5.2806,-5.2433,-5.206,-5.206,-5.1936,-5.1791,-5.1791,-5.1791,-5.1791,-5.1791,-5.1791,-5.1791,-5.1791,-5.1791,-5.1791,-5.1791,-5.1791,-5.1791,-5.1791,-5.1791,-5.1481,-5.0549,0.0,0.0,0.0,0.0,0.0,0.0,-4.6761,-4.6947,0.0,0.0,0.0,0.0,0.0,0.0,-4.7424,-4.821,0.0,-4.9494,-5.057,-5.1108,-5.1108,-5.1584,-5.1791,-5.1791,-5.1791,-5.1791,-5.1791,-5.1791,-5.1791,-5.1791,-5.1791,-5.1791,-5.1791,-5.1791,-5.1791,-5.1791,-5.1791,-5.1791,-5.1791,-6.1787,-6.1165,-6.0636,0.0,-6.0432,0.0,-6.0409,-5.9995,-5.9674,-5.972,-5.8413,-5.7222,-5.6432,-5.5409,-5.4909,-5.5171,0.0,0.0,0.0,-5.4255,-5.4172,-5.5,-5.3861,-5.3178,-5.3137,-5.3199,-5.2826,-5.1998,-5.1025,-5.0818,-5.1274,-5.0342,-4.9928,-4.997,-5.0342,-5.0756,-5.117,-5.117,-5.1398,-5.1791,-5.1791,-5.1791,-5.1791,-5.1791,-5.2081,-5.2495,-5.2536,-5.3095,-5.3746,-5.3882,-5.4172,-5.4544,-5.4544,-5.4234,-5.3799,-5.3364,-5.2909,-5.2536,-5.2536,-5.2226,-5.1895,-5.1853,-5.1833,-5.1791,-5.1791,-5.1791,-5.1791,-5.1791,-5.1791,-5.1791,-5.1791,-5.1791,-5.1791,-5.1791,-5.175,-5.1377,-5.0446,0.0,0.0,0.0,0.0,0.0,0.0,-4.8086,-4.7838,0.0,0.0,0.0,0.0,0.0,-4.8086,-4.7154,-4.8459,-4.9162,-4.9162,-5.0487,-5.117,-5.117,-5.1584,-5.1791,-5.1791,-5.1791,-5.1791,-5.1791,-5.1791,-5.1791,-5.1791,-5.1791,-5.1791,-5.1791,-5.1791,-5.1791,-5.1791,-5.1791,-5.1791,-5.1791,0.0,0.0,-6.1784,-6.0726,-6.0156,-5.9903,-5.9903,-5.949,-5.9306,-5.9674,-5.8707,-5.8118,-5.8316,-5.7112,-5.6013,-5.5332,-5.4226,-5.3551,-5.3654,-5.3468,-5.3427,-5.3654,-5.3344,-5.3013,-5.2661,-5.3344,-5.3758,-5.3882,-5.2619,-5.2412,-5.3157,-5.1915,-5.1501,-5.1833,-5.1584,-5.1543,-5.1646,-5.1646,-5.1708,-5.1791,-5.1791,-5.1791,-5.1791,-5.1791,-5.2081,-5.2536,-5.2888,-5.3385,-5.3808,-5.4255,-5.4441,-5.4544,-5.4544,-5.4461,-5.4275,-5.382,-5.3364,-5.3013,-5.3013,-5.293,-5.2764,-5.2412,-5.206,-5.1791,-5.1791,-5.1791,-5.1791,-5.1791,-5.1791,-5.1791,-5.1791,-5.1791,-5.1791,-5.1791,-5.1212,-5.0425,-4.9514,-4.8583,0.0,0.0,-4.761,-4.7817,-4.8169,-4.7982,-4.8148,0.0,0.0,0.0,0.0,-4.9204,-4.9349,-4.8107,-4.939,-5.0094,-5.0094,-5.1129,-5.1646,-5.1646,-5.175,-5.1791,-5.1791,-5.1791,-5.1791,-5.1791,-5.1791,-5.1791,-5.1791,-5.1791,-5.1791,-5.1791,-5.1791,-5.1791,-5.1791,-5.1791,-5.1791,-5.1791,-6.2237,-6.193,-6.141,-6.0058,-5.9559,-5.9375,-5.9375,-5.8962,-5.8801,-5.9306,-5.8724,-5.821,-5.8344,-5.7621,-5.6739,-5.5733,-5.4599,-5.3725,-5.3468,-5.3302,-5.3364,-5.3778,-5.3406,-5.3157,-5.3116,-5.3592,-5.4068,-5.4544,-5.3364,-5.3157,-5.382,-5.2661,-5.2247,-5.2474,-5.1998,-5.1791,-5.1791,-5.1791,-5.1791,-5.1791,-5.1791,-5.1791,-5.1791,-5.1791,-5.2226,-5.2847,-5.3095,-5.3613,-5.4192,-5.4461,-5.4544,-5.4544,-5.4544,-5.4544,-5.4482,-5.4234,-5.384,-5.3489,-5.3489,-5.3344,-5.3116,-5.2868,-5.2454,-5.2122,-5.2122,-5.1957,-5.1791,-5.1791,-5.1791,-5.1791,-5.1791,-5.1791,-5.1729,-5.1522,-5.088,-5.0032,-4.8914,-4.8127,0.0,-4.7361,-4.7548,-4.7941,-4.8624,-4.8666,-4.8769,-4.91,-4.9059,0.0,-4.8396,-4.968,-4.9804,-4.8417,-4.9908,-5.0736,-5.0736,-5.1439,-5.1791,-5.1791,-5.1791,-5.1791,-5.1791,-5.1791,-5.1791,-5.1791,-5.1791,-5.1791,-5.1791,-5.1791,-5.1791,-5.1791,-5.1791,-5.1791,-5.1791,-5.1791,-5.1791,-5.1791,-6.2844,-6.1838,-6.0845,-5.9492,-5.9093,-5.8893,-5.8985,-5.8549,-5.8411,-5.9031,-5.871,-5.8353,-5.8053,-5.8008,-5.7648,-5.6654,-5.5743,-5.484,-5.3997,-5.3478,-5.353,-5.4296,-5.3592,-5.3364,-5.3737,-5.382,-5.4068,-5.4544,-5.3696,-5.3509,-5.3923,-5.3013,-5.264,-5.2681,-5.2143,-5.1915,-5.1895,-5.1833,-5.1791,-5.1791,-5.1791,-5.1791,-5.1791,-5.1791,-5.2371,-5.3178,-5.3178,-5.3758,-5.4544,-5.4544,-5.4544,-5.4544,-5.4544,-5.4544,-5.4544,-5.4544,-5.4255,-5.3944,-5.3944,-5.3633,-5.3282,-5.3282,-5.293,-5.2599,-5.2599,-5.2288,-5.1998,-5.1998,-5.1957,-5.1915,-5.1915,-5.1853,-5.1667,-5.1274,-5.0653,-4.9804,-4.8645,0.0,-4.7713,-4.7775,-4.7962,-4.8438,-4.9287,-4.9659,-4.9597,-4.8935,-4.9431,-4.9452,-4.8728,-4.9845,-4.9949,-4.8728,-5.0322,-5.1212,-5.1212,-5.1605,-5.1791,-5.1791,-5.1791,-5.1791,-5.1791,-5.1791,-5.1791,-5.1791,-5.1791,-5.1791,-5.1791,-5.1791,-5.1791,-5.1791,-5.1791,-5.1791,-5.1791,-5.1791,-5.1791,-5.1791,-6.4203,-6.3275,-6.2287,-6.0908,-5.936,-5.848,-5.8916,-5.8549,-5.8526,-5.9467,-5.9536,-5.9584,-5.9998,-6.0044,-5.9681,-5.8655,-5.838,-5.7222,-5.467,-5.3662,-5.324,-5.3385,-5.3261,-5.322,-5.3282,-5.3654,-5.4068,-5.4544,-5.4006,-5.3985,-5.442,-5.3509,-5.3282,-5.3592,-5.2764,-5.2392,-5.2371,-5.1957,-5.1791,-5.1791,-5.1791,-5.1791,-5.1791,-5.1791,-5.2371,-5.3178,-5.3178,-5.3758,-5.4544,-5.4544,-5.4544,-5.4544,-5.4544,-5.4544,-5.4544,-5.4544,-5.4482,-5.442,-5.442,-5.4089,-5.3737,-5.3737,-5.3406,-5.3075,-5.3075,-5.3013,-5.2971,-5.2971,-5.2661,-5.2392,-5.2392,-5.206,-5.1771,-5.1708,-5.0342,-4.9204,-4.8997,0.0,-4.7838,-4.8231,-4.9287,-5.0197,-5.0736,-5.0508,-5.0591,-5.1212,-5.0322,-4.9845,-5.0094,-5.0673,-5.0736,-5.0115,-5.1129,-5.1688,-5.1688,-5.1771,-5.1791,-5.1791,-5.1791,-5.1791,-5.1791,-5.1791,-5.1791,-5.1791,-5.1791,-5.1791,-5.1791,-5.1791,-5.1791,-5.1791,-5.1791,-5.1791,-5.1791,-5.1791,-5.1791,-5.1791,-6.4047,-6.3489,-6.2754,-6.1413,-6.0784,-6.022,-5.9726,-5.9709,-5.9751,-5.9717,-5.972,-5.9903,-6.0409,-6.0477,-6.0273,-5.9817,-5.9338,-5.8218,-5.6305,-5.5286,-5.4466,-5.3903,-5.3903,-5.3903,-5.3903,-5.411,-5.4192,-5.4172,-5.4192,-5.4192,-5.4151,-5.3737,-5.353,-5.3468,-5.2785,-5.235,-5.2102,-5.1895,-5.1791,-5.1791,-5.1791,-5.1791,-5.1791,-5.1791,-5.2371,-5.3178,-5.3178,-5.3758,-5.4544,-5.4544,-5.4544,-5.4544,-5.4544,-5.4544,-5.4544,-5.4544,-5.4544,-5.4544,-5.4544,-5.4379,-5.4213,-5.4213,-5.3882,-5.3613,-5.3861,-5.353,-5.324,-5.3489,-5.3178,-5.2868,-5.2868,-5.2495,-5.2081,-5.1833,-5.0259,0.0,0.0,-4.8272,-4.8045,-4.8997,-4.9887,-5.0694,-5.1419,-5.1294,-5.1232,-5.1419,-5.0839,-5.057,-5.0777,-5.1005,-5.1129,-5.117,-5.1584,-5.1791,-5.1791,-5.1791,-5.1791,-5.1791,-5.1791,-5.1791,-5.1791,-5.1791,-5.1791,-5.1791,-5.1791,-5.1791,-5.1791,-5.1791,-5.1791,-5.1791,-5.1791,-5.1791,-5.1791,-5.1791,-5.1791,-5.1791,-6.4042,-6.364,-6.3098,-6.2266,-6.2223,-6.1981,-6.1229,-6.1442,-6.1399,-6.0528,-6.0419,-6.0378,-6.0499,-6.0477,-6.0477,-6.0477,-5.9817,-5.8787,-5.7563,-5.6746,-5.5829,-5.4524,-5.4544,-5.4544,-5.4544,-5.4544,-5.4317,-5.384,-5.4317,-5.4296,-5.384,-5.387,-5.382,-5.3468,-5.3013,-5.2557,-5.2122,-5.1998,-5.1895,-5.1791,-5.1791,-5.1791,-5.1791,-5.1791,-5.2371,-5.3178,-5.3178,-5.3758,-5.4544,-5.4544,-5.4544,-5.4544,-5.4544,-5.4544,-5.4544,-5.4544,-5.4544,-5.4544,-5.4544,-5.4544,-5.4544,-5.4544,-5.4275,-5.4089,-5.4461,-5.3985,-5.3592,-5.3944,-5.3654,-5.3344,-5.3344,-5.2971,-5.2495,-5.204,0.0,0.0,0.0,-4.9017,-4.9038,-5.0115,-5.0715,-5.1336,-5.206,-5.2122,-5.1978,-5.1626,-5.1584,-5.1584,-5.1584,-5.1584,-5.175,-5.2102,-5.2019,-5.1957,-5.1957,-5.206,-5.206,-5.1957,-5.1957,-5.1915,-5.1791,-5.1791,-5.1791,-5.1791,-5.1791,-5.1791,-5.1791,-5.1791,-5.1791,-5.1791,-5.1791,-5.1791,-5.1791,-5.1791,-5.1791,-5.1791,-6.5292,-6.4229,-6.3549,-6.4026,-6.3136,-6.2563,-6.3485,-6.3682,-6.3384,-6.251,-6.2428,-6.1916,-6.0636,-6.0477,-6.0477,-6.0477,-6.0454,-5.9521,-5.7678,-5.7377,-5.6559,-5.4619,-5.4544,-5.4544,-5.4544,-5.4544,-5.4317,-5.384,-5.4317,-5.4296,-5.3861,-5.4275,-5.4461,-5.442,-5.3944,-5.3509,-5.3054,-5.2619,-5.2185,-5.1791,-5.1791,-5.1791,-5.1791,-5.1791,-5.2371,-5.3178,-5.3178,-5.3758,-5.4544,-5.4544,-5.4544,-5.4544,-5.4544,-5.4544,-5.4544,-5.4544,-5.4544,-5.4544,-5.4544,-5.4544,-5.4544,-5.4544,-5.4503,-5.4503,-5.4524,-5.4482,-5.4441,-5.4482,-5.411,-5.3799,-5.3799,-5.3427,-5.2971,-5.2516,0.0,0.0,-5.1025,-5.1274,-5.1543,-5.1646,-5.2433,-5.3013,-5.3075,-5.3075,-5.3075,-5.3033,-5.3033,-5.3033,-5.3033,-5.3033,-5.3054,-5.3075,-5.2661,-5.2433,-5.2433,-5.2868,-5.2868,-5.2433,-5.2433,-5.2226,-5.1791,-5.1791,-5.1791,-5.1791,-5.1791,-5.1791,-5.1791,-5.1791,-5.1791,-5.1791,-5.1791,-5.1791,-5.1791,-5.1791,-5.1791,-5.1791,-6.5371,-6.4974,-6.481,-6.5405,-6.5385,-6.5295,-6.5107,-6.5449,-6.5234,-6.4041,-6.389,-6.3362,-6.1963,-6.1784,-6.1425,-6.0545,-6.0477,-5.9909,-5.851,-5.7863,-5.6559,-5.4639,-5.4544,-5.4544,-5.4544,-5.4544,-5.4317,-5.384,-5.4317,-5.4296,-5.3767,-5.4317,-5.4234,-5.3696,-5.3509,-5.3013,-5.2309,-5.2143,-5.1957,-5.1791,-5.1791,-5.1791,-5.1791,-5.1791,-5.2371,-5.3178,-5.3178,-5.3758,-5.4544,-5.4544,-5.4544,-5.4544,-5.4544,-5.4544,-5.4544,-5.4544,-5.4544,-5.4544,-5.4544,-5.4544,-5.4544,-5.4544,-5.4544,-5.4606,-5.4875,-5.4731,-5.4606,-5.4875,-5.4586,-5.4275,-5.4275,-5.3903,-5.353,-5.3364,0.0,-5.1833,-5.1957,-5.1874,-5.1915,-5.2205,-5.2785,-5.3178,-5.3178,-5.3178,-5.3178,-5.3178,-5.3178,-5.3178,-5.3178,-5.3178,-5.3178,-5.3178,-5.3282,-5.3199,-5.293,-5.3095,-5.3095,-5.2909,-5.264,-5.2392,-5.2226,-5.1936,-5.1791,-5.1791,-5.1791,-5.1791,-5.1791,-5.1791,-5.1791,-5.1791,-5.1791,-5.1791,-5.1791,-5.1791,-5.1791,-5.1791,-6.5371,-6.5371,-6.5632,-6.639,-6.6861,-6.703,-6.6843,-6.7136,-6.6967,-6.557,-6.5397,-6.4851,-6.3426,-6.3274,-6.2653,-6.1245,-6.1178,-6.0522,-5.9063,-5.7771,-5.6277,-5.4524,-5.4544,-5.4544,-5.4544,-5.4544,-5.4317,-5.384,-5.4317,-5.4234,-5.3654,-5.4255,-5.4048,-5.3199,-5.3323,-5.2888,-5.2019,-5.2019,-5.1936,-5.1791,-5.1791,-5.1791,-5.1791,-5.1791,-5.2371,-5.3178,-5.3178,-5.3758,-5.4544,-5.4544,-5.4544,-5.4544,-5.4544,-5.4544,-5.4544,-5.4544,-5.4544,-5.4544,-5.4544,-5.4544,-5.4544,-5.4544,-5.4544,-5.4606,-5.4917,-5.4751,-5.4627,-5.4917,-5.4751,-5.4544,-5.4544,-5.4275,-5.4006,-5.3767,-5.3178,-5.2723,-5.2888,-5.2764,-5.2785,-5.3095,-5.3406,-5.3613,-5.3613,-5.3613,-5.3613,-5.3613,-5.3613,-5.3613,-5.3613,-5.3613,-5.3613,-5.3613,-5.3903,-5.3923,-5.3613,-5.3613,-5.353,-5.3385,-5.3075,-5.2847,-5.2702,-5.2226,-5.2019,-5.1998,-5.1853,-5.1791,-5.1791,-5.1791,-5.1791,-5.1791,-5.1791,-5.1791,-5.1791,-5.1791,-5.1791,-5.1791,-6.5397,-6.5397,-6.5737,-6.6887,-6.7096,-6.7488,-6.8664,-6.8764,-6.8345,-6.6967,-6.6797,-6.6258,-6.4827,-6.4677,-6.4178,-6.2742,-6.2653,-6.1582,-5.9154,-5.7141,-5.5567,-5.4544,-5.4544,-5.4544,-5.4544,-5.4544,-5.4317,-5.3861,-5.4317,-5.4068,-5.322,-5.411,-5.4048,-5.3199,-5.3633,-5.3344,-5.2495,-5.2495,-5.2226,-5.1812,-5.1812,-5.1812,-5.1812,-5.1812,-5.2392,-5.3178,-5.3178,-5.3758,-5.4544,-5.4544,-5.4544,-5.4544,-5.4544,-5.4544,-5.4544,-5.4544,-5.4544,-5.4544,-5.4544,-5.4544,-5.4544,-5.4544,-5.4544,-5.4544,-5.4544,-5.4544,-5.4544,-5.4544,-5.4544,-5.4544,-5.4544,-5.4544,-5.4379,-5.3923,-5.4234,-5.4379,-5.3923,-5.4255,-5.4544,-5.4544,-5.4544,-5.4544,-5.4544,-5.4544,-5.4544,-5.4544,-5.4544,-5.4544,-5.4544,-5.4544,-5.4544,-5.4544,-5.4544,-5.4544,-5.4524,-5.4544,-5.4296,-5.3861,-5.384,-5.3613,-5.3178,-5.2702,-5.2495,-5.2474,-5.1998,-5.1791,-5.1791,-5.1791,-5.1791,-5.1791,-5.1791,-5.1791,-5.1791,-5.1791,-5.1791,-5.1791,-6.6024,-6.6024,-6.6259,-6.6991,-6.7462,-6.7985,-6.8743,-6.8764,-6.868,-6.8235,-6.8151,-6.773,-6.6344,-6.6172,-6.5656,-6.4216,-6.4041,-6.3049,-6.0634,-5.8282,-5.6559,-5.5567,-5.4904,-5.4544,-5.4544,-5.4544,-5.4461,-5.4337,-5.4461,-5.4399,-5.413,-5.4399,-5.4048,-5.3199,-5.3323,-5.3054,-5.2495,-5.2495,-5.2599,-5.2764,-5.2764,-5.2578,-5.2329,-5.264,-5.295,-5.322,-5.353,-5.4027,-5.4544,-5.4544,-5.4544,-5.4544,-5.4544,-5.4544,-5.4544,-5.4544,-5.4544,-5.4544,-5.4544,-5.4544,-5.4544,-5.4544,-5.4544,-5.4544,-5.4544,-5.4544,-5.4544,-5.4544,-5.4544,-5.4544,-5.4544,-5.4544,-5.4482,-5.4358,-5.4441,-5.4482,-5.4358,-5.4441,-5.4544,-5.4544,-5.4544,-5.4544,-5.4544,-5.4544,-5.4544,-5.4544,-5.4544,-5.4544,-5.4544,-5.4544,-5.4544,-5.4544,-5.4544,-5.4379,-5.4048,-5.4379,-5.4461,-5.4337,-5.4006,-5.3778,-5.3633,-5.2847,-5.2495,-5.2474,-5.1998,-5.1791,-5.1791,-5.1791,-5.1791,-5.1791,-5.1791,-5.1791,-5.1791,-5.1791,-5.1791,-5.1791,-6.6286,-6.6286,-6.6469,-6.7017,-6.7592,-6.8194,-6.8769,-6.8764,-6.8764,-6.8764,-6.8764,-6.8513,-6.7646,-6.7561,-6.7027,-6.5631,-6.5025,-6.3954,-6.2048,-6.0521,-5.8903,-5.6911,-5.6085,-5.524,-5.4524,-5.4544,-5.4544,-5.4544,-5.4544,-5.4358,-5.4006,-5.4192,-5.3675,-5.264,-5.2826,-5.2764,-5.2495,-5.2495,-5.2764,-5.3178,-5.3178,-5.3013,-5.2785,-5.3075,-5.3282,-5.3489,-5.3758,-5.4151,-5.4544,-5.4544,-5.4544,-5.4544,-5.4544,-5.4544,-5.4544,-5.4544,-5.4544,-5.4544,-5.4544,-5.4544,-5.4544,-5.4544,-5.4544,-5.4544,-5.4544,-5.4544,-5.4544,-5.4544,-5.4544,-5.4544,-5.4544,-5.4544,-5.4544,-5.4544,-5.4544,-5.4544,-5.4544,-5.4544,-5.4544,-5.4544,-5.4544,-5.4544,-5.4544,-5.4544,-5.4544,-5.4544,-5.4544,-5.4544,-5.4544,-5.4544,-5.4544,-5.4544,-5.4358,-5.4213,-5.413,-5.4213,-5.4255,-5.4255,-5.4172,-5.4027,-5.382,-5.3095,-5.2661,-5.2474,-5.1998,-5.1791,-5.1791,-5.1791,-5.1791,-5.1791,-5.1791,-5.1791,-5.1791,-5.1791,-5.1791,-5.1791,-6.6442,-6.6442,-6.6599,-6.7096,-6.7671,-6.8246,-6.8769,-6.8764,-6.8764,-6.8764,-6.8764,-6.8764,-6.8764,-6.8764,-6.8345,-6.7052,-6.5656,-6.4503,-6.3554,-6.329,-6.1733,-5.8516,-5.791,-5.681,-5.501,-5.461,-5.442,-5.442,-5.442,-5.3985,-5.3199,-5.3592,-5.3095,-5.1874,-5.2309,-5.2516,-5.2557,-5.2557,-5.2847,-5.3302,-5.3302,-5.3282,-5.324,-5.3282,-5.353,-5.3861,-5.3882,-5.4172,-5.4544,-5.4544,-5.4544,-5.4544,-5.4544,-5.4544,-5.4544,-5.4544,-5.4544,-5.4544,-5.4544,-5.4544,-5.4544,-5.4544,-5.4544,-5.4544,-5.4544,-5.4544,-5.4544,-5.4544,-5.4544,-5.4544,-5.4544,-5.4544,-5.4544,-5.4544,-5.4544,-5.4544,-5.4544,-5.4544,-5.4544,-5.4544,-5.4544,-5.4544,-5.4544,-5.4544,-5.4544,-5.4544,-5.4544,-5.4544,-5.4544,-5.4544,-5.4544,-5.4544,-5.413,-5.4068,-5.442,-5.4027,-5.3861,-5.3923,-5.4337,-5.4296,-5.382,-5.3385,-5.293,-5.2474,-5.1998,-5.1791,-5.1791,-5.1791,-5.1791,-5.1791,-5.1791,-5.1791,-5.1791,-5.1791,-5.1791,-5.1791,-6.7619,-6.7619,-6.7645,-6.7775,-6.8272,-6.869,-6.8738,-6.8764,-6.8764,-6.8764,-6.8764,-6.8764,-6.8764,-6.8764,-6.868,-6.8429,-6.7137,-6.6258,-6.5975,-6.4279,-6.248,-6.1015,-6.0075,-5.9246,-5.8412,-5.5173,-5.3468,-5.3468,-5.3468,-5.3385,-5.3178,-5.3282,-5.2971,-5.235,-5.2454,-5.2702,-5.3033,-5.3033,-5.3509,-5.4234,-5.4234,-5.4027,-5.3737,-5.411,-5.4068,-5.3903,-5.4255,-5.4441,-5.4544,-5.4544,-5.4544,-5.4544,-5.4544,-5.4544,-5.4544,-5.4544,-5.4544,-5.4544,-5.4544,-5.4544,-5.4544,-5.4544,-5.4544,-5.4544,-5.4544,-5.4544,-5.4544,-5.4544,-5.4544,-5.4544,-5.4544,-5.4544,-5.4544,-5.4544,-5.4544,-5.4544,-5.4544,-5.4544,-5.4544,-5.4544,-5.4544,-5.4544,-5.4544,-5.4544,-5.4544,-5.4544,-5.4544,-5.4544,-5.4544,-5.4544,-5.4544,-5.4544,-5.4441,-5.4089,-5.3489,-5.3716,-5.4027,-5.4379,-5.4482,-5.4296,-5.382,-5.3385,-5.293,-5.2474,-5.1998,-5.1791,-5.1791,-5.1791,-5.1791,-5.1791,-5.1791,-5.1791,-5.1791,-5.1791,-5.1791,-5.1791,-6.7985,-6.7985,-6.7985,-6.7985,-6.8455,-6.8764,-6.8764,-6.8764,-6.8764,-6.8764,-6.8764,-6.8764,-6.8764,-6.8764,-6.8764,-6.8764,-6.8151,-6.773,-6.773,-6.6322,-6.4715,-6.3016,-6.1816,-6.049,-5.9112,-5.6532,-5.5047,-5.484,-5.4606,-5.3956,-5.2847,-5.2847,-5.2599,-5.2164,-5.2164,-5.2536,-5.3178,-5.3178,-5.3696,-5.4544,-5.4544,-5.4399,-5.4213,-5.4441,-5.4379,-5.4213,-5.4441,-5.4544,-5.4544,-5.4544,-5.4544,-5.4544,-5.4544,-5.4544,-5.4544,-5.4544,-5.4544,-5.4544,-5.4544,-5.4544,-5.4544,-5.4544,-5.4544,-5.4544,-5.4544,-5.4544,-5.4544,-5.4544,-5.4544,-5.4544,-5.4544,-5.4544,-5.4544,-5.4544,-5.4544,-5.4544,-5.4544,-5.4544,-5.4544,-5.4544,-5.4544,-5.4544,-5.4544,-5.4544,-5.4544,-5.4544,-5.4544,-5.4544,-5.4544,-5.4544,-5.4544,-5.4544,-5.4317,-5.4089,-5.382,-5.384,-5.4089,-5.4544,-5.4317,-5.4089,-5.382,-5.3385,-5.293,-5.2474,-5.1998,-5.1791,-5.1791,-5.1791,-5.1791,-5.1791,-5.1791,-5.1791,-5.1791,-5.1791,-5.1791,-5.1791,-6.8011,-6.8063,-6.8115,-6.8011,-6.8455,-6.8764,-6.8764,-6.8764,-6.8764,-6.8764,-6.8769,-6.869,-6.869,-6.8612,-6.8586,-6.869,-6.8612,-6.8638,-6.8764,-6.8298,-6.7105,-6.4988,-6.3676,-6.1932,-5.9805,-5.8812,-5.7842,-5.6789,-5.6393,-5.5029,-5.2897,-5.2897,-5.2528,-5.1791,-5.1791,-5.2309,-5.3178,-5.3178,-5.3696,-5.4544,-5.4544,-5.4544,-5.4544,-5.4544,-5.4544,-5.4544,-5.4544,-5.4544,-5.4544,-5.4544,-5.4544,-5.4544,-5.4544,-5.4544,-5.4544,-5.4544,-5.4544,-5.4544,-5.4544,-5.4544,-5.4544,-5.4544,-5.4544,-5.4544,-5.4544,-5.4544,-5.4544,-5.4544,-5.4544,-5.4544,-5.4544,-5.4544,-5.4544,-5.4544,-5.4544,-5.4544,-5.4544,-5.4544,-5.4544,-5.4544,-5.4544,-5.4544,-5.4544,-5.4544,-5.4544,-5.4544,-5.4544,-5.4544,-5.4544,-5.4544,-5.4544,-5.4544,-5.4172,-5.411,-5.442,-5.3953,-5.4048,-5.442,-5.4027,-5.3799,-5.3716,-5.3344,-5.2888,-5.235,-5.1978,-5.1791,-5.1791,-5.1791,-5.1791,-5.1791,-5.1791,-5.1791,-5.1791,-5.1791,-5.1791,-5.1791,-6.8089,-6.8377,-6.8586,-6.8063,-6.8455,-6.8764,-6.8764,-6.8764,-6.8764,-6.8764,-6.8429,-6.8115,-6.8115,-6.7645,-6.754,-6.8063,-6.7619,-6.7749,-6.8769,-6.8298,-6.7628,-6.6965,-6.6264,-6.5409,-6.4354,-6.3242,-6.0841,-5.7197,-5.7129,-5.6103,-5.4342,-5.4342,-5.343,-5.1791,-5.1791,-5.2309,-5.3178,-5.3178,-5.3696,-5.4544,-5.4544,-5.4544,-5.4544,-5.4544,-5.4544,-5.4544,-5.4544,-5.4544,-5.4544,-5.4544,-5.4544,-5.4544,-5.4544,-5.4544,-5.4544,-5.4544,-5.4544,-5.4544,-5.4544,-5.4544,-5.4544,-5.4544,-5.4544,-5.4544,-5.4544,-5.4544,-5.4544,-5.4544,-5.4544,-5.4544,-5.4544,-5.4544,-5.4544,-5.4544,-5.4544,-5.4544,-5.4544,-5.4544,-5.4544,-5.4544,-5.4544,-5.4544,-5.4544,-5.4544,-5.4544,-5.4544,-5.4544,-5.4544,-5.4544,-5.4544,-5.4544,-5.4544,-5.4482,-5.4275,-5.3944,-5.3882,-5.3882,-5.385,-5.3882,-5.3654,-5.3282,-5.322,-5.2702,-5.1895,-5.1833,-5.1791,-5.1791,-5.1791,-5.1791,-5.1791,-5.1791,-5.1791,-5.1791,-5.1791,-5.1791,-5.1791,-6.8377,-6.8429,-6.8377,-6.8455,-6.8664,-6.8764,-6.8764,-6.8764,-6.8743,-6.8403,-6.8141,-6.7985,-6.7985,-6.7749,-6.7697,-6.7958,-6.7749,-6.7958,-6.8711,-6.8298,-6.7902,-6.7737,-6.6944,-6.615,-6.5457,-6.47,-6.3155,-6.0744,-5.9462,-5.7933,-5.612,-5.612,-5.5684,-5.4829,-5.379,-5.3729,-5.4278,-5.3245,-5.3323,-5.4151,-5.4151,-5.4296,-5.4544,-5.4544,-5.4544,-5.4544,-5.4544,-5.4544,-5.4544,-5.4544,-5.4544,-5.4544,-5.4544,-5.4544,-5.4544,-5.4544,-5.4544,-5.4544,-5.4544,-5.4544,-5.4544,-5.4544,-5.4544,-5.4544,-5.4544,-5.4544,-5.4544,-5.4544,-5.4544,-5.4544,-5.4544,-5.4544,-5.4544,-5.4544,-5.4544,-5.4544,-5.4544,-5.4544,-5.4544,-5.4544,-5.4544,-5.4544,-5.4544,-5.4544,-5.4544,-5.4544,-5.4544,-5.4544,-5.4544,-5.4544,-5.4544,-5.4544,-5.4544,-5.4441,-5.4234,-5.4234,-5.4234,-5.4234,-5.3965,-5.3882,-5.3923,-5.3406,-5.295,-5.2536,-5.2019,-5.1646,-5.1419,-5.1419,-5.1253,-5.1046,-5.1315,-5.1584,-5.1791,-5.1791,-5.1791,-5.1791]},{"header":{"parameterUnit":"m.s-1","parameterCategory":1,"la1":30.6,"la2":28.766,"lo1":-90.7593,"lo2":-88.6598,"dy":0.0162,"dx":0.0183,"nx":116,"ny":114,"refTime":"2024-04-06T12:00:00:Z","depth":0,"parameterNumber":3,"parameterNumberName":"V-component_of_WINDS"},"data":[0.0,0.0,0.0,0.0,0.0,0.0,0.0,0.0,0.0,0.0,0.0,0.0,0.0,0.0,0.0,0.0,0.0,0.0,0.0,0.0,0.0,0.0,0.0,0.0,0.0,0.0,0.0,0.0,0.0,0.0,0.0,0.0,0.0,0.0,0.0,0.0,0.0,0.0,0.0,0.0,0.0,0.0,0.0,0.0,0.0,0.0,0.0,0.0,0.0,0.0,0.0,0.0,0.0,0.0,0.0,0.0,0.0,0.0,0.0,0.0,0.0,0.0,0.0,0.0,0.0,0.0,0.0,0.0,0.0,0.0,0.0,0.0,0.0,0.0,0.0,0.0,0.0,0.0,0.0,0.0,0.0,0.0,0.0,0.0,0.0,0.0,0.0,0.0,0.0,0.0,0.0,0.0,0.0,0.0,0.0,0.0,0.0,0.0,0.0,0.0,0.0,0.0,0.0,0.0,0.0,0.0,0.0,0.0,0.0,0.0,0.0,0.0,0.0,0.0,0.0,0.0,0.0,0.0,0.0,0.0,0.0,0.0,0.0,0.0,0.0,0.0,0.0,0.0,0.0,0.0,0.0,0.0,0.0,0.0,0.0,0.0,0.0,0.0,0.0,0.0,0.0,0.0,0.0,0.0,0.0,0.0,0.0,0.0,0.0,0.0,0.0,0.0,0.0,0.0,0.0,0.0,0.0,0.0,0.0,0.0,0.0,0.0,0.0,0.0,0.0,0.0,0.0,0.0,0.0,0.0,0.0,0.0,0.0,0.0,0.0,0.0,0.0,0.0,0.0,0.0,0.0,0.0,0.0,0.0,0.0,0.0,0.0,0.0,0.0,0.0,0.0,0.0,0.0,0.0,0.0,0.0,0.0,0.0,0.0,0.0,0.0,0.0,0.0,0.0,0.0,0.0,0.0,0.0,0.0,0.0,0.0,0.0,0.0,0.0,0.0,0.0,0.0,0.0,0.0,0.0,0.0,0.0,0.0,0.0,0.0,0.0,0.0,0.0,0.0,0.0,0.0,0.0,0.0,0.0,0.0,0.0,0.0,0.0,0.0,0.0,0.0,0.0,0.0,0.0,0.0,0.0,0.0,0.0,0.0,0.0,0.0,0.0,0.0,0.0,0.0,0.0,0.0,0.0,0.0,0.0,0.0,0.0,0.0,0.0,0.0,0.0,0.0,0.0,0.0,0.0,0.0,0.0,0.0,0.0,0.0,0.0,0.0,0.0,0.0,0.0,0.0,0.0,0.0,0.0,0.0,0.0,0.0,0.0,0.0,0.0,0.0,0.0,0.0,0.0,0.0,0.0,0.0,0.0,0.0,0.0,0.0,0.0,0.0,0.0,0.0,0.0,0.0,0.0,0.0,0.0,0.0,0.0,0.0,0.0,0.0,0.0,0.0,0.0,0.0,0.0,0.0,0.0,0.0,0.0,0.0,0.0,0.0,0.0,0.0,0.0,0.0,0.0,0.0,0.0,0.0,0.0,0.0,0.0,0.0,0.0,0.0,0.0,0.0,0.0,0.0,0.0,0.0,0.0,0.0,0.0,0.0,0.0,0.0,0.0,0.0,0.0,0.0,0.0,0.0,0.0,0.0,0.0,0.0,0.0,0.0,0.0,0.0,0.0,0.0,0.0,0.0,0.0,0.0,0.0,0.0,0.0,0.0,0.0,0.0,0.0,0.0,0.0,0.0,0.0,0.0,0.0,0.0,0.0,0.0,0.0,0.0,0.0,0.0,0.0,0.0,0.0,0.0,0.0,0.0,0.0,0.0,0.0,0.0,0.0,0.0,0.0,0.0,0.0,0.0,0.0,0.0,0.0,0.0,0.0,0.0,0.0,0.0,0.0,0.0,0.0,0.0,0.0,0.0,0.0,0.0,0.0,0.0,0.0,0.0,0.0,0.0,0.0,0.0,0.0,0.0,0.0,0.0,0.0,0.0,0.0,0.0,0.0,0.0,0.0,0.0,0.0,0.0,0.0,0.0,0.0,0.0,0.0,0.0,0.0,0.0,0.0,0.0,0.0,0.0,0.0,0.0,0.0,0.0,0.0,0.0,0.0,0.0,0.0,0.0,0.0,0.0,0.0,0.0,0.0,0.0,0.0,0.0,0.0,0.0,0.0,0.0,0.0,0.0,0.0,0.0,0.0,0.0,0.0,0.0,0.0,0.0,0.0,0.0,0.0,0.0,0.0,0.0,0.0,0.0,0.0,0.0,0.0,0.0,0.0,0.0,0.0,0.0,0.0,0.0,0.0,0.0,0.0,0.0,0.0,0.0,0.0,0.0,0.0,0.0,0.0,0.0,0.0,0.0,0.0,0.0,0.0,0.0,0.0,0.0,0.0,0.0,0.0,0.0,0.0,0.0,0.0,0.0,0.0,0.0,0.0,0.0,0.0,0.0,0.0,0.0,0.0,0.0,0.0,0.0,0.0,0.0,0.0,0.0,0.0,0.0,0.0,0.0,0.0,0.0,0.0,0.0,0.0,0.0,0.0,0.0,0.0,0.0,0.0,0.0,0.0,0.0,0.0,0.0,0.0,0.0,0.0,0.0,0.0,0.0,0.0,0.0,0.0,0.0,0.0,0.0,0.0,0.0,0.0,0.0,0.0,0.0,0.0,0.0,0.0,0.0,0.0,0.0,0.0,0.0,0.0,0.0,0.0,0.0,0.0,0.0,0.0,0.0,0.0,0.0,0.0,0.0,0.0,0.0,0.0,0.0,0.0,0.0,0.0,0.0,0.0,0.0,0.0,0.0,0.0,0.0,0.0,0.0,0.0,0.0,0.0,0.0,0.0,0.0,0.0,0.0,0.0,0.0,0.0,0.0,0.0,0.0,0.0,0.0,0.0,0.0,0.0,0.0,0.0,0.0,0.0,0.0,0.0,0.0,0.0,0.0,0.0,0.0,0.0,0.0,0.0,0.0,0.0,0.0,0.0,0.0,0.0,0.0,0.0,0.0,0.0,0.0,0.0,0.0,0.0,0.0,0.0,0.0,0.0,0.0,0.0,0.0,0.0,0.0,0.0,0.0,0.0,0.0,0.0,0.0,0.0,0.0,0.0,0.0,0.0,0.0,0.0,0.0,0.0,0.0,0.0,0.0,0.0,0.0,0.0,0.0,0.0,0.0,0.0,0.0,0.0,0.0,0.0,0.0,0.0,0.0,0.0,0.0,0.0,0.0,0.0,0.0,0.0,0.0,0.0,0.0,0.0,0.0,0.0,0.0,0.0,0.0,0.0,0.0,0.0,0.0,0.0,0.0,0.0,0.0,0.0,0.0,0.0,0.0,0.0,0.0,0.0,0.0,0.0,0.0,0.0,0.0,0.0,0.0,0.0,0.0,0.0,0.0,0.0,0.0,0.0,0.0,0.0,0.0,0.0,0.0,0.0,0.0,0.0,0.0,0.0,0.0,0.0,0.0,0.0,0.0,0.0,0.0,0.0,0.0,0.0,0.0,0.0,0.0,0.0,0.0,0.0,0.0,0.0,0.0,0.0,0.0,0.0,0.0,0.0,0.0,0.0,0.0,0.0,0.0,0.0,0.0,0.0,0.0,0.0,0.0,0.0,0.0,0.0,0.0,0.0,0.0,0.0,0.0,0.0,0.0,0.0,0.0,0.0,0.0,0.0,0.0,0.0,0.0,0.0,0.0,0.0,0.0,0.0,0.0,0.0,0.0,0.0,0.0,0.0,0.0,0.0,0.0,0.0,0.0,0.0,0.0,0.0,0.0,0.0,0.0,0.0,0.0,0.0,0.0,0.0,0.0,0.0,0.0,0.0,0.0,0.0,0.0,0.0,0.0,0.0,0.0,0.0,0.0,0.0,0.0,0.0,0.0,0.0,0.0,0.0,0.0,0.0,0.0,0.0,0.0,0.0,0.0,0.0,0.0,0.0,0.0,0.0,0.0,0.0,0.0,0.0,0.0,0.0,0.0,0.0,0.0,0.0,0.0,0.0,0.0,0.0,0.0,0.0,0.0,0.0,0.0,0.0,0.0,0.0,0.0,0.0,0.0,0.0,0.0,0.0,0.0,0.0,0.0,0.0,0.0,0.0,0.0,0.0,0.0,0.0,0.0,0.0,0.0,0.0,0.0,0.0,0.0,0.0,0.0,0.0,0.0,0.0,0.0,0.0,0.0,0.0,0.0,0.0,0.0,0.0,0.0,0.0,0.0,0.0,0.0,0.0,0.0,0.0,0.0,0.0,0.0,0.0,0.0,0.0,0.0,0.0,0.0,0.0,0.0,0.0,0.0,0.0,0.0,0.0,0.0,0.0,0.0,0.0,0.0,0.0,0.0,0.0,0.0,0.0,0.0,0.0,0.0,0.0,0.0,0.0,0.0,0.0,0.0,0.0,0.0,0.0,0.0,0.0,0.0,0.0,0.0,0.0,0.0,0.0,0.0,0.0,0.0,0.0,0.0,0.0,0.0,0.0,0.0,0.0,0.0,0.0,0.0,0.0,0.0,0.0,0.0,0.0,0.0,0.0,0.0,0.0,0.0,0.0,0.0,0.0,0.0,0.0,0.0,0.0,0.0,0.0,0.0,0.0,0.0,0.0,0.0,0.0,0.0,0.0,0.0,0.0,0.0,0.0,0.0,0.0,0.0,0.0,0.0,0.0,0.0,0.0,0.0,0.0,0.0,0.0,0.0,0.0,0.0,0.0,0.0,0.0,0.0,0.0,0.0,0.0,0.0,0.0,0.0,0.0,0.0,0.0,0.0,0.0,0.0,0.0,0.0,0.0,0.0,0.0,0.0,0.0,0.0,0.0,0.0,0.0,0.0,0.0,0.0,0.0,0.0,0.0,0.0,0.0,0.0,0.0,0.0,0.0,0.0,0.0,0.0,0.0,0.0,0.0,0.0,0.0,0.0,0.0,0.0,0.0,0.0,0.0,0.0,0.0,0.0,0.0,0.0,0.0,0.0,0.0,0.0,0.0,0.0,0.0,0.0,0.0,0.0,0.0,0.0,0.0,0.0,0.0,0.0,0.0,0.0,0.0,0.0,0.0,0.0,0.0,0.0,0.0,0.0,0.0,0.0,0.0,0.0,0.0,0.0,0.0,0.0,0.0,0.0,0.0,0.0,0.0,0.0,0.0,0.0,0.0,0.0,0.0,0.0,0.0,0.0,0.0,0.0,0.0,0.0,0.0,0.0,0.0,0.0,0.0,0.0,0.0,0.0,0.0,0.0,0.0,0.0,0.0,0.0,0.0,0.0,0.0,0.0,0.0,0.0,0.0,0.0,0.0,0.0,0.0,0.0,0.0,0.0,0.0,0.0,0.0,0.0,0.0,0.0,0.0,0.0,0.0,0.0,0.0,0.0,0.0,0.0,0.0,0.0,0.0,0.0,0.0,0.0,0.0,0.0,0.0,0.0,0.0,0.0,0.0,0.0,0.0,0.0,0.0,0.0,0.0,0.0,0.0,0.0,0.0,0.0,0.0,0.0,0.0,0.0,0.0,0.0,0.0,0.0,0.0,0.0,0.0,0.0,0.0,0.0,0.0,0.0,0.0,0.0,0.0,0.0,0.0,0.0,0.0,0.0,0.0,0.0,0.0,0.0,0.0,0.0,0.0,0.0,0.0,0.0,0.0,0.0,0.0,0.0,0.0,0.0,0.0,0.0,0.0,0.0,0.0,0.0,0.0,0.0,0.0,0.0,0.0,0.0,0.0,0.0,0.0,0.0,0.0,0.0,0.0,0.0,0.0,0.0,0.0,0.0,0.0,0.0,0.0,0.0,0.0,0.0,0.0,0.0,0.0,0.0,0.0,0.0,0.0,0.0,0.0,0.0,0.0,0.0,0.0,0.0,0.0,0.0,0.0,0.0,0.0,0.0,0.0,0.0,0.0,0.0,0.0,0.0,0.0,0.0,0.0,0.0,0.0,0.0,0.0,0.0,0.0,0.0,0.0,0.0,0.0,0.0,0.0,0.0,0.0,0.0,0.0,0.0,0.0,0.0,0.0,0.0,0.0,0.0,0.0,0.0,0.0,0.0,0.0,0.0,0.0,0.0,0.0,0.0,0.0,0.0,0.0,0.0,0.0,0.0,0.0,0.0,0.0,0.0,0.0,0.0,0.0,0.0,0.0,0.0,0.0,0.0,0.0,7.533,0.0,0.0,0.0,0.0,0.0,0.0,0.0,0.0,0.0,0.0,0.0,0.0,0.0,0.0,0.0,0.0,0.0,0.0,0.0,0.0,0.0,0.0,0.0,0.0,6.4096,6.4635,6.4934,6.5293,6.5622,6.5951,6.5981,0.0,0.0,0.0,0.0,0.0,0.0,6.5981,6.5981,6.5981,6.6131,6.643,6.6732,6.5977,6.4485,0.0,0.0,0.0,0.0,0.0,0.0,0.0,0.0,0.0,0.0,0.0,0.0,0.0,0.0,0.0,0.0,0.0,0.0,0.0,0.0,0.0,0.0,0.0,0.0,0.0,0.0,0.0,0.0,0.0,0.0,0.0,0.0,0.0,0.0,0.0,0.0,0.0,0.0,0.0,0.0,0.0,0.0,0.0,0.0,0.0,0.0,0.0,0.0,0.0,0.0,0.0,0.0,0.0,0.0,0.0,0.0,0.0,0.0,0.0,0.0,0.0,0.0,0.0,0.0,0.0,0.0,0.0,0.0,0.0,0.0,0.0,7.6755,0.0,0.0,0.0,0.0,0.0,0.0,0.0,0.0,0.0,0.0,0.0,0.0,0.0,0.0,0.0,0.0,0.0,0.0,0.0,0.0,0.0,6.4036,6.4156,6.4784,6.5413,6.5951,6.6131,6.64,6.6939,6.6999,6.6999,6.6999,6.6999,6.6999,6.6999,6.6999,6.6999,6.6999,6.7328,6.7897,6.8707,6.9245,6.8394,6.637,6.5652,0.0,0.0,0.0,0.0,0.0,0.0,0.0,0.0,0.0,0.0,0.0,0.0,0.0,0.0,0.0,0.0,0.0,0.0,0.0,0.0,0.0,0.0,0.0,0.0,0.0,0.0,0.0,0.0,0.0,0.0,0.0,0.0,0.0,0.0,0.0,0.0,0.0,0.0,0.0,0.0,0.0,0.0,0.0,0.0,0.0,0.0,0.0,0.0,0.0,0.0,0.0,0.0,0.0,0.0,0.0,0.0,0.0,0.0,0.0,0.0,0.0,0.0,0.0,8.4573,8.5177,8.4841,8.534,8.5378,8.4935,8.2599,8.0342,7.8339,7.8339,0.0,0.0,0.0,0.0,0.0,0.0,0.0,0.0,0.0,0.0,0.0,0.0,0.0,0.0,0.0,0.0,0.0,0.0,0.0,6.4216,6.4814,6.5473,6.5922,6.6011,6.652,6.6909,6.6999,6.6999,6.6999,6.6999,6.6999,6.6999,6.6999,6.6999,6.6999,6.6999,6.8704,7.0171,7.1368,7.2073,7.2158,7.1667,6.815,6.7635,6.923,0.0,0.0,0.0,0.0,0.0,0.0,0.0,0.0,0.0,0.0,0.0,0.0,0.0,0.0,0.0,0.0,0.0,0.0,0.0,0.0,0.0,0.0,0.0,0.0,0.0,0.0,0.0,0.0,0.0,0.0,0.0,0.0,0.0,0.0,0.0,0.0,0.0,0.0,0.0,0.0,0.0,7.3294,7.4338,0.0,0.0,0.0,0.0,0.0,0.0,0.0,0.0,0.0,0.0,0.0,0.0,0.0,8.2201,8.3413,8.6355,8.7685,8.7488,8.9575,9.0597,9.0465,8.9967,8.9669,8.963,8.954,0.0,8.198,8.2013,0.0,0.0,0.0,0.0,0.0,0.0,0.0,0.0,0.0,0.0,0.0,0.0,0.0,0.0,0.0,0.0,0.0,0.0,0.0,0.0,0.0,6.6849,6.7687,6.7687,6.9303,6.9692,6.8226,6.8794,6.8525,6.7059,6.6999,6.6999,6.6999,6.6999,6.7717,6.9183,7.1547,7.3373,7.4659,7.6554,7.7288,7.6965,7.6334,7.419,7.104,7.0937,0.0,0.0,0.0,0.0,0.0,0.0,0.0,0.0,0.0,0.0,0.0,0.0,0.0,0.0,0.0,0.0,0.0,0.0,0.0,0.0,0.0,0.0,0.0,0.0,0.0,0.0,0.0,0.0,0.0,0.0,0.0,0.0,0.0,0.0,0.0,0.0,0.0,0.0,0.0,7.5312,7.6688,7.5941,7.7583,7.8014,0.0,0.0,0.0,0.0,0.0,0.0,0.0,0.0,0.0,8.457,8.5733,8.7028,8.8549,9.0765,9.203,9.2305,9.4133,9.4829,9.4619,9.4719,9.4679,9.4499,9.5025,9.3198,8.9557,8.6432,8.3628,8.1115,0.0,0.0,0.0,0.0,7.86,7.9087,0.0,0.0,0.0,0.0,0.0,0.0,0.0,0.0,0.0,0.0,0.0,0.0,6.6939,6.8645,6.9871,7.0231,7.2026,7.2265,7.0141,7.026,6.9542,6.7597,6.7178,6.6999,6.6999,6.7657,6.9273,7.1906,7.442,7.6574,7.8438,8.0704,8.1878,8.213,8.4059,8.1175,7.5023,7.5687,7.4462,7.1975,0.0,0.0,0.0,0.0,0.0,0.0,0.0,0.0,0.0,0.0,0.0,0.0,0.0,0.0,0.0,0.0,0.0,0.0,0.0,0.0,0.0,0.0,0.0,0.0,0.0,0.0,0.0,0.0,0.0,0.0,0.0,0.0,0.0,0.0,0.0,0.0,0.0,7.8113,7.9272,7.6887,7.9836,8.0796,0.0,0.0,0.0,0.0,0.0,0.0,8.4177,8.5259,8.6936,8.9386,9.082,9.2247,9.3931,9.5386,9.645,9.7088,9.8187,9.8651,9.8578,9.8816,9.8712,9.8203,9.87,9.7791,9.548,9.0816,8.7159,8.4375,8.2899,8.1859,8.1221,8.1221,8.161,8.2181,0.0,0.0,0.0,0.0,0.0,0.0,0.0,0.0,0.0,0.0,0.0,6.6969,6.9512,7.0949,7.2265,7.3522,7.3762,7.3522,7.2774,7.044,6.9034,6.8914,6.7687,6.6999,6.6999,6.9423,7.2026,7.4689,7.6664,7.9395,8.2811,8.36,8.5027,8.7075,8.8561,8.7145,8.3454,7.8914,7.759,7.8136,7.4765,0.0,0.0,0.0,0.0,0.0,0.0,0.0,0.0,0.0,0.0,0.0,0.0,0.0,0.0,0.0,0.0,0.0,0.0,0.0,0.0,0.0,0.0,0.0,0.0,0.0,0.0,0.0,0.0,0.0,0.0,0.0,0.0,0.0,0.0,0.0,0.0,0.0,0.0,7.7715,8.2419,0.0,0.0,0.0,0.0,8.3612,8.4684,8.6636,8.9835,9.0407,9.2114,9.5397,9.6583,9.7723,9.8951,10.0319,10.1287,10.1684,10.1717,10.2083,10.2818,10.1708,10.084,10.0111,9.9851,9.8919,9.7317,9.4775,9.1994,8.9202,8.7778,8.6769,8.6074,8.6129,8.6328,8.6527,0.0,0.0,0.0,0.0,0.0,6.4156,6.4605,6.5233,6.5742,6.5981,6.7508,6.9243,7.1009,7.3522,7.5587,7.6933,7.7831,7.7502,7.5557,7.3373,7.1577,7.029,6.8555,6.8226,6.9482,7.1697,7.4811,7.8865,8.1339,8.4362,8.7819,8.9057,9.0261,9.1519,9.3037,9.2479,9.011,8.5575,8.2294,7.9879,7.762,7.6009,0.0,0.0,0.0,0.0,0.0,0.0,0.0,0.0,0.0,0.0,0.0,0.0,0.0,0.0,0.0,0.0,0.0,0.0,0.0,0.0,0.0,0.0,0.0,0.0,0.0,0.0,0.0,0.0,0.0,0.0,0.0,0.0,0.0,0.0,0.0,0.0,0.0,8.3181,8.7389,0.0,8.5567,8.6596,8.7777,8.845,8.976,9.1909,9.5192,9.5713,9.7119,9.9718,10.0219,10.0883,10.1679,10.2218,10.2587,10.2716,10.2888,10.3055,10.3083,10.3226,10.2925,10.2386,10.209,10.1285,10.021,9.8422,9.5234,9.1361,8.9885,8.8578,8.7505,8.7505,8.7864,8.8381,0.0,0.0,0.0,0.0,6.4665,6.4844,6.5293,6.5922,6.634,6.634,6.8645,7.0949,7.2714,7.6066,7.8789,8.0315,8.0883,8.0195,7.7981,7.4929,7.2535,7.0979,6.9453,6.9572,7.1547,7.4691,7.7957,8.1339,8.429,8.7311,9.039,9.145,9.2838,9.4504,9.5838,9.5703,9.4345,9.1198,8.7024,8.2353,8.0399,7.8875,7.7583,0.0,0.0,0.0,0.0,0.0,0.0,0.0,0.0,0.0,0.0,0.0,0.0,0.0,0.0,0.0,0.0,0.0,0.0,0.0,0.0,0.0,0.0,0.0,0.0,0.0,0.0,0.0,0.0,0.0,0.0,0.0,0.0,0.0,0.0,8.4341,8.7256,8.7256,9.1562,9.3384,9.0436,9.1807,9.3153,9.3557,9.4816,9.6776,9.9478,9.9952,10.0985,10.2922,10.2881,10.328,10.4023,10.4023,10.4125,10.4194,10.4298,10.4298,10.4161,10.4468,10.4235,10.3596,10.3431,10.2658,10.1583,10.0105,9.7492,9.4288,9.3024,9.1715,9.0522,9.064,9.0867,9.1069,0.0,0.0,0.0,6.4186,6.5114,6.5981,6.6041,6.658,6.6999,6.6999,6.9333,7.1996,7.4659,7.8489,8.1691,8.3666,8.2589,8.1242,7.9926,7.4899,7.1637,7.0949,7.038,7.1038,7.3043,7.8315,8.1369,8.1976,8.5432,8.8317,9.0557,9.0628,9.2558,9.6101,9.683,9.6763,9.6035,9.5273,9.1662,8.6196,8.3181,8.1492,8.0465,0.0,0.0,0.0,0.0,0.0,0.0,0.0,0.0,0.0,0.0,0.0,0.0,0.0,0.0,0.0,0.0,0.0,0.0,0.0,0.0,0.0,0.0,0.0,0.0,0.0,0.0,0.0,0.0,0.0,0.0,0.0,0.0,0.0,8.1989,8.6328,8.9575,8.9674,9.4743,9.7128,9.4312,9.6926,9.8786,9.8786,9.9783,10.1085,10.2525,10.2922,10.3587,10.4701,10.4707,10.5107,10.584,10.584,10.5978,10.6322,10.5978,10.5978,10.6322,10.5631,10.469,10.3562,10.363,10.2793,10.1286,9.9813,9.8741,9.8066,9.7215,9.623,9.5345,9.5683,9.527,9.4662,0.0,0.0,6.4545,6.5323,6.5353,6.5622,6.658,6.6879,6.6999,6.6999,7.053,7.3881,7.6066,8.0255,8.3726,8.5701,8.3786,8.1931,8.0614,7.6006,7.2834,7.1667,7.1936,7.3702,7.7083,7.9129,8.2153,8.6301,8.892,9.1579,9.4253,9.5506,9.6624,9.7592,9.779,9.7757,9.7525,9.6797,9.4941,9.2093,8.7587,8.4705,8.2817,0.0,0.0,0.0,0.0,0.0,0.0,0.0,0.0,0.0,0.0,0.0,0.0,0.0,0.0,0.0,0.0,0.0,0.0,0.0,0.0,0.0,0.0,0.0,0.0,0.0,0.0,0.0,0.0,0.0,0.0,0.0,8.3645,8.5931,8.6428,8.9575,9.2788,9.5438,9.8088,9.9612,9.9347,10.0914,10.1849,10.1473,10.2415,10.3487,10.4488,10.4793,10.5166,10.5505,10.5809,10.5804,10.5388,10.5388,10.5318,10.521,10.5384,10.5318,10.521,10.5458,10.513,10.3954,10.3694,10.2793,10.1286,10.0107,9.9161,9.8321,9.6779,9.5676,9.4976,9.5038,9.4629,9.4031,0.0,6.3951,6.4487,6.5413,6.5503,6.5802,6.6819,6.6999,6.6999,6.6999,7.1248,7.4839,7.6275,8.0794,8.4205,8.5342,8.3307,8.1153,7.9267,7.5318,7.2834,7.2325,7.4031,7.6305,7.9148,8.1847,8.4666,8.7477,9.0681,9.3137,9.4731,9.6455,9.7385,9.7757,9.8353,9.8453,9.8155,9.8055,9.7525,9.6432,9.2854,8.9707,8.6892,8.4043,8.2386,8.1293,7.9306,7.8974,7.9074,7.6755,0.0,0.0,0.0,0.0,0.0,0.0,0.0,0.0,0.0,0.0,0.0,0.0,0.0,0.0,0.0,0.0,0.0,0.0,0.0,0.0,0.0,0.0,0.0,0.0,8.6693,8.9641,9.1297,9.3517,9.6101,9.9182,10.0805,10.1997,10.2693,10.3507,10.3912,10.3736,10.4275,10.4815,10.5281,10.5491,10.5631,10.5631,10.584,10.577,10.5458,10.5684,10.5618,10.5388,10.5792,10.5795,10.5634,10.5643,10.5107,10.4164,10.3598,10.2491,10.1114,10.0069,9.9353,0.0,0.0,0.0,0.0,0.0,9.5223,9.4684,0.0,6.3831,6.4576,6.4815,6.5413,6.6131,6.6789,6.6939,6.6999,6.6999,7.1457,7.4929,7.5617,8.0225,8.3367,8.3606,8.1751,7.9477,7.6904,7.3971,7.2714,7.3552,7.6664,7.8998,8.0345,8.5347,8.7569,8.6778,9.1157,9.3319,9.3542,9.5211,9.6565,9.7525,9.8817,9.9016,9.8453,9.9115,9.9347,9.9182,9.7857,9.514,9.1463,8.815,8.709,8.6958,8.3612,8.2055,8.1293,7.9571,0.0,0.0,0.0,0.0,0.0,0.0,0.0,0.0,0.0,0.0,0.0,0.0,0.0,0.0,0.0,0.0,0.0,0.0,0.0,0.0,0.0,0.0,0.0,0.0,8.9674,9.302,9.6068,9.7724,9.938,10.1302,10.2792,10.3886,10.4581,10.4965,10.5177,10.5177,10.5277,10.5277,10.5177,0.0,0.0,0.0,0.0,10.5625,10.6005,10.6292,10.64,10.6286,10.6512,10.662,10.6461,10.5516,10.464,10.3834,10.3229,10.1986,10.0474,9.9867,9.9285,9.8791,9.8211,9.8003,9.7935,9.7258,9.6548,9.6041,0.0,6.3091,6.3832,6.3832,6.4606,6.5443,6.6101,6.664,6.6999,6.6999,7.0679,7.3552,7.421,7.8041,8.1212,8.2798,8.0644,7.831,7.6215,7.5497,7.5886,7.7562,8.0315,8.2409,8.3726,8.6374,8.7666,8.7496,9.0768,9.2983,9.4344,9.6464,9.8296,9.9712,9.9977,10.001,9.991,10.001,9.9778,9.9248,9.8983,9.6664,9.3219,9.1927,9.0039,8.7952,8.6693,8.6494,8.6328,8.3148,8.2651,8.2883,7.9769,7.7881,0.0,0.0,0.0,0.0,0.0,0.0,0.0,0.0,0.0,0.0,0.0,0.0,0.0,0.0,0.0,0.0,0.0,0.0,0.0,8.984,9.2623,9.5471,9.8983,10.0705,10.1832,10.2229,10.3091,10.3886,10.4581,10.4785,10.4823,10.4823,10.542,10.5382,10.4752,10.5705,10.618,10.618,10.6396,10.6834,10.7084,10.6864,10.6493,10.5933,0.0,0.0,10.4175,10.3407,10.2574,10.1876,10.1845,10.0615,9.8687,9.8819,9.8311,9.7455,9.7822,9.8003,9.8003,9.7834,9.7326,9.6785,0.0,6.2322,6.2943,6.3268,6.4279,6.5174,6.565,6.6428,6.6999,6.6999,6.9871,7.2026,7.2355,7.5347,7.7622,7.828,7.6485,7.5497,7.5886,7.6185,7.7831,8.1123,8.2858,8.4354,8.5671,8.7347,8.8185,8.8185,9.1491,9.3918,9.5609,9.7525,9.9074,10.0308,10.0308,10.0109,9.9811,10.0209,10.0308,10.0308,9.9944,9.8685,9.6863,9.5041,9.3451,9.196,9.0502,8.9972,8.9575,8.7024,8.6163,8.5732,8.3181,8.1359,7.9869,0.0,0.0,0.0,0.0,0.0,0.0,0.0,0.0,0.0,0.0,0.0,0.0,0.0,0.0,8.1923,8.4109,0.0,8.9575,9.3219,9.5637,9.7857,10.001,10.1898,10.3091,10.3091,10.3687,10.4283,10.4681,10.5012,10.5078,10.4714,10.5376,10.5608,10.5277,10.6,10.6508,10.6593,10.7018,10.7184,10.7124,10.7302,10.6969,10.6094,10.5909,10.5414,10.4681,10.3616,10.2847,10.2175,10.1079,9.9783,9.8488,9.8451,9.8246,9.8105,9.8489,9.8145,9.7472,9.7101,9.6462,9.589,0.0,6.1759,6.2351,6.2941,6.404,6.5054,6.5438,6.6306,6.6937,6.6999,6.9,7.0465,7.053,7.2684,7.3881,7.3343,7.2804,7.3492,7.5916,7.7143,7.9627,8.3756,8.5043,8.606,8.6868,8.8454,8.9142,8.8873,9.2236,9.4623,9.6161,9.7379,9.8675,9.9991,9.9958,9.9901,9.9745,10.0407,10.1004,10.1335,10.0805,10.0407,10.001,9.7426,9.6333,9.6001,9.4179,9.2689,9.143,9.0403,8.9012,8.7488,8.6328,8.5037,8.348,8.1161,8.0564,0.0,0.0,0.0,0.0,0.0,0.0,0.0,0.0,7.8908,7.9504,8.1558,8.3347,8.5467,8.8415,9.0867,9.3351,9.6001,9.8155,9.9778,10.0606,10.2395,10.3654,10.3786,10.4283,10.4681,10.4681,10.5211,10.531,10.4714,10.5509,10.5973,10.5807,10.6393,10.6792,10.7099,10.739,10.739,10.7099,10.7603,10.7317,10.6342,10.6475,10.6084,10.533,10.3726,10.2922,10.2614,10.0418,9.9086,9.8387,9.8183,9.8313,9.8614,9.8881,9.8112,9.6742,9.6498,9.5925,9.5226,0.0,6.193,6.258,6.2639,6.374,6.4843,6.5436,6.609,6.6691,6.6937,6.8005,6.8866,6.9213,7.05,7.1308,7.1248,7.3253,7.5168,7.6634,7.9537,8.223,8.4504,8.7496,8.8634,8.7616,9.001,9.0728,8.9561,9.1757,9.3357,9.4388,9.4548,9.6206,9.9087,9.9087,9.9876,10.1202,10.1931,10.1931,10.1401,10.1302,10.0904,10.0109,9.8552,9.7525,9.6962,9.6697,9.4445,9.1662,9.2159,9.0933,8.9144,8.8979,8.8382,8.7157,8.4341,8.2154,8.02,7.7914,7.692,7.6987,7.8809,7.8809,7.9438,0.0,8.4241,8.4672,8.6229,8.8714,9.0734,9.1132,9.3583,9.6035,9.7658,9.9215,10.0705,10.2097,10.3024,10.3786,10.4482,10.4614,10.4681,10.4681,10.478,10.478,10.4681,10.6006,10.6503,10.5807,10.7139,10.7761,10.7894,10.7861,10.7861,10.7894,10.7589,10.6931,10.5813,10.4308,10.3676,10.3795,10.1639,10.0973,10.1503,9.9315,9.7956,9.7327,9.7957,9.7459,9.6497,9.7791,9.7426,9.6264,9.7764,9.7657,9.6729,0.0,0.0,6.2421,6.28,6.3936,6.4833,6.4914,6.5813,6.6568,6.6691,6.723,6.7682,6.7837,6.8315,6.8615,6.8615,7.1038,7.3791,7.6634,7.9567,8.2769,8.6299,8.7407,8.7856,8.7706,8.9142,8.9651,8.9082,9.1057,9.2753,9.4179,9.4099,9.5337,9.7561,9.753,9.8421,9.9968,10.0687,10.1384,10.2031,10.16,10.1236,10.0805,9.9347,9.7558,9.5703,9.4842,9.2987,0.0,9.0834,8.9873,8.8846,8.9277,8.8647,8.7289,8.5268,8.338,8.1591,7.9802,7.9107,7.9173,8.0531,8.1624,8.3049,8.5765,8.7024,8.815,9.0039,9.2424,9.4544,9.5836,9.7757,9.9347,9.9944,10.1302,10.2296,10.2527,10.3124,10.3588,10.3422,10.3422,10.3786,10.4581,10.5078,10.5178,10.4714,10.5674,10.6105,10.5807,10.6403,10.7099,10.7993,10.7596,10.7596,10.7993,10.7411,10.6681,10.5774,10.4558,10.3932,10.3488,10.1302,9.9811,9.885,9.7956,9.7393,9.7128,9.7426,9.7426,9.7327,9.7923,9.779,9.7227,9.6688,9.6186,9.5625,0.0,0.0,0.0,6.3022,6.4184,6.496,6.4773,6.5621,6.6257,6.6382,6.6506,6.6661,6.6876,6.6937,6.6999,6.6999,6.9064,7.1996,7.5766,7.8849,8.2439,8.6689,8.7107,8.7556,8.8245,8.9052,8.9501,8.9501,9.1297,9.2685,9.376,9.3679,9.4586,9.6134,9.6134,9.7027,9.8702,9.9855,10.079,10.1466,10.1726,10.1236,10.0308,9.8685,9.6233,9.3583,9.2689,9.0801,8.8647,8.8117,8.7289,8.666,8.762,8.7488,8.6593,8.4738,8.3016,8.1492,8.0631,8.0697,8.1326,8.2684,8.4506,8.6494,8.8349,8.9873,9.1562,9.3749,9.5637,9.7459,9.9248,10.0407,10.1103,10.1103,10.2296,10.3024,10.2329,10.2826,10.2925,10.2031,10.16,10.1799,10.3091,10.4383,10.4979,10.4383,10.5277,10.5906,10.6105,10.6304,10.69,10.7993,10.7496,10.7298,10.7397,10.6701,10.5906,10.5178,10.4217,10.3488,10.2892,10.0904,9.895,9.7095,9.7095,9.6995,9.683,9.7028,9.7293,9.7592,9.779,9.7757,9.736,9.5571,9.4908,9.471,0.0,0.0,0.0,0.0,6.4125,6.5094,6.5446,6.5538,6.5664,6.5945,6.5727,6.579,6.6444,6.6814,6.6999,6.6999,6.8256,7.047,7.3762,7.7682,8.1332,8.4654,8.7257,8.8933,8.9591,9.0878,9.1536,9.1536,9.2853,9.3182,9.2638,9.2638,9.3502,9.5054,9.5104,9.6066,9.7774,10.0183,10.0368,9.9281,10.1602,10.0805,9.8022,9.5869,9.3219,9.0734,9.1397,8.8415,8.4208,8.4175,8.3215,8.2254,8.3711,8.5103,8.5633,8.2751,8.0366,7.8809,7.9471,8.0697,8.2453,8.5335,8.7123,8.8979,9.1861,9.3683,9.5372,9.7558,9.8618,9.9414,10.0109,10.0308,10.0308,10.0308,10.16,10.2329,10.1534,10.2097,10.2031,10.0507,9.9149,9.8618,0.0,10.1997,10.3687,10.3588,10.4979,10.6105,10.6801,10.753,10.7993,10.7993,10.7993,10.7298,10.5873,10.5111,10.4383,10.3588,10.2196,10.1501,10.1434,9.9977,9.8519,9.7095,9.7095,9.6697,9.6101,9.683,9.6697,9.6134,9.6863,9.6697,9.5968,9.5173,9.4908,9.4873,0.0,0.0,0.0,0.0,0.0,6.3927,6.4425,6.5086,6.5538,6.5664,6.5978,0.0,0.0,0.0,0.0,0.0,6.8226,7.0021,7.2415,7.5886,7.8908,8.1362,8.4414,8.6359,8.7018,8.8753,8.9681,8.9681,9.0549,9.0638,9.001,9.0459,9.0969,9.1514,9.2391,9.3709,9.5506,9.7805,9.8843,9.9014,9.9424,9.8751,9.7128,9.3914,9.0602,8.7422,0.0,8.338,8.1028,8.0531,7.9703,7.914,8.0631,8.1094,8.0697,7.8742,7.9007,8.0134,8.0863,8.285,8.5401,8.8316,9.0138,9.1728,9.3716,9.567,9.7293,9.8022,9.8387,9.8486,9.8221,9.8585,9.8751,9.8254,10.0606,10.216,10.1534,10.2031,10.1434,9.8519,9.8188,9.7492,0.0,0.0,0.0,10.2031,10.3488,10.4416,10.4681,10.5873,10.6503,10.6503,10.5608,10.5078,10.5078,10.3886,10.3124,10.2892,10.1401,9.9944,9.8552,9.8055,9.7293,9.6366,9.6366,9.6532,9.673,9.6465,9.6532,9.6664,9.5935,9.5505,9.5173,9.4445,9.355,9.2722,0.0,0.0,0.0,0.0,0.0,0.0,0.0,0.0,0.0,0.0,0.0,0.0,0.0,0.0,0.0,0.0,0.0,6.8877,7.0739,7.3492,7.5946,7.7981,8.0524,8.232,8.3217,8.4474,8.5372,8.5881,8.6748,8.7107,8.6928,8.7826,8.8364,8.8634,8.9471,9.0605,9.1999,9.3825,9.4498,9.4442,9.4893,9.4058,9.2247,8.9552,8.6395,0.0,8.0697,7.8908,7.7616,7.7119,7.6655,7.6424,7.7384,7.7351,7.692,7.6755,7.8411,8.0697,8.2486,8.5302,8.8415,9.1364,9.3186,9.4643,9.6134,9.736,9.8254,9.8519,9.7724,9.6863,9.6399,9.5836,9.5471,9.5505,9.7492,9.9215,9.9778,10.0043,9.9414,9.736,9.7028,9.6266,9.4378,9.5902,0.0,10.0109,10.1799,10.2991,10.3588,10.4482,10.5111,10.5376,10.4184,10.3687,10.3919,10.2726,10.1898,10.1302,9.9877,9.8453,9.7095,9.683,9.6465,9.6001,9.6001,9.6266,9.6664,9.62,9.6134,9.6233,9.5273,9.4743,9.4378,9.3384,9.2391,9.1662,0.0,0.0,0.0,0.0,0.0,0.0,0.0,0.0,0.0,0.0,0.0,0.0,0.0,0.0,0.0,0.0,0.0,0.0,6.8824,7.0709,7.2624,7.451,7.5916,7.7263,7.8519,7.8609,7.9297,8.0614,8.1811,8.2739,8.3397,8.4654,8.5581,8.621,8.627,8.6629,8.7277,8.8364,8.7705,8.6174,8.8183,8.708,8.4085,8.3029,8.0907,7.8279,7.6821,7.5397,7.4221,7.4221,7.4255,7.4288,7.4321,7.4354,7.4767,7.6954,7.8676,8.0697,8.4374,8.8018,9.143,9.4345,9.6134,9.7525,9.885,9.8618,9.8287,9.8883,9.6697,9.4643,9.4478,9.2225,9.0867,9.2358,9.2755,9.3948,9.6863,9.6697,9.6498,9.7028,9.5902,9.5008,9.4908,9.4975,0.0,9.7956,0.0,10.1997,10.3389,10.3588,10.3886,10.4581,10.3886,10.3091,10.2428,10.1633,10.0507,9.9149,9.7757,9.7095,9.7028,9.6333,9.6001,9.6001,9.5968,9.5968,9.6001,9.5935,9.5471,9.4842,9.4743,9.4279,9.3451,9.1993,9.143,9.143,0.0,0.0,0.0,0.0,0.0,0.0,0.0,0.0,0.0,0.0,0.0,0.0,0.0,0.0,0.0,0.0,0.0,0.0,6.7478,6.9363,7.047,7.05,7.3163,7.4809,7.5138,7.6125,7.7023,7.7831,7.7711,7.7981,7.8609,7.8938,7.9447,8.0075,8.0584,8.0913,8.1181,8.2653,8.293,8.252,8.2646,8.2737,8.2465,8.0001,7.8529,7.7583,7.6655,7.5397,7.4221,7.4221,7.4586,7.5098,7.5595,7.6125,7.702,7.9206,8.1691,8.4506,8.815,9.1397,9.4345,9.673,9.7625,9.7857,9.7691,9.7525,9.6962,9.5505,9.3285,9.0966,8.878,8.8647,8.9343,9.0834,9.3848,9.6797,9.9149,9.9811,9.9314,9.736,9.7227,9.6697,9.5074,9.5902,9.6763,0.0,9.938,10.1004,10.1898,10.2991,10.3389,10.3091,10.2329,10.16,10.0904,9.9612,9.8552,9.7658,9.7293,9.683,9.6266,9.6101,9.6001,9.5968,9.5438,9.5505,9.5902,9.4809,9.4246,9.3981,9.2854,9.1993,9.1231,9.0304,8.9608,8.9144,0.0,0.0,0.0,0.0,0.0,0.0,0.0,0.0,0.0,0.0,0.0,0.0,0.0,0.0,0.0,0.0,0.0,0.0,0.0,6.8046,6.8375,6.7717,6.9453,7.029,7.0021,7.0739,7.1727,7.2954,7.2595,7.3043,7.424,7.424,7.4569,7.5228,7.5916,7.6365,7.6704,7.7615,7.766,0.0,0.0,7.6642,7.6665,7.579,7.531,7.5233,7.5341,7.4867,7.4354,7.5264,7.6092,7.6887,7.7914,7.9173,8.0664,8.2552,8.5169,8.815,9.1132,9.4113,9.6697,9.8254,9.8652,9.8287,9.6929,9.6134,9.4842,9.1993,8.9674,8.7455,8.5169,8.5401,8.6527,8.8316,9.1496,9.4842,9.7989,9.8784,9.8784,9.8122,9.842,9.8188,9.6929,9.7558,9.8188,0.0,9.9347,10.0209,10.0904,10.1699,10.2097,10.2031,10.1004,10.0109,9.938,9.8254,9.7492,9.7095,9.6763,9.6399,9.6001,9.6001,9.6001,9.5968,0.0,9.514,9.5438,9.4279,9.3418,9.2722,9.1894,9.0933,8.9939,8.921,8.868,8.8283,0.0,0.0,0.0,0.0,0.0,0.0,0.0,0.0,0.0,0.0,6.5227,6.5387,0.0,0.0,0.0,0.0,0.0,0.0,0.0,0.0,6.661,6.6041,6.5922,6.5562,6.4904,6.4814,6.5652,6.7448,6.7358,6.8286,7.0141,7.0021,7.035,7.1009,7.1607,7.2235,7.2834,7.2834,7.2235,7.1258,7.1102,7.0524,6.9865,0.0,7.2111,7.2538,7.3782,7.4221,7.4586,7.692,7.8212,7.9107,8.0763,8.2784,8.4904,8.656,8.8879,9.1463,9.3749,9.63,9.8486,9.9248,9.9281,9.8552,9.6366,9.4577,9.2324,8.8647,8.6262,8.4341,8.2751,8.2718,8.3678,8.6063,8.8283,9.1264,9.5803,9.6432,9.7194,9.9182,9.9414,9.9447,9.9546,9.948,9.9712,10.0407,9.9811,9.9679,10.0308,10.0308,10.0606,10.1103,9.9745,9.8685,9.8022,9.7327,9.6962,9.6962,9.63,9.6001,9.6001,9.6001,9.5968,9.5803,9.5074,9.471,9.4544,9.3815,9.2623,9.1297,9.1297,9.0403,8.9045,8.8415,8.8184,8.8084,0.0,0.0,0.0,0.0,0.0,0.0,0.0,0.0,0.0,0.0,6.4818,6.489,0.0,0.0,0.0,0.0,0.0,0.0,0.0,0.0,0.0,6.6011,6.5503,6.4874,6.4186,6.3677,6.3827,6.4695,6.4186,6.4665,6.6041,6.5473,6.5562,6.6221,6.634,6.6759,6.7388,6.7388,6.7567,6.7807,6.7814,6.8273,6.901,6.9321,0.0,0.0,7.3782,7.4221,7.4701,7.808,7.9703,8.0796,8.348,8.5832,8.8084,9.0767,9.2358,9.3848,9.6664,9.8221,9.9248,9.9944,9.9248,9.779,9.5604,9.302,9.0072,8.6428,8.4407,8.2651,8.0564,8.1691,8.401,8.7389,8.9774,9.2954,9.7989,9.8718,9.9049,10.001,10.0109,10.0407,10.1004,10.0507,0.0,0.0,10.0507,10.0209,10.0308,10.0308,10.0109,9.9679,9.8254,9.7426,9.7293,9.6565,9.62,9.62,9.6068,9.6001,9.6001,9.6001,9.567,9.5041,9.4312,0.0,9.302,9.2291,9.1099,8.9807,8.9807,8.8912,8.762,8.7488,8.7455,8.7455,0.0,0.0,0.0,0.0,0.0,0.0,0.0,6.3407,6.3848,6.5257,6.5646,6.5513,6.4784,6.4455,6.4381,0.0,0.0,0.0,0.0,0.0,0.0,6.5503,6.5203,6.4545,6.3528,6.3228,6.3378,6.4006,0.0,6.3558,6.4485,6.3827,6.3707,6.4036,6.4725,6.5203,6.5533,6.6221,6.67,6.6999,6.6999,6.7335,6.7939,6.8562,0.0,0.0,7.3044,7.3285,7.3815,7.7272,7.9288,8.109,8.5424,8.8813,9.1529,9.3318,9.5173,9.7028,9.8817,9.9811,10.0407,10.0308,9.8652,9.6167,9.2821,9.0072,8.7123,8.3082,8.1691,8.0763,7.9306,8.0863,8.3148,8.5666,8.7919,9.0999,9.577,9.6763,9.7691,9.9546,10.0109,10.0606,10.1335,10.0739,10.0606,10.1335,10.0407,9.9944,10.0308,9.9977,9.9281,9.8188,9.7492,9.6929,9.6532,9.62,9.6001,9.6001,9.6001,9.6001,9.6001,9.6001,9.5803,9.5405,9.4279,0.0,9.2589,9.1496,9.0171,8.8846,8.8846,8.8184,8.7289,8.7289,8.7289,8.7289,0.0,0.0,0.0,0.0,0.0,0.0,6.3685,6.379,6.4322,6.62,6.6616,6.6158,6.4513,6.4243,6.4082,0.0,0.0,0.0,0.0,0.0,0.0,0.0,0.0,0.0,6.3288,0.0,0.0,6.3797,6.3318,0.0,0.0,0.0,0.0,0.0,6.4306,6.4904,6.5114,6.6281,6.6849,0.0,0.0,6.6999,6.7091,0.0,0.0,0.0,0.0,7.2538,7.3266,7.634,7.8409,8.0525,8.5373,8.9873,9.3418,9.4014,9.6366,9.8983,9.9844,10.0606,10.1004,10.0308,9.779,9.4445,9.0337,8.7355,8.4308,8.0233,7.9318,7.9173,7.8411,7.9968,8.1856,8.3513,8.5467,8.8349,9.2722,9.4246,9.5935,9.8718,9.9778,10.0606,10.1335,10.0739,0.0,10.1335,10.0076,9.9447,9.9844,9.9347,9.8453,9.7161,9.6962,9.6598,9.6001,9.6001,9.6001,9.6001,9.6001,9.6001,9.6001,9.5836,9.567,9.5438,9.3981,0.0,0.0,9.0834,8.9509,8.8316,8.8316,8.7885,8.7289,8.7289,8.7289,8.7289,0.0,0.0,0.0,0.0,0.0,0.0,6.3685,6.398,6.4978,6.7808,6.6912,6.5857,6.5504,6.5702,6.5123,0.0,0.0,0.0,0.0,0.0,0.0,0.0,0.0,0.0,0.0,0.0,0.0,6.3169,6.3109,0.0,0.0,0.0,0.0,0.0,0.0,6.4455,6.5084,6.5802,0.0,0.0,0.0,0.0,0.0,0.0,0.0,0.0,0.0,7.3096,7.44,7.6636,7.794,7.9077,8.1569,8.6726,9.1794,9.1861,9.4478,9.7625,9.8983,9.9877,10.0209,9.9546,9.6664,9.3186,9.0105,8.6196,8.232,7.9239,7.861,7.8411,7.7649,7.8776,8.0531,8.2651,8.4308,8.6825,9.1165,9.3583,9.5736,9.7989,9.948,10.0606,10.1335,10.0739,10.0606,10.1335,10.0076,9.9016,9.842,9.832,9.7923,9.7128,9.6465,9.6068,9.6001,9.6001,9.6001,9.6001,9.6001,9.6001,9.6001,9.5306,9.4643,9.3914,9.2424,0.0,0.0,8.984,8.9045,8.8316,8.8316,8.7885,8.7289,8.7289,8.7289,8.7289,0.0,0.0,0.0,0.0,0.0,0.0,6.3685,6.3719,6.445,6.7138,6.7436,6.7116,6.6475,6.6358,6.529,6.2735,0.0,0.0,0.0,0.0,0.0,0.0,0.0,0.0,0.0,0.0,6.3079,6.3079,6.3079,0.0,0.0,0.0,0.0,0.0,0.0,6.4395,6.5024,6.5742,0.0,0.0,0.0,0.0,0.0,0.0,0.0,0.0,0.0,0.0,7.2401,7.4719,7.5316,7.5358,7.6782,8.0796,8.5732,8.9244,9.2258,9.514,9.8387,9.9778,10.0109,9.9447,9.6167,9.2258,8.8879,8.507,8.1525,7.9041,7.8511,7.8444,7.8146,7.8577,7.9405,8.073,8.1061,8.2519,8.6461,8.8184,9.0635,9.5008,9.683,9.8519,0.0,0.0,10.0109,9.9513,9.9347,9.8585,9.6962,9.7293,9.7194,9.6465,9.6167,9.6001,9.6001,9.6001,9.6001,9.6001,9.6001,9.6001,9.5968,9.524,9.4511,9.3716,9.2225,0.0,0.0,8.9045,8.8316,8.7687,8.7687,8.7521,8.7289,8.7289,8.7289,8.7289,0.0,0.0,0.0,0.0,0.0,6.1774,6.3486,6.3545,6.4275,6.6788,6.7619,6.7794,6.74,6.6458,6.5074,6.3117,6.244,0.0,0.0,0.0,0.0,0.0,0.0,0.0,0.0,0.0,6.3079,6.3079,6.3079,6.3079,0.0,0.0,6.3079,6.3109,0.0,0.0,0.0,0.0,0.0,0.0,0.0,0.0,0.0,0.0,0.0,0.0,0.0,0.0,0.0,0.0,0.0,7.3347,7.3976,7.6291,7.9836,8.5235,8.9144,9.2556,9.63,9.832,9.9248,9.8751,9.5306,9.1231,8.8018,8.4275,8.0829,7.8643,7.8378,7.8444,7.8246,7.8378,7.8709,7.9206,7.9041,7.9968,8.3215,8.4506,8.6958,9.1894,9.3616,9.5604,9.8751,9.9612,9.948,9.8254,9.8453,0.0,9.6101,9.6498,9.6532,9.6035,9.6001,9.6001,9.6001,9.6001,9.6001,9.6001,9.6001,9.5902,9.5637,9.4676,9.3848,9.3053,9.1364,0.0,0.0,8.8316,8.772,8.7289,8.7289,8.7289,8.7289,8.7289,8.7289,8.7289,0.0,0.0,0.0,0.0,0.0,6.1629,6.2906,6.3632,6.4833,6.7201,6.7174,6.7276,6.8247,6.6089,6.4663,6.4943,6.3236,0.0,0.0,0.0,0.0,0.0,0.0,0.0,0.0,0.0,6.3079,6.3079,6.3079,6.3079,6.3079,6.3079,6.3079,6.3109,0.0,0.0,0.0,0.0,0.0,0.0,0.0,0.0,6.6999,0.0,0.0,0.0,0.0,0.0,0.0,0.0,0.0,0.0,0.0,7.4255,7.515,7.9504,8.4904,8.9939,9.2159,9.4908,9.7128,9.7128,9.3815,8.9972,8.7786,8.3877,8.0067,7.7881,7.8014,7.8312,7.755,7.8014,7.8511,7.8544,7.914,8.0399,8.2618,8.4175,8.6196,8.9111,9.0138,9.2026,9.5703,9.8022,9.8983,9.8221,9.7525,0.0,9.6035,9.6001,9.6001,9.6001,9.6001,9.6001,9.6001,9.6001,9.6001,9.6001,9.6001,9.5637,9.4875,9.3384,9.2291,0.0,0.0,0.0,0.0,8.7587,8.7289,8.7289,8.7289,8.7289,8.7289,8.7289,8.7289,8.7289,0.0,0.0,0.0,0.0,0.0,0.0,6.2296,6.2587,6.3316,6.4891,6.5002,6.5344,6.6549,6.4993,6.4071,6.4605,6.3116,0.0,0.0,0.0,0.0,0.0,0.0,0.0,0.0,6.3079,6.3288,6.3707,6.3707,6.3707,6.3707,6.3707,6.3498,6.3079,6.3288,6.3588,0.0,0.0,0.0,0.0,0.0,6.64,6.6999,0.0,0.0,0.0,0.0,0.0,0.0,0.0,0.0,0.0,0.0,0.0,0.0,7.6424,8.0067,8.4043,8.6759,8.9277,9.0999,9.0502,8.8945,8.6991,8.4771,8.2419,8.02,7.8511,7.8345,7.8444,7.8212,7.8345,7.8709,7.9206,7.9471,8.0034,8.1227,8.3115,8.56,8.9012,9.3616,9.6763,0.0,0.0,9.8784,9.7525,9.7227,0.0,9.6035,9.6001,9.6001,9.6001,9.6498,9.6532,9.6001,9.6498,9.6498,9.6001,9.5505,9.514,9.4842,9.2854,9.1529,0.0,0.0,0.0,0.0,8.7355,8.7289,8.7289,8.7289,8.7289,8.7289,8.7289,8.7289,8.7289,0.0,0.0,0.0,0.0,0.0,0.0,6.1687,6.1948,6.2383,6.3196,6.3516,6.4154,6.5589,6.433,6.3847,6.4823,6.3296,0.0,0.0,0.0,0.0,0.0,0.0,0.0,6.3408,6.3438,6.3857,6.4755,6.4994,6.4994,6.4755,6.5024,6.4515,6.3438,6.3438,6.3498,0.0,0.0,0.0,0.0,6.5652,6.6041,6.661,0.0,0.0,0.0,0.0,0.0,0.0,0.0,0.0,0.0,0.0,0.0,0.0,0.0,7.6655,7.9405,8.2916,8.5434,8.7123,8.7256,8.6295,8.4937,8.3281,8.1558,7.9968,7.8776,7.8511,7.8511,7.8511,7.8511,7.8676,7.914,7.9152,7.9571,8.0564,8.2121,8.4506,8.8184,9.3716,0.0,0.0,9.7691,9.8088,9.7194,0.0,0.0,9.6035,9.6001,9.6001,9.6001,9.6465,9.6465,9.6001,9.62,9.6035,9.5571,9.4544,9.3914,9.3583,9.1662,9.037,0.0,0.0,0.0,0.0,8.7289,8.7289,8.7289,8.7289,8.7289,8.7256,8.6958,8.6858,8.6825,0.0,0.0,0.0,0.0,0.0,0.0,0.0,6.1658,6.2035,6.2096,6.2619,6.3524,6.5061,6.3967,6.3651,6.5077,6.3654,0.0,0.0,0.0,0.0,0.0,0.0,0.0,6.3977,6.3947,6.4605,6.6011,6.658,6.655,6.6011,6.664,6.5862,6.4006,6.4006,6.3677,6.3169,6.3767,6.4425,6.5084,6.4994,6.5413,0.0,0.0,0.0,0.0,0.0,0.0,0.0,0.0,0.0,0.0,0.0,0.0,0.0,0.0,0.0,0.0,0.0,8.2883,8.4805,8.6163,8.5037,8.3446,8.2751,8.1061,0.0,7.8676,7.8511,7.8511,7.8511,7.8511,7.8544,7.8577,7.861,7.9107,8.0564,8.1658,8.3645,8.7157,9.1397,0.0,9.3815,9.5803,9.7095,9.7028,0.0,0.0,9.6001,9.6001,9.5968,9.5935,9.5935,9.5935,9.5935,9.524,9.4842,9.4743,9.3285,9.2225,9.1463,9.0006,8.8979,0.0,0.0,0.0,0.0,8.7289,8.7289,8.7256,8.7223,8.719,8.709,8.6362,8.6097,8.5997,0.0,0.0,0.0,0.0,0.0,0.0,0.0,0.0,0.0,0.0,6.1844,6.2109,6.2491,6.2617,6.2647,0.0,0.0,0.0,0.0,0.0,0.0,0.0,0.0,0.0,6.3977,6.3528,6.4186,6.6011,6.5652,6.5652,6.6011,6.6161,6.5443,6.4006,6.4006,6.3917,6.3797,6.3947,6.4695,6.5742,6.5233,6.5413,0.0,0.0,0.0,0.0,6.902,7.0379,0.0,0.0,0.0,0.0,0.0,0.0,0.0,0.0,7.4354,7.4818,7.639,0.0,7.8444,7.8809,7.9339,7.9769,0.0,7.9604,7.9351,7.8676,7.8511,7.8511,7.8511,7.8511,7.8709,7.9272,7.9318,7.9869,8.1326,8.5037,8.8349,9.0337,9.3981,9.567,9.3948,9.5803,9.6863,9.63,0.0,9.6001,9.6001,9.6001,9.5736,9.5173,9.5173,9.5173,9.5173,9.5008,9.4312,9.3186,9.2291,9.1463,9.0734,8.9244,8.8482,0.0,0.0,0.0,8.7289,8.7289,8.7289,8.7223,8.666,8.6487,8.6328,8.5633,8.5368,8.5335,0.0,0.0,0.0,0.0,0.0,0.0,0.0,0.0,0.0,0.0,6.1494,6.1673,6.1791,6.2292,6.2556,0.0,0.0,0.0,0.0,0.0,0.0,0.0,6.3079,6.3378,6.3977,6.3977,6.4784,6.646,6.6729,6.6879,6.6909,6.7238,6.634,6.4455,6.3857,6.3588,6.3617,6.4216,6.4904,6.5533,6.5173,0.0,0.0,0.0,0.0,0.0,6.8627,6.9999,0.0,7.3389,7.4221,7.4221,0.0,0.0,0.0,0.0,7.4221,7.4321,7.4719,7.5529,7.639,7.6722,7.7417,7.8113,7.8444,7.8577,7.861,7.8544,7.8511,7.8511,7.8511,7.8511,7.8776,7.9504,7.9583,8.0366,8.2519,8.6063,8.921,9.1331,9.3948,9.5372,0.0,9.5902,9.6432,0.0,0.0,9.6001,9.6001,9.567,9.5306,9.4908,9.4246,9.4047,9.4378,9.3716,9.2987,9.2159,9.0767,8.9873,8.9475,8.8349,8.7852,0.0,0.0,0.0,8.7289,8.7289,8.709,8.6726,8.6328,8.5964,8.56,8.4871,8.4606,8.4573,0.0,0.0,0.0,0.0,0.0,0.0,0.0,0.0,0.0,0.0,0.0,0.0,0.0,0.0,0.0,0.0,0.0,0.0,0.0,0.0,0.0,0.0,6.3079,6.3408,6.4126,6.4545,6.5473,6.6999,6.8136,6.8495,6.8136,6.8914,6.7867,6.5263,6.4066,6.3408,6.3288,6.4395,6.4934,6.5024,6.4904,0.0,0.0,0.0,0.0,0.0,0.0,0.0,0.0,7.3272,7.397,7.3803,7.4138,0.0,0.0,0.0,0.0,0.0,7.4354,7.5397,7.6589,7.6987,7.7185,7.745,7.8179,7.7881,7.7616,7.8378,7.8511,7.8511,7.8511,7.861,7.8908,7.9483,7.9902,8.1194,8.4241,8.6461,8.878,9.143,9.3153,0.0,9.5571,9.5869,9.6001,0.0,0.0,9.5836,9.5836,9.5041,9.4577,9.4577,9.3119,9.2656,9.3285,9.2059,9.1297,9.1066,8.921,8.825,8.815,8.7554,8.7289,8.7289,0.0,0.0,8.709,8.709,8.666,8.5997,8.5898,8.5467,8.4838,8.4109,8.3844,8.3745,0.0,0.0,0.0,0.0,0.0,0.0,0.0,0.0,0.0,0.0,0.0,0.0,0.0,0.0,0.0,0.0,0.0,0.0,0.0,0.0,0.0,6.3079,6.3079,6.3647,6.4844,6.3887,6.4575,6.6999,6.7208,6.7837,6.8854,7.0051,6.9213,6.667,6.5892,6.4934,6.3857,6.4066,6.4485,6.4934,6.4395,0.0,0.0,0.0,0.0,0.0,0.0,0.0,0.0,7.2671,7.3149,7.2105,7.3686,0.0,0.0,0.0,0.0,0.0,7.4984,7.6159,7.6987,7.5894,7.6059,7.6689,7.7417,7.7484,7.7616,7.8378,7.8511,7.8511,7.8511,7.9041,7.945,7.9549,8.1194,8.3612,8.7157,0.0,9.0635,9.2324,0.0,9.5273,9.4246,9.5273,0.0,0.0,0.0,9.5074,9.5074,9.3782,9.302,9.302,9.1629,9.09,9.1032,9.0801,9.0039,8.8813,8.8482,8.7985,8.7422,8.7322,8.7289,8.7289,0.0,8.6925,8.6328,8.6328,8.5898,8.5202,8.4573,8.4275,8.4076,8.3347,8.3082,8.3049,0.0,0.0,0.0,0.0,0.0,0.0,0.0,0.0,0.0,0.0,0.0,0.0,0.0,0.0,0.0,0.0,0.0,0.0,0.0,6.3079,6.3228,6.3558,6.3588,6.3857,6.4455,6.4605,6.5592,6.7508,6.8256,6.9273,7.056,7.0081,6.8854,6.6939,6.5922,6.4934,6.4006,6.4395,6.4755,6.4964,0.0,0.0,0.0,0.0,0.0,0.0,0.0,0.0,0.0,0.0,7.2273,7.1669,7.314,0.0,0.0,0.0,0.0,0.0,7.4619,7.5728,7.6655,7.5993,7.6689,7.7583,7.7947,7.7715,7.7616,7.8378,7.8511,7.8643,7.9041,7.9703,8.073,8.232,8.4076,8.5964,8.8018,8.9244,9.0602,0.0,0.0,9.4842,9.4975,9.5604,0.0,0.0,0.0,0.0,9.3749,9.2689,9.2093,9.2093,9.0668,8.9939,8.9939,8.9542,8.8979,8.8316,8.7919,8.7587,8.7289,8.7289,8.7289,8.7256,0.0,8.6494,8.613,8.5765,8.5169,8.4473,8.4142,8.3778,8.338,8.3016,8.2883,8.2883,0.0,0.0,0.0,0.0,0.0,0.0,0.0,0.0,0.0,0.0,0.0,0.0,0.0,0.0,0.0,0.0,0.0,0.0,0.0,6.3079,6.3348,6.3977,6.4006,6.4216,6.4695,6.5712,6.7029,6.8675,7.0021,7.1398,7.2774,7.0829,6.9123,6.7627,6.6161,6.5024,6.4276,6.4635,6.4874,6.4994,0.0,0.0,0.0,0.0,0.0,0.0,0.0,0.0,0.0,0.0,0.0,0.0,0.0,0.0,0.0,7.4221,7.4221,7.4288,7.4568,7.5595,7.6622,7.6788,7.755,7.8411,7.8908,7.8444,7.8246,7.9339,7.9405,7.9471,8.0034,8.0863,8.232,8.4937,8.656,8.7885,8.8945,8.9575,9.0668,9.2722,9.3451,9.4246,9.5372,0.0,0.0,0.0,0.0,0.0,9.2523,9.1562,9.1066,9.1066,8.9674,8.8979,8.9144,8.8449,8.8084,8.8051,8.7521,8.7289,8.7289,8.7289,8.7289,8.7223,8.6494,8.6063,8.5865,8.5136,8.4407,8.3745,8.3745,8.3413,8.2883,8.2883,8.2883,8.2883,0.0,0.0,0.0,0.0,0.0,0.0,0.0,0.0,0.0,0.0,0.0,0.0,0.0,0.0,0.0,0.0,0.0,0.0,0.0,6.3079,6.3348,6.3977,6.4006,6.4874,6.6729,6.6879,6.8166,7.0679,7.2026,7.3702,7.5587,7.3582,7.1607,6.9692,6.7717,6.6131,6.4904,6.4336,6.4455,6.5024,6.4964,0.0,0.0,0.0,0.0,0.0,0.0,0.0,0.0,0.0,0.0,0.0,0.0,0.0,7.4221,7.4221,7.4221,7.452,7.5794,7.6722,7.7517,7.8179,7.7914,7.8047,8.0067,7.9968,8.0067,8.2154,8.2022,8.1591,8.1624,8.2784,8.4275,8.5832,8.7289,8.8979,9.1066,0.0,9.1993,9.3517,9.3749,9.3848,9.3948,0.0,0.0,0.0,0.0,0.0,9.1728,9.0337,8.9575,8.9575,8.8184,8.7753,8.8382,8.7687,8.7355,8.7355,8.7289,8.7289,8.7289,8.7289,8.7289,8.7223,8.6494,8.5798,8.5136,8.4374,8.3645,8.2983,8.2983,8.295,8.2883,8.2883,8.2883,8.2883,0.0,0.0,0.0,0.0,0.0,0.0,0.0,0.0,0.0,0.0,0.0,0.0,0.0,0.0,0.0,0.0,0.0,0.0,6.248,6.2839,6.3348,6.3977,6.4425,6.5383,6.6969,6.7807,6.9931,7.3373,7.5108,7.5497,7.4629,7.3043,7.0799,6.8076,6.7328,6.6251,6.5054,6.5173,6.5413,6.5592,6.5203,6.4874,0.0,0.0,0.0,0.0,0.0,0.0,0.0,0.0,7.0365,7.0629,7.2315,7.3442,7.4221,7.4221,7.4221,7.4354,7.4833,7.5827,7.692,7.7649,7.798,7.8676,8.0863,8.1525,8.1889,8.2718,8.3745,8.4374,8.3943,8.507,8.6362,8.7355,8.8714,9.0304,9.2026,9.2258,9.2656,9.3683,9.3782,9.3782,0.0,0.0,0.0,0.0,0.0,0.0,9.0337,8.9707,8.921,8.8747,8.7786,8.762,8.8316,8.762,8.7289,8.7289,8.7289,8.7289,8.7289,8.7289,8.7024,8.656,8.5832,8.5103,8.4374,8.3612,8.3148,8.2883,8.2883,8.2883,8.2883,8.2883,8.2883,8.2983,0.0,0.0,0.0,0.0,0.0,0.0,0.0,0.0,0.0,0.0,0.0,0.0,0.0,0.0,0.0,0.0,0.0,0.0,6.2121,6.272,6.3348,6.3977,6.4665,6.5742,6.7268,6.8824,7.1248,7.4569,7.6754,7.6574,7.418,7.2654,7.062,6.8196,6.7148,6.652,6.6281,6.6071,6.6131,6.6281,6.5832,6.5533,0.0,0.0,0.0,0.0,0.0,0.0,0.0,0.0,6.9875,7.1004,7.2002,7.3177,7.4221,7.4221,7.4221,7.4255,7.452,7.5397,7.649,7.7219,7.8146,7.9571,8.2221,8.3049,8.3579,8.4738,8.5798,8.6295,8.5567,8.6461,8.7488,8.8184,8.9741,9.1198,9.2192,9.2324,9.2523,9.3053,9.3086,0.0,0.0,0.0,0.0,0.0,0.0,0.0,0.0,8.921,8.8714,8.8018,8.7521,8.7488,8.7985,8.7521,8.7289,8.7289,8.7289,8.7289,8.7256,8.7024,8.666,8.613,8.5169,8.4473,8.3943,8.3215,8.2883,8.2883,8.2883,8.2883,8.2883,8.2883,8.2883,8.2983,0.0,0.0,0.0,0.0,0.0,0.0,0.0,0.0,0.0,0.0,0.0,0.0,0.0,0.0,0.0,0.0,0.0,0.0,6.2121,6.272,6.3348,6.3977,6.4665,6.5951,6.7897,6.9871,7.1876,7.3911,7.6514,7.6784,7.4809,7.2834,7.1547,7.0709,6.7478,6.7148,6.8854,6.6879,6.64,6.6999,6.6999,6.661,6.6011,0.0,0.0,0.0,0.0,0.0,0.0,0.0,6.9523,7.2117,7.2879,7.3608,7.4221,7.4221,7.4221,7.4387,7.5065,7.5761,7.649,7.7219,7.8544,8.0598,8.4275,8.454,8.5037,8.868,8.8283,8.7057,8.6328,8.6792,8.7521,8.8217,9.0138,9.1562,9.1596,9.1596,9.1596,9.1596,0.0,0.0,0.0,0.0,0.0,0.0,0.0,0.0,0.0,8.8714,8.7985,8.7289,8.7289,8.7289,8.7289,8.7289,8.7289,8.7289,8.7256,8.7256,8.7223,8.6494,8.6163,8.6063,8.4639,8.401,8.3943,8.3215,8.2883,8.2883,8.2883,8.2883,8.2883,8.2883,8.2883,8.2883,0.0,0.0,0.0,0.0,0.0,0.0,0.0,0.0,0.0,0.0,0.0,0.0,0.0,0.0,0.0,0.0,0.0,0.0,6.2121,6.272,6.3169,6.3348,6.4425,6.5293,6.5892,6.8764,7.1667,7.4569,7.6275,7.5407,7.2086,7.1966,7.056,6.8166,6.8585,6.8315,6.7597,6.7448,6.7238,6.6999,6.6999,6.6879,6.67,0.0,0.0,0.0,0.0,0.0,0.0,0.0,0.0,0.0,7.225,7.3541,7.4833,7.4387,7.4586,7.4951,7.4619,7.5032,7.5894,7.7119,7.8544,8.0598,8.4275,8.4937,8.5964,9.0072,8.9376,8.825,8.9078,8.8979,8.8846,8.9045,9.0072,9.0999,9.1529,9.1596,9.1596,0.0,0.0,0.0,0.0,0.0,0.0,0.0,0.0,0.0,0.0,8.8449,8.7985,8.7289,8.7289,8.7289,8.7289,8.7289,8.7289,8.7256,8.6759,8.6494,8.6494,8.6321,8.56,8.4639,8.4175,8.3711,8.3215,8.2983,8.2883,8.2883,8.2883,8.2883,8.2883,8.2883,8.2883,8.3049,0.0,0.0,0.0,0.0,0.0,0.0,0.0,0.0,0.0,0.0,6.3021,6.3079,0.0,0.0,0.0,0.0,0.0,0.0,6.2121,6.272,6.3199,6.3438,6.4455,6.5533,6.658,6.9064,7.1188,7.2894,7.451,7.3642,7.056,7.1457,7.0829,6.8974,7.0171,7.0051,6.8914,6.8824,6.8226,6.7388,6.7388,6.7717,6.8106,0.0,0.0,0.0,0.0,0.0,0.0,0.0,0.0,0.0,7.2448,7.3541,7.4818,7.4354,7.452,7.4785,7.4354,7.49,7.596,7.7119,7.8974,8.1359,8.4771,8.666,8.8415,9.1032,9.0304,8.9475,9.037,8.9906,8.9509,8.9807,9.0469,9.1099,9.1529,9.1596,0.0,0.0,0.0,0.0,0.0,0.0,0.0,0.0,0.0,0.0,0.0,8.8051,8.772,8.7289,8.7289,8.7289,8.7289,8.7289,8.7123,8.6825,8.6395,8.5865,8.5302,8.5302,8.4838,8.3976,8.3678,8.3314,8.2883,8.2883,8.2883,8.2883,8.2883,8.3082,8.3347,8.3347,8.3347,8.3513,0.0,0.0,6.1584,6.1585,0.0,0.0,0.0,0.0,0.0,0.0,6.2905,6.3079,0.0,0.0,0.0,0.0,0.0,0.0,0.0,6.275,6.3348,6.3977,6.4784,6.64,6.8944,7.0081,7.035,6.9752,7.1757,7.1727,6.9842,7.1218,7.1846,7.1787,7.1936,7.1906,7.1727,7.044,6.9153,6.7956,6.7956,6.8764,6.9842,6.8495,0.0,0.0,0.0,0.0,0.0,0.0,0.0,0.0,7.3111,7.3641,7.4321,7.4255,7.4255,7.4321,7.4321,7.5264,7.6523,7.7484,8.0034,8.3016,8.5832,8.9078,9.1496,9.1496,9.1032,9.0635,9.0701,9.0105,8.984,9.0502,9.1165,9.1562,9.1496,9.1529,0.0,0.0,0.0,0.0,0.0,0.0,0.0,0.0,0.0,0.0,0.0,8.7587,8.7223,8.709,8.7223,8.7256,8.719,8.719,8.6825,8.6163,8.603,8.5302,8.401,8.401,8.3976,8.3877,8.3181,8.2883,8.2883,8.2883,8.2883,8.2883,8.2883,8.3347,8.401,8.401,8.4043,8.4208,0.0,0.0,6.1318,6.1263,0.0,0.0,0.0,0.0,0.0,0.0,6.3079,0.0,0.0,0.0,0.0,0.0,0.0,0.0,0.0,6.2989,6.3348,6.3977,6.5652,6.7328,6.8974,6.8734,6.8525,6.8405,7.038,7.032,6.8465,7.0799,7.1607,7.1158,7.2235,7.2116,7.1038,6.9752,6.8734,6.7956,6.7956,6.8764,6.9842,6.8495,6.9029,0.0,0.0,0.0,0.0,0.0,0.0,0.0,7.3111,7.4005,7.4933,7.4387,7.4619,7.5032,7.5032,7.5662,7.6887,7.9372,8.3049,8.656,8.8316,8.9774,9.0767,9.0767,9.1066,9.1529,9.2126,9.1629,9.1165,9.1331,9.1496,9.1397,9.0834,0.0,0.0,0.0,0.0,0.0,0.0,0.0,0.0,0.0,0.0,0.0,8.666,8.7024,8.6759,8.56,8.6693,8.6991,8.6395,8.6395,8.6328,0.0,8.5003,8.4308,8.401,8.401,8.3678,8.3115,8.2983,8.2883,8.2883,8.2883,8.2883,8.2883,8.2883,8.3347,8.401,8.401,8.4374,8.497,0.0,0.0,0.0,0.0,0.0,0.0,0.0,0.0,0.0,0.0,0.0,0.0,0.0,0.0,0.0,0.0,6.3079,0.0,0.0,6.3079,6.3498,6.4455,6.64,6.7657,6.8016,6.7986,6.7807,6.7508,6.8525,6.8675,6.8016,7.0021,7.1278,7.1906,7.2924,7.2624,7.1338,7.0679,6.9632,6.8495,6.8794,6.9722,7.0709,6.9093,6.9606,7.1075,7.0085,0.0,0.0,0.0,0.0,0.0,0.0,0.0,7.4719,7.4321,7.4752,7.5264,7.5264,7.6291,7.8146,8.1459,8.4805,8.7654,8.9078,8.9972,9.0602,9.0966,9.1331,9.1695,9.2093,9.1828,9.1596,9.1596,9.1297,9.0933,0.0,0.0,0.0,0.0,0.0,0.0,0.0,0.0,0.0,0.0,0.0,8.6428,8.5699,8.603,8.5898,8.5136,8.6163,8.6395,8.5666,8.5997,8.5832,8.5136,8.4374,8.3811,8.348,8.348,8.3248,8.2916,8.3281,8.3446,8.3446,8.3446,8.3446,8.338,8.3049,8.3579,8.454,8.454,8.5003,8.5732,0.0,0.0,0.0,0.0,0.0,0.0,0.0,0.0,0.0,0.0,0.0,0.0,0.0,0.0,6.3079,0.0,0.0,0.0,0.0,0.0,0.0,6.5144,6.6879,6.7657,6.7358,6.7747,6.7717,6.7148,6.7059,6.7448,6.8345,6.9423,7.0919,7.2744,7.3193,7.2774,7.1697,7.1338,7.035,6.9064,6.9722,7.0739,7.1697,6.9871,7.0117,7.1169,6.9682,7.0399,7.2165,7.2538,0.0,0.0,0.0,0.0,7.4221,7.4221,7.4652,7.5132,7.5231,7.7053,7.9703,8.3148,8.5567,8.7455,8.8912,8.9707,9.0337,9.1066,9.1397,9.1596,9.1596,9.1496,9.1397,9.1397,9.0801,0.0,0.0,0.0,0.0,0.0,0.0,0.0,0.0,0.0,0.0,0.0,0.0,8.5865,8.5136,8.5103,8.5037,8.4904,8.5633,8.5633,8.4937,8.55,8.5202,8.401,8.3877,8.348,8.2883,8.3016,8.3082,8.3148,8.3877,8.4208,8.4208,8.4208,8.4208,8.4142,8.3513,8.4109,8.5302,8.5302,8.5765,8.6461,0.0,0.0,0.0,0.0,0.0,0.0,0.0,0.0,0.0,0.0,6.3408,6.3288,0.0,0.0,0.0,6.3079,6.3079,6.3079,6.3079,0.0,0.0,6.5832,6.667,6.7627,6.8704,6.8226,6.7989,6.7837,6.7268,6.7926,6.9722,6.9871,7.0679,7.1996,7.1517,7.1188,7.0919,6.9213,6.8704,6.9064,6.9722,7.0739,7.1727,7.038,7.0029,7.0233,7.0326,7.0543,7.1155,7.3252,7.407,0.0,0.0,0.0,7.4221,7.4221,7.4288,7.452,7.5098,7.7782,8.0962,8.3413,8.5169,8.6693,8.815,8.8548,8.8813,8.9542,9.0701,9.1596,9.1596,9.1099,9.0668,9.0668,0.0,0.0,0.0,0.0,0.0,0.0,0.0,0.0,0.0,0.0,0.0,0.0,8.5832,8.5865,8.5136,8.5103,8.4805,8.4175,8.4871,8.4904,8.4142,8.4241,8.4208,8.401,8.3347,8.2983,8.2916,8.3579,8.3844,8.391,8.4639,8.497,8.497,8.497,8.497,8.4937,8.4838,8.5302,8.603,8.603,8.6494,8.7157,0.0,0.0,0.0,0.0,0.0,0.0,0.0,0.0,0.0,0.0,0.0,6.3857,0.0,0.0,0.0,6.3617,6.3588,6.3438,6.3109,6.4253,6.5097,6.5413,6.6701,6.7578,6.7837,6.7567,6.7756,6.8424,6.7486,6.8358,7.0947,7.0611,7.1368,7.2954,7.1936,7.1457,7.1368,7.0141,6.9602,6.9572,6.9871,7.032,7.0679,6.9363,6.973,7.0911,7.0677,7.1484,7.2782,7.3833,7.4221,7.4221,7.4221,0.0,0.0,0.0,7.452,7.5132,7.6689,7.8577,8.0631,8.285,8.4175,8.5434,8.7322,8.772,8.8051,8.9177,8.9939,9.037,9.037,9.0105,8.9906,8.9906,0.0,0.0,0.0,0.0,0.0,0.0,0.0,0.0,0.0,0.0,0.0,0.0,8.5169,8.507,8.3943,8.3877,8.3711,8.338,8.4109,8.4142,8.338,8.3811,8.3811,8.338,8.3049,8.3115,8.3546,8.4275,8.4407,8.4076,8.5202,8.5699,8.5666,8.5268,8.5335,8.5633,8.4805,8.5169,8.6163,8.6163,8.666,8.7289,0.0,0.0,0.0,0.0,0.0,0.0,0.0,0.0,0.0,0.0,0.0,0.0,0.0,0.0,0.0,0.0,6.3857,6.3674,6.3538,6.4723,6.5421,6.5407,6.6769,6.7324,6.703,6.7608,6.8237,6.8766,6.7879,6.9093,7.2213,7.1886,7.2841,7.4809,7.3133,7.2493,7.2581,7.1378,7.0903,7.0923,7.0561,7.0509,7.058,6.9762,7.0328,7.1579,7.1378,7.238,7.3782,7.412,7.4221,7.4221,7.4221,7.4221,0.0,0.0,0.0,7.5397,7.7219,7.8378,7.9537,8.1558,8.2916,8.4208,8.603,8.6726,8.7289,0.0,8.8747,8.8879,8.8879,8.9012,8.9144,0.0,0.0,0.0,0.0,0.0,0.0,0.0,0.0,0.0,0.0,0.0,0.0,0.0,8.4407,8.4341,8.3248,8.2983,8.2983,8.3181,8.3546,8.3446,8.2916,8.3645,8.3711,8.3181,8.338,8.3745,8.4308,8.5037,8.507,8.4606,8.5699,8.6295,8.6395,8.5666,8.5798,8.6328,8.5268,8.55,8.6461,8.6461,8.6792,8.7289,0.0,0.0,0.0,0.0,0.0,0.0,0.0,0.0,0.0,0.0,0.0,6.4485,6.5832,6.4814,6.4036,6.4006,6.3468,6.3595,6.4568,6.4709,6.5324,6.659,6.6796,0.0,6.703,6.9263,6.9865,6.8766,6.8707,7.037,7.3627,7.3753,7.519,7.7502,7.4929,7.4136,7.4482,7.1948,7.193,7.3378,7.2151,7.1958,7.2548,7.3115,7.2575,7.1755,7.2925,7.2962,7.2676,7.3833,7.4221,7.4221,7.4221,7.4221,7.4221,0.0,0.0,0.0,7.5231,7.6457,7.7881,7.9405,8.1393,8.3181,8.401,8.5235,8.6262,8.6328,8.6892,8.7389,8.7389,8.7919,0.0,0.0,0.0,0.0,0.0,0.0,0.0,0.0,0.0,0.0,0.0,0.0,0.0,0.0,8.3645,8.4043,8.3943,8.3281,8.3215,8.391,8.3314,8.295,8.2883,8.3645,8.3976,8.3943,8.4672,8.5003,8.507,8.5798,8.6097,8.6063,8.613,8.656,8.7157,8.6428,8.656,8.7223,8.7123,8.7157,8.7223,8.7223,8.7256,8.7289,0.0,0.0,0.0,0.0,0.0,0.0,0.0,0.0,0.0,0.0,0.0,0.0,0.0,6.8112,6.7367,6.6933,6.5878,6.5546,6.6439,6.7166,6.7852,6.8506,6.9287,6.9564,6.9348,7.0149,7.0767,7.1099,7.0318,7.1609,7.4775,7.504,7.6774,7.9699,7.796,7.6515,7.5443,7.443,7.3911,7.366,7.2724,7.2751,7.3074,7.1249,7.0986,7.1579,7.0797,7.129,7.2432,7.2887,7.3544,7.4221,7.4221,7.4221,7.4122,7.3608,7.3807,7.4288,7.4502,7.5297,7.6622,7.9041,7.9869,8.0664,8.2817,8.3678,8.4208,8.4672,8.5368,8.5898,8.5898,0.0,0.0,0.0,0.0,0.0,0.0,0.0,0.0,0.0,0.0,0.0,0.0,0.0,0.0,0.0,0.0,8.3811,8.3314,8.3049,8.3016,8.3281,8.3049,8.3115,8.3612,8.4341,8.4705,8.4705,8.497,8.5368,8.5798,8.6063,8.6487,8.6858,8.6395,8.6593,8.719,8.5964,8.6196,8.719,8.6262,8.6163,8.656,8.656,8.656,8.6627,0.0,0.0,0.0,6.6701,0.0,6.6327,6.6623,6.6268,6.6667,6.8594,0.0,0.0,0.0,0.0,6.9272,6.8577,6.8034,6.7895,6.8425,6.9137,6.9736,7.018,7.0941,7.1103,7.0599,7.1854,7.2455,7.2379,7.2073,7.3131,7.5385,7.5803,7.7636,8.0496,8.0135,7.9574,7.8904,7.7936,7.7148,7.6305,7.4431,7.4307,7.5039,7.2895,7.2843,7.3843,7.2546,7.2737,7.3645,7.3155,7.3544,7.4221,7.4221,7.4221,7.4072,7.3608,7.3807,7.4221,7.4221,7.4752,7.586,7.8279,7.8511,7.8776,8.1227,8.1989,8.2353,8.3115,8.4043,8.4805,8.507,0.0,0.0,0.0,0.0,0.0,0.0,0.0,0.0,0.0,0.0,0.0,0.0,0.0,0.0,0.0,0.0,0.0,8.2916,8.2883,8.2883,8.2883,8.3148,8.3513,8.401,8.497,8.5467,8.5467,8.5732,8.6097,8.6527,8.6295,8.6428,8.6858,8.613,8.6362,8.719,8.5964,8.603,8.6792,8.5832,8.56,8.5832,8.6097,8.603,8.5931,6.7091,6.7541,6.7896,6.7896,6.8326,6.8622,6.8676,6.8644,6.8898,6.9571,0.0,0.0,0.0,0.0,0.0,6.8793,6.972,7.0377,7.0377,7.0377,7.0701,7.1362,7.1447,7.1242,7.0711,7.433,7.4977,7.2432,7.3912,7.4808,7.5321,7.6288,7.7794,7.9795,8.1211,8.2994,8.4819,8.2143,8.1312,8.1423,7.7301,7.679,7.861,7.849,7.849,7.849,7.8403,7.7477,7.6107,7.4683,7.427,7.4354,7.4288,7.4255,7.4255,7.4188,7.4188,7.4221,0.0,0.0,0.0,7.702,7.7351,7.7749,7.9206,8.0101,8.0796,8.1558,8.2883,8.4142,0.0,0.0,0.0,0.0,0.0,0.0,0.0,0.0,0.0,0.0,0.0,0.0,0.0,0.0,0.0,0.0,8.2883,8.2883,8.2883,8.2883,8.2883,8.2883,8.3612,8.401,8.401,8.5434,8.6163,8.6196,8.6925,8.7256,8.7223,8.6494,8.6221,8.6097,8.5401,8.5898,8.7157,8.6428,8.613,8.613,8.613,8.5699,8.5169,8.5865,8.5666,8.5169,6.9406,6.9708,6.981,6.981,6.958,6.96,7.0407,7.0147,7.0397,0.0,0.0,0.0,7.3135,7.3037,7.2644,7.1924,7.2145,7.2297,7.2297,7.2297,7.2626,7.3401,7.3434,7.3346,7.3201,7.4229,7.4467,7.3731,7.4126,7.4634,7.5339,7.6609,7.8387,8.0484,8.2477,8.3714,8.409,8.1213,8.0457,8.0928,7.8592,7.9001,8.0587,7.8134,7.7506,7.7786,7.6385,7.6161,7.6463,7.5495,7.6133,7.7119,7.6059,7.5363,7.4767,7.3707,7.3773,7.4072,7.3541,0.0,0.0,0.0,0.0,0.0,7.7682,7.8179,7.8544,7.9272,8.0598,8.1823,0.0,0.0,0.0,0.0,0.0,0.0,0.0,0.0,0.0,0.0,0.0,0.0,0.0,0.0,0.0,0.0,8.2883,8.2883,8.2883,8.2883,8.2883,8.2883,8.3612,8.401,8.401,8.5434,8.6163,8.6196,8.6925,8.6991,8.6461,8.6262,8.5898,8.5401,8.5202,8.5335,8.5699,8.55,8.5401,8.5335,8.4805,8.4473,8.4341,8.454,8.4473,8.4407,7.0487,7.0989,7.1319,7.1319,7.1434,7.1763,7.2424,7.2167,7.2324,0.0,0.0,0.0,7.4568,7.49,7.4767,7.4072,7.4005,7.3873,7.3575,7.3541,7.374,7.4188,7.4221,7.4221,7.4221,7.5065,7.5098,7.4221,7.5098,7.5297,7.4833,7.6291,7.798,7.9836,8.1128,8.2221,8.2916,8.0266,8.0122,8.1589,8.0058,8.073,8.2496,8.0138,7.9748,8.0215,7.8777,7.8494,7.8635,7.727,7.7576,7.8279,7.6788,7.6457,7.6291,7.4535,7.4734,7.5297,7.427,7.4535,7.533,7.649,0.0,0.0,7.6324,7.6291,7.6258,0.0,7.808,0.0,0.0,0.0,0.0,0.0,0.0,0.0,0.0,0.0,0.0,0.0,0.0,0.0,0.0,8.2883,8.2883,8.2883,8.2883,8.2883,8.2883,8.2883,8.2883,8.2883,8.391,8.4308,8.401,8.5434,8.603,8.5732,8.6163,8.6163,8.5732,8.5401,8.5037,8.4639,8.4639,8.4473,8.4208,8.4506,8.4639,8.4606,8.4175,8.3811,8.3579,8.391,8.401,8.4109,0.0,7.1864,7.2591,7.2591,7.3558,7.4354,7.4354,7.4354,7.4387,0.0,7.4403,7.4701,7.543,7.6059,7.6192,7.5562,7.543,7.5065,7.4387,7.4255,7.4221,7.4221,7.4221,7.4221,7.4221,7.6159,7.6192,7.4221,7.6192,7.6192,7.4387,7.5695,7.7053,7.8411,7.8477,7.9604,8.1326,7.9537,8.0233,8.2419,8.1194,8.2055,8.4043,8.3314,8.348,8.4043,8.3281,8.2585,8.1724,7.9703,7.8842,0.0,7.7086,7.7417,7.7881,7.596,7.6225,7.692,7.5728,7.5827,7.6457,7.7119,7.639,0.0,7.5382,7.4833,7.4652,7.5264,7.6026,0.0,0.0,0.0,0.0,0.0,0.0,0.0,0.0,0.0,0.0,0.0,0.0,0.0,8.2883,8.2751,8.2684,8.2784,8.2684,8.2718,8.2883,8.2751,8.2684,8.2784,8.4043,8.444,8.3778,8.5202,8.5633,8.5003,8.507,8.507,8.497,8.4308,8.3976,8.3877,8.3877,8.3513,8.295,8.3612,8.3877,8.3877,8.3877,8.348,8.2983,8.3645,8.3877,8.3976,7.3337,7.3679,7.3833,7.3833,7.4533,7.5116,7.5116,7.5116,7.5264,7.5827,7.5894,7.6192,7.692,7.7119,7.7152,7.702,7.6457,7.5794,7.5098,7.4553,7.4221,7.4221,7.4221,7.4221,7.4221,7.5165,7.5198,7.4221,7.5198,7.5463,7.5065,7.5927,7.6788,7.7649,7.8246,7.8776,7.9206,7.9935,8.0266,8.0299,8.0564,8.2386,8.4805,8.4076,8.4241,8.4805,8.4043,8.3678,8.3413,8.2386,8.0863,7.9372,0.0,0.0,0.0,7.6225,7.5927,7.5761,7.6026,7.6192,7.6324,0.0,0.0,0.0,7.5529,7.5595,7.5927,0.0,7.7152,0.0,0.0,0.0,0.0,0.0,0.0,0.0,0.0,0.0,0.0,0.0,0.0,0.0,8.285,8.1823,8.1359,8.1956,8.1459,8.1624,8.285,8.1757,8.1393,8.1989,8.2287,8.2353,8.2221,8.3678,8.4374,8.4241,8.4838,8.4805,8.4208,8.4076,8.3678,8.3115,8.3115,8.3016,8.2916,8.3049,8.3115,8.3115,8.3115,8.3016,8.2916,8.3049,8.3115,8.3215,7.407,7.4221,7.4221,7.4221,7.48,7.5264,7.5264,7.5562,7.5927,7.6258,7.6622,7.702,7.7384,7.7749,7.7682,7.692,7.6523,7.586,7.48,7.442,7.4221,7.4221,7.4221,7.4387,7.4752,7.543,7.543,7.4785,7.543,7.5628,7.5297,7.5993,7.6689,7.745,7.7815,7.8179,7.8544,7.8908,7.9272,7.9769,8.1194,8.2684,8.4043,8.4407,8.4805,8.5103,8.5103,8.4606,8.3778,8.2287,8.1558,0.0,7.9537,7.9074,7.8842,0.0,7.7417,7.7351,0.0,0.0,0.0,7.7417,0.0,0.0,0.0,7.5496,7.543,7.6159,7.6059,0.0,0.0,0.0,0.0,0.0,0.0,0.0,0.0,0.0,0.0,0.0,0.0,0.0,8.1757,8.1128,8.0829,8.1194,8.0896,8.1028,8.1757,8.1094,8.0863,8.1227,8.1591,8.179,8.179,8.2883,8.3446,8.3446,8.3844,8.3811,8.3446,8.3446,8.3248,8.2883,8.2883,8.2883,8.2883,8.2883,8.2883,8.2883,8.2883,8.3115,8.3446,8.3446,8.3678,8.4043,7.4188,7.4221,7.4221,7.4221,7.49,7.5463,7.5463,7.6059,7.6523,7.6523,7.7152,7.7616,7.7616,7.8146,7.8146,7.7219,7.6622,7.5993,7.5264,7.4619,7.4221,7.4221,7.4221,7.442,7.4867,7.5695,7.5761,7.5065,7.5761,7.5827,7.5297,7.586,7.6589,7.7417,7.7119,7.7649,7.8676,7.7782,7.8279,7.9802,8.1856,8.2684,8.2817,8.4175,8.4771,8.497,8.5533,8.4904,8.3513,8.1724,8.1823,8.2287,7.9902,8.0167,0.0,0.0,0.0,0.0,0.0,0.0,0.0,0.0,0.0,7.7782,0.0,0.0,0.0,0.0,0.0,0.0,0.0,0.0,0.0,0.0,0.0,0.0,0.0,0.0,0.0,0.0,0.0,0.0,0.0,8.0763,8.0631,8.0498,8.0498,8.0531,8.0697,8.0432,8.0332,8.0465,8.1061,8.1426,8.1591,8.232,8.2751,8.2883,8.2883,8.2883,8.2883,8.2883,8.2883,8.2883,8.2883,8.2883,8.2883,8.2883,8.2883,8.2883,8.2883,8.3248,8.3811,8.3943,8.4374,8.4937,7.4038,7.4221,7.4221,7.4221,7.5297,7.6192,7.6192,7.6821,7.7285,7.7285,7.7947,7.8411,7.8411,7.8477,7.8974,8.0101,7.7815,7.7086,7.8875,7.596,7.4221,7.4221,7.4221,7.3906,7.3376,7.4701,7.5032,7.4354,7.5032,7.5363,7.5264,7.5363,7.6125,7.7351,7.6092,7.6987,7.9405,7.8014,7.8279,7.9769,8.1293,8.1923,8.2022,8.285,8.3579,8.4142,8.4208,8.3711,8.2983,0.0,8.232,8.1856,0.0,8.0697,7.9935,8.0332,0.0,0.0,0.0,0.0,0.0,0.0,7.9902,0.0,0.0,0.0,7.7715,7.6556,0.0,0.0,0.0,0.0,0.0,0.0,0.0,0.0,0.0,0.0,0.0,0.0,0.0,0.0,0.0,8.1061,8.0432,7.9802,7.9736,8.0034,8.0664,7.9471,7.9074,7.9736,7.9836,8.0167,8.0796,8.1558,8.2254,8.2883,8.2883,8.2883,8.2883,8.2883,8.2883,8.2883,8.2883,8.2883,8.2883,8.2883,8.2883,8.2883,8.2883,8.295,8.3115,8.3778,8.4043,8.4308,7.3939,7.384,7.3674,7.4155,7.5363,7.6324,7.6324,7.7318,7.8047,7.8047,7.8345,7.8676,7.9107,7.9173,7.9405,8.0034,7.8544,7.798,7.8941,7.6357,7.5363,7.6655,7.5496,7.5065,7.5595,7.6192,7.596,7.48,7.5529,7.5662,7.5264,7.5264,7.5827,7.6722,7.5728,7.6424,7.8312,7.7682,7.7782,7.8544,8.0863,8.1293,8.0796,8.3248,8.4904,8.5832,8.5401,8.507,8.454,0.0,8.2618,0.0,0.0,0.0,0.0,0.0,0.0,0.0,0.0,0.0,0.0,0.0,0.0,0.0,7.8908,0.0,7.7318,0.0,0.0,0.0,0.0,0.0,0.0,0.0,7.7285,0.0,0.0,0.0,0.0,0.0,0.0,0.0,0.0,0.0,0.0,0.0,7.8908,7.9372,7.8809,7.861,7.8676,7.8974,7.8974,7.9537,8.0664,8.0995,8.1757,8.2883,8.2883,8.2883,8.2883,8.2883,8.2883,8.2883,8.2883,8.2883,8.2883,8.2883,8.2883,8.2883,8.2883,8.3148,8.3579,8.391,8.4275,8.4738,7.3641,7.3475,7.3409,7.4303,7.5496,7.6457,7.6854,7.7815,7.861,7.8809,7.8809,7.9173,8.0101,8.0598,8.0896,8.1128,8.0465,7.9935,0.0,7.7682,7.6821,7.7583,7.6887,7.649,7.6523,7.7119,7.6722,7.5264,7.5595,7.5562,7.5264,7.5264,7.5761,7.6589,7.6291,7.6854,7.8047,7.8246,7.8444,7.8809,8.1161,8.1823,8.1658,8.3943,8.56,8.6627,8.6063,8.5898,8.5567,8.3413,8.3281,0.0,8.2121,0.0,0.0,0.0,0.0,0.0,8.1061,0.0,0.0,0.0,0.0,0.0,0.0,0.0,0.0,0.0,0.0,0.0,0.0,0.0,0.0,0.0,0.0,7.7848,0.0,0.0,0.0,0.0,0.0,0.0,0.0,0.0,0.0,7.7053,7.861,7.8974,7.7484,7.7914,7.8312,7.8511,7.8511,7.9206,8.0664,8.0697,8.1426,8.2883,8.2883,8.2883,8.2883,8.2883,8.2883,8.2883,8.2883,8.2883,8.2883,8.2883,8.2883,8.2883,8.2883,8.3215,8.3745,8.4142,8.4639,8.5169,7.2978,7.3144,7.3575,7.4999,7.5827,7.6788,7.8246,7.8477,7.8776,7.945,7.9549,8.0134,8.1558,8.3016,8.4142,8.4871,8.4241,8.3513,8.2817,0.0,7.8246,0.0,0.0,7.7848,0.0,7.6324,7.6722,7.5264,7.4619,7.4652,7.5264,7.5264,7.6026,7.7417,7.8113,7.8842,7.9604,8.0299,8.0995,8.1724,8.2552,8.4109,8.5832,0.0,8.4506,8.5169,8.5136,0.0,0.0,8.5037,8.4573,0.0,0.0,0.0,0.0,0.0,0.0,0.0,0.0,0.0,0.0,8.1061,0.0,0.0,0.0,0.0,7.914,0.0,0.0,0.0,0.0,0.0,7.8411,7.8444,0.0,0.0,0.0,0.0,0.0,0.0,0.0,0.0,0.0,0.0,0.0,7.861,7.9173,7.8974,7.7484,7.745,7.7782,7.8511,7.8511,7.9206,8.0664,8.0697,8.1426,8.2883,8.2883,8.2883,8.2883,8.2883,8.2883,8.2883,8.2883,8.2883,8.2883,8.2883,8.2883,8.2883,8.2883,8.2916,8.3115,8.454,8.5103,8.5302,7.2978,7.3111,7.3409,7.437,7.5529,7.6987,7.8941,7.8842,7.9504,8.2188,8.2088,8.2883,8.5798,8.656,8.7157,8.7885,8.6858,8.6063,8.5832,8.3281,0.0,0.0,0.0,8.0465,0.0,0.0,7.9372,7.7417,7.7185,7.6689,7.596,7.6457,7.6954,7.745,7.8179,7.8676,7.9007,8.0697,8.0995,8.0564,8.2751,8.4937,8.6792,0.0,8.5898,8.6494,8.5997,8.5832,0.0,8.4705,8.454,8.4639,8.4142,8.3844,8.3579,8.3314,8.3082,0.0,0.0,0.0,8.2651,8.1658,0.0,0.0,0.0,0.0,0.0,0.0,0.0,0.0,0.0,0.0,7.9239,7.9239,7.9417,0.0,0.0,0.0,0.0,0.0,0.0,0.0,0.0,0.0,0.0,7.649,7.702,7.702,7.6059,7.6887,7.7517,7.7782,7.8279,7.9206,8.0664,8.0697,8.1426,8.2883,8.2883,8.2883,8.2883,8.2883,8.2883,8.2883,8.2883,8.2883,8.2883,8.2883,8.2883,8.2883,8.2883,8.2883,8.295,8.348,8.3943,8.444,7.3442,7.3707,7.4005,7.452,7.596,7.7583,7.9007,7.9703,8.1128,8.401,8.444,8.5633,8.8747,8.9542,8.9939,9.0171,8.9807,8.8945,8.7389,8.5732,0.0,8.3248,8.3049,0.0,0.0,0.0,0.0,0.0,7.8776,7.8312,7.7881,7.808,7.8212,7.8246,7.9504,7.9504,7.8709,8.1724,8.2121,8.1061,0.0,8.603,0.0,0.0,8.6461,8.6825,0.0,8.5997,8.5633,8.4705,8.454,8.4639,8.4142,8.3811,8.3612,8.3612,8.3281,8.2883,8.2883,8.2883,0.0,8.1989,8.1094,0.0,7.914,0.0,0.0,0.0,0.0,0.0,0.0,0.0,0.0,8.0101,8.0001,7.9637,0.0,7.745,0.0,0.0,0.0,0.0,0.0,0.0,7.7285,7.5032,7.5297,7.5363,0.0,0.0,7.6887,7.7384,7.8378,7.9471,8.0664,8.0962,8.1691,8.2883,8.2883,8.2883,8.2883,8.2883,8.2883,8.2883,8.2883,8.2883,8.2883,8.2883,8.2883,8.2883,8.2883,8.2883,8.2916,8.3181,8.3778,8.4374,7.442,7.4833,7.5397,7.543,7.7119,7.8511,7.8676,8.1061,8.3446,8.5103,8.656,8.8283,9.0536,9.2059,9.2623,9.1861,9.3086,9.2126,8.7885,8.815,0.0,0.0,8.4142,8.391,8.0962,0.0,0.0,0.0,7.9471,7.9471,8.073,8.0101,7.9736,7.9769,8.1989,8.1359,7.8908,8.3248,8.4308,8.3314,8.613,8.7289,8.719,8.6494,8.6196,8.6221,8.6097,8.5633,8.5037,8.5003,8.4573,8.401,8.401,8.3513,8.295,8.295,8.2916,8.2883,8.2883,8.2883,8.2718,8.2022,0.0,0.0,0.0,0.0,8.1558,0.0,0.0,0.0,0.0,0.0,0.0,8.0929,8.0664,0.0,0.0,0.0,0.0,0.0,0.0,0.0,0.0,7.861,7.7947,7.442,7.4122,7.4122,0.0,0.0,7.5927,7.7318,7.8809,7.9935,8.0697,8.1426,8.2154,8.2883,8.2883,8.2883,8.2883,8.2883,8.2883,8.2883,8.2883,8.2883,8.2883,8.2883,8.2883,8.2883,8.2883,8.2883,8.2983,8.3678,8.4407,8.4904,7.5132,7.5993,7.7053,7.7583,7.7682,7.8444,8.0631,8.1591,8.3579,8.7753,8.9111,9.0933,9.4246,9.5438,9.567,9.4941,9.5206,0.0,0.0,0.0,0.0,8.6759,8.719,8.6395,8.401,8.4672,0.0,8.3148,0.0,8.2221,8.1525,8.1889,8.1459,8.0498,8.2718,8.2386,8.0332,8.3711,8.5202,8.5434,8.6759,8.7289,8.7256,0.0,8.666,8.603,8.4937,8.444,8.4208,8.3645,8.3711,8.401,8.401,8.3877,8.3711,8.3711,8.3314,8.2883,8.2883,8.2883,8.285,8.2651,8.179,8.0863,0.0,0.0,0.0,0.0,0.0,0.0,0.0,0.0,0.0,0.0,0.0,0.0,0.0,0.0,0.0,7.5628,0.0,0.0,0.0,7.6457,7.5562,7.3541,7.2879,7.2813,0.0,0.0,0.0,7.6556,7.8014,7.9405,8.0664,8.1426,8.2154,8.2883,8.2883,8.2883,8.2883,8.2883,8.2883,8.2883,8.2883,8.2883,8.2883,8.2883,8.2883,8.2883,8.2883,8.2883,8.2916,8.3115,8.3314,8.3446,7.6357,7.7384,7.8709,7.9769,7.9604,7.9869,8.1558,8.2618,8.4506,8.8018,8.9939,9.1894,9.4312,9.5803,9.6598,9.6498,9.62,0.0,9.4345,0.0,0.0,8.9376,8.8647,8.7455,8.56,8.5335,0.0,8.4473,0.0,8.3579,8.3678,8.2817,8.179,8.0763,8.2684,8.2287,8.0432,8.338,8.5235,8.6196,8.6295,8.6527,0.0,8.6097,8.56,8.507,8.3943,8.3745,8.391,8.3148,8.3181,8.3513,8.3513,8.3513,8.3579,8.391,8.348,8.2983,8.3281,8.3148,8.2883,8.2883,8.2287,8.1658,8.1658,8.1658,8.1658,0.0,0.0,0.0,0.0,0.0,0.0,0.0,0.0,0.0,0.0,0.0,0.0,0.0,7.6026,0.0,0.0,7.5098,7.3575,7.1786,7.1885,7.2183,0.0,0.0,0.0,7.6291,7.8047,7.9537,8.0664,8.1757,8.2486,8.2883,8.2883,8.2883,8.2883,8.2883,8.2883,8.2883,8.2883,8.2883,8.2883,8.2883,8.2883,8.2883,8.2883,8.2883,8.2883,8.2883,8.2883,8.2883,7.7947,7.9041,8.0465,8.1724,8.2088,8.2287,8.2486,8.4241,8.6097,8.7654,0.0,9.2324,9.3186,9.5074,9.6498,9.7062,0.0,9.5935,9.5107,9.4246,9.2888,9.09,8.931,8.7753,8.6196,8.4937,0.0,0.0,0.0,8.401,8.5533,8.2983,8.1393,8.0763,8.2121,8.1691,8.0101,8.295,8.4705,8.5567,8.5335,8.5567,8.5898,8.4738,8.4241,8.4043,8.3314,8.338,8.3778,8.3115,8.2883,8.2883,8.2883,8.2883,8.3016,8.3678,8.3413,8.3049,8.3678,8.338,8.2916,8.3016,8.2983,8.2916,8.3016,8.2983,8.2883,8.2883,8.2883,8.2684,0.0,0.0,0.0,0.0,0.0,0.0,0.0,0.0,0.0,0.0,0.0,0.0,0.0,0.0,7.2614,7.0394,7.1421,0.0,0.0,0.0,0.0,7.6159,7.8212,7.9736,8.0531,0.0,8.2784,8.2883,8.2883,8.2883,8.2883,8.2883,8.2883,8.2883,8.2883,8.2883,8.2883,8.2883,8.2883,8.2883,8.2883,8.2883,8.2883,8.2883,8.2883,8.2883,8.0034,8.1326,8.2419,8.2651,8.3711,8.4937,8.613,8.7123,8.8482,9.0569,9.2854,9.4842,9.62,9.7227,9.7592,9.7161,9.7525,0.0,0.0,0.0,0.0,9.2358,9.0337,8.825,8.6229,8.5931,8.5268,0.0,0.0,8.3976,8.2552,8.2022,8.1393,8.073,8.1591,8.179,8.1558,8.391,0.0,8.2751,8.507,8.5699,8.5335,8.5666,8.5434,8.4805,8.4076,8.3513,8.3082,8.295,8.2883,8.2883,8.2883,8.2883,8.2916,8.3049,8.2983,8.2916,8.3049,8.2983,8.3049,8.3645,8.3347,8.3049,8.3678,8.3347,8.2883,8.2883,8.2883,8.2684,8.1923,0.0,0.0,0.0,0.0,0.0,0.0,0.0,0.0,0.0,0.0,7.5827,0.0,0.0,0.0,0.0,0.0,0.0,0.0,0.0,0.0,0.0,7.6987,0.0,0.0,0.0,8.2287,8.2883,8.2883,8.2883,8.2883,8.2883,8.2883,8.2883,8.2883,8.2883,8.2883,8.2883,8.2883,8.2883,8.2883,8.2883,8.2883,8.2883,8.2883,8.2883,8.2188,8.2983,8.3844,8.497,8.5472,0.0,0.0,9.0127,9.0661,9.097,9.2623,9.4014,9.4743,9.6167,9.7062,9.7095,9.7062,9.6929,9.6598,9.5173,9.3881,9.2722,9.0966,0.0,8.6229,8.5832,8.5268,8.4573,0.0,0.0,8.2916,8.1393,8.0067,7.9007,7.9372,8.0167,0.0,0.0,0.0,8.1956,8.3745,8.4506,8.454,8.4506,8.4275,8.391,8.3579,8.3215,8.2883,8.2883,8.2883,8.2883,8.2883,8.2883,8.2883,8.2883,8.2883,8.2883,8.2883,8.2883,8.2983,8.3347,8.3148,8.2983,8.3347,8.3148,8.2883,8.2883,8.2883,8.2684,8.1923,8.1227,0.0,0.0,0.0,0.0,0.0,0.0,0.0,0.0,0.0,0.0,0.0,0.0,0.0,0.0,0.0,0.0,0.0,0.0,0.0,0.0,0.0,0.0,0.0,0.0,0.0,8.2883,8.2883,8.2883,8.2883,8.2883,8.2883,8.2883,8.2883,8.2883,8.2883,8.2883,8.2883,8.2883,8.2883,8.2883,8.2883,8.2883,8.2883,8.2883,8.3714,8.4126,8.4826,8.6507,8.6582,8.7539,9.0886,9.2086,9.2416,9.1537,9.2589,9.3451,9.3616,9.5173,9.6465,9.7062,9.6565,9.6432,9.6863,9.5637,9.4312,9.2987,9.1397,8.931,8.6693,8.5633,8.4871,0.0,0.0,0.0,0.0,8.0332,7.8511,7.6987,0.0,0.0,0.0,0.0,8.1624,8.1426,8.2651,8.338,8.3711,8.3314,8.3049,8.2883,8.2883,8.2883,8.2883,8.2883,8.2883,8.2883,8.2883,8.2883,8.2883,8.2883,8.2883,8.2883,8.2883,8.2883,8.295,8.3082,8.3016,8.295,8.3115,8.3016,8.2883,8.2883,8.2883,8.2684,8.1923,8.179,0.0,0.0,0.0,0.0,0.0,0.0,0.0,0.0,0.0,0.0,0.0,0.0,0.0,0.0,0.0,0.0,0.0,0.0,0.0,0.0,0.0,7.8047,7.9372,0.0,8.1923,8.2651,8.2817,8.2883,8.2883,8.2883,8.2883,8.2883,8.2883,8.2883,8.2883,8.2883,8.2883,8.2883,8.2883,8.2883,8.2883,8.2883,8.2883,8.2883,8.3742,8.4622,0.0,0.0,0.0,8.8018,9.0321,9.186,9.3138,9.4347,9.5206,9.5968,9.6631,9.6896,9.7028,9.7095,9.7062,9.6763,9.6134,9.5339,9.4544,9.3716,9.1662,8.9774,8.815,8.613,8.4109,0.0,0.0,0.0,0.0,0.0,0.0,0.0,0.0,0.0,0.0,8.0332,8.1028,8.0067,8.2817,8.3546,8.3082,8.3678,8.348,8.2883,8.2883,8.2883,8.2883,8.2883,8.2883,8.2883,8.2883,8.2883,8.2883,8.2883,8.2883,8.2883,8.2883,8.2883,8.3049,8.3745,8.338,8.3082,8.3745,8.338,8.2883,8.2883,8.2883,8.2684,8.1923,8.179,8.1525,0.0,0.0,0.0,0.0,0.0,0.0,0.0,0.0,0.0,0.0,7.5463,0.0,0.0,0.0,0.0,0.0,0.0,0.0,7.533,0.0,7.7815,7.861,8.0067,8.1161,8.1889,8.2585,8.2883,8.2883,8.2883,8.2883,8.2883,8.2883,8.2883,8.2883,8.2883,8.2883,8.2883,8.2883,8.2883,8.2883,8.2883,8.2883,8.2883,0.0,0.0,0.0,0.0,0.0,0.0,0.0,9.1726,9.2381,9.3434,9.4979,9.6101,9.6432,9.6432,9.6266,9.5836,9.577,9.5471,9.4743,9.3981,9.3252,9.249,9.0801,8.8979,8.7057,8.5765,8.4473,0.0,0.0,0.0,0.0,0.0,0.0,0.0,0.0,7.6987,7.7119,7.9504,8.0399,8.0432,8.2519,8.3148,8.2916,8.3215,8.3148,8.295,8.3413,8.3579,8.3645,8.4076,8.3645,8.2883,8.2883,8.2883,8.2883,8.2883,8.2883,8.2883,8.2883,8.2883,8.2983,8.3281,8.3115,8.2983,8.3281,8.3115,8.2883,8.2883,8.2883,8.2817,8.2519,8.2453,8.2221,0.0,0.0,0.0,0.0,0.0,0.0,0.0,0.0,0.0,0.0,0.0,0.0,0.0,0.0,0.0,0.0,0.0,0.0,7.5264,0.0,7.755,7.9173,8.0167,8.1293,8.2453,8.2751,8.2883,8.2883,8.2883,8.2883,8.2883,8.2883,8.2883,8.2883,8.2883,8.2883,8.2883,8.2883,8.2883,8.2883,8.2883,8.2883,8.2883,8.5405,0.0,8.5632,0.0,8.7419,8.7576,9.0115,9.0408,9.0773,9.1631,9.3302,9.4681,9.5306,9.5339,9.514,9.461,9.4577,9.4345,9.3815,9.3086,9.2358,9.1629,9.0204,0.0,8.6527,8.56,8.454,8.3347,8.3049,0.0,0.0,0.0,0.0,0.0,7.5397,7.6258,7.7517,7.9007,8.0167,8.1128,8.2386,8.2883,8.2883,8.2883,8.2883,8.2983,8.348,8.3811,8.4076,8.4606,8.4241,8.3513,8.3281,8.3082,8.2883,8.2883,8.2883,8.2883,8.2883,8.2883,8.2883,8.2883,8.2883,8.2883,8.2883,8.2883,8.2883,8.2883,8.2883,8.2883,8.2883,8.2883,8.2718,8.2221,0.0,0.0,0.0,0.0,0.0,0.0,7.7185,7.6225,7.5363,0.0,0.0,0.0,0.0,0.0,0.0,0.0,0.0,0.0,0.0,0.0,0.0,8.0101,8.1194,8.2254,8.2684,8.2883,8.2883,8.2883,8.2883,8.2883,8.2883,8.2883,8.2883,8.2883,8.2883,8.2883,8.2883,8.2883,8.2883,8.2883,8.2883,8.2883,8.3962,8.424,8.4571,8.5199,8.5326,8.5817,8.7355,8.7517,8.804,8.9413,9.0261,9.1461,9.3586,9.3815,9.3815,9.3815,9.3815,9.3815,9.3782,9.3086,9.2358,0.0,0.0,8.8747,8.7289,8.5832,8.4043,8.1823,0.0,0.0,7.6357,0.0,7.4951,7.4288,7.5662,7.6722,7.7517,7.9007,8.0465,8.1856,8.2585,8.2883,8.2883,8.2883,8.2883,8.2883,8.2916,8.338,8.401,8.401,8.4506,8.497,8.4241,8.348,8.2883,8.2883,8.2883,8.2883,8.2883,8.2883,8.2883,8.2883,8.2883,8.2883,8.2883,8.2883,8.2883,8.2883,8.2883,8.2883,8.2883,8.2883,8.2883,8.2883,0.0,0.0,0.0,0.0,0.0,0.0,7.9571,7.8444,7.5562,0.0,0.0,0.0,0.0,0.0,0.0,0.0,0.0,7.533,7.6655,0.0,7.745,7.9604,8.0697,8.073,8.2188,8.2883,8.2883,8.2883,8.2883,8.2883,8.2883,8.2883,8.2883,8.2883,8.2883,8.2883,8.2883,8.2883,8.2883,8.2883,8.2883,8.2883,8.4074,8.4258,8.4504,8.5199,8.5326,8.5457,8.5948,8.6449,8.6911,8.7367,8.8375,8.9399,9.0047,9.1444,9.2093,0.0,9.1562,9.1364,0.0,9.0602,9.037,9.0105,8.9177,8.7985,8.656,8.6063,8.4771,8.2552,0.0,0.0,0.0,7.9306,7.8312,7.7185,7.8146,7.8974,7.9703,8.0697,8.1658,8.2552,8.2817,8.2883,8.2883,8.2883,8.2883,8.3016,8.4043,8.4573,8.4904,8.5898,8.6063,8.5798,8.5567,8.4639,8.3645,8.3645,8.3281,8.2883,8.2883,8.2883,8.2883,8.2883,8.2883,8.2883,8.2883,8.2883,8.2883,8.2883,8.2883,8.2883,8.2883,8.2883,8.2883,8.2883,8.2883,0.0,0.0,0.0,0.0,0.0,7.649,7.5529,0.0,7.4072,0.0,0.0,0.0,0.0,0.0,0.0,0.0,0.0,7.692,0.0,7.8908,8.0598,8.1459,8.1459,8.2419,8.2883,8.2883,8.2883,8.2883,8.2883,8.2883,8.2883,8.2883,8.2883,8.2883,8.2883,8.2883,8.2883,8.2883,8.2883,8.2883,8.2883,8.2898,8.3416,8.403,8.4441,8.4536,8.4536,8.4536,8.4682,8.4852,8.4852,8.5566,8.6163,8.6412,8.7816,0.0,8.958,8.9442,8.921,8.9012,8.8482,8.8449,8.8979,8.7786,8.6693,8.5798,0.0,0.0,8.2883,8.3281,8.2883,8.179,8.0763,7.9802,7.8974,7.9703,8.0432,8.1128,8.1591,8.2221,8.2883,8.2883,8.2883,8.2883,8.2883,8.3082,8.3446,8.4374,8.5037,8.5633,8.656,8.6726,8.6593,8.6593,8.5765,8.4771,8.4506,8.391,8.3314,8.3314,8.3115,8.2883,8.2883,8.2883,8.2883,8.2883,8.2883,8.2883,8.2883,8.2883,8.2883,8.2883,8.2883,8.2883,8.2883,8.2883,8.2386,8.0896,0.0,0.0,0.0,0.0,0.0,0.0,7.4833,7.5132,0.0,0.0,0.0,0.0,0.0,0.0,7.5894,7.7152,0.0,7.9206,8.0929,8.179,8.179,8.2552,8.2883,8.2883,8.2883,8.2883,8.2883,8.2883,8.2883,8.2883,8.2883,8.2883,8.2883,8.2883,8.2883,8.2883,8.2883,8.2883,8.2883,8.0704,8.1909,8.3076,0.0,8.3177,0.0,8.3145,8.2576,8.2134,8.2197,8.227,8.2485,8.3076,8.3714,8.5161,8.7865,0.0,0.0,0.0,8.6825,8.6693,8.8018,8.6196,8.5103,8.5037,8.5136,8.454,8.3215,8.1658,8.1326,8.2055,8.0564,7.9902,7.9968,8.0564,8.1227,8.1889,8.1889,8.2254,8.2883,8.2883,8.2883,8.2883,8.2883,8.3347,8.401,8.4076,8.497,8.6221,8.6229,8.6693,8.7289,8.7289,8.6792,8.6097,8.5401,8.4672,8.4076,8.4076,8.3579,8.3049,8.2983,8.295,8.2883,8.2883,8.2883,8.2883,8.2883,8.2883,8.2883,8.2883,8.2883,8.2883,8.2883,8.2817,8.2221,8.073,0.0,0.0,0.0,0.0,0.0,0.0,7.6954,7.6556,0.0,0.0,0.0,0.0,0.0,7.6954,7.5463,7.755,7.8676,7.8676,8.0796,8.1889,8.1889,8.2552,8.2883,8.2883,8.2883,8.2883,8.2883,8.2883,8.2883,8.2883,8.2883,8.2883,8.2883,8.2883,8.2883,8.2883,8.2883,8.2883,8.2883,0.0,0.0,8.2177,8.301,8.2798,8.245,8.245,8.1881,8.1628,8.2134,8.2684,8.3194,8.3866,8.4077,8.4626,8.5817,8.5736,8.5699,8.5865,8.5567,8.55,8.5865,8.5368,8.4838,8.4275,8.5368,8.603,8.6229,8.4208,8.3877,8.507,8.3082,8.2419,8.295,8.2552,8.2486,8.2651,8.2651,8.2751,8.2883,8.2883,8.2883,8.2883,8.2883,8.3347,8.4076,8.4639,8.5434,8.6321,8.6825,8.7123,8.7289,8.7289,8.7157,8.6858,8.613,8.5401,8.4838,8.4838,8.4705,8.444,8.3877,8.3314,8.2883,8.2883,8.2883,8.2883,8.2883,8.2883,8.2883,8.2883,8.2883,8.2883,8.2883,8.1956,8.0697,7.9239,7.7749,0.0,0.0,7.6192,7.6523,7.7086,7.6788,7.7053,0.0,0.0,0.0,0.0,7.8742,7.8974,7.6987,7.9041,8.0167,8.0167,8.1823,8.2651,8.2651,8.2817,8.2883,8.2883,8.2883,8.2883,8.2883,8.2883,8.2883,8.2883,8.2883,8.2883,8.2883,8.2883,8.2883,8.2883,8.2883,8.2883,8.2883,7.877,7.9804,8.0942,8.2096,8.1976,8.1723,8.1723,8.1154,8.0933,8.1628,8.176,8.2175,8.3131,8.3254,8.3528,8.4203,8.4478,8.4944,8.5567,8.5302,8.5401,8.6063,8.5467,8.507,8.5003,8.5765,8.6527,8.7289,8.5401,8.507,8.613,8.4275,8.3612,8.3976,8.3215,8.2883,8.2883,8.2883,8.2883,8.2883,8.2883,8.2883,8.2883,8.2883,8.3579,8.4573,8.497,8.5798,8.6726,8.7157,8.7289,8.7289,8.7289,8.7289,8.719,8.6792,8.6163,8.56,8.56,8.5368,8.5003,8.4606,8.3943,8.3413,8.3413,8.3148,8.2883,8.2883,8.2883,8.2883,8.2883,8.2883,8.2784,8.2453,8.1426,8.0067,7.8279,7.702,0.0,7.5794,7.6092,7.6722,7.7815,7.7881,7.8047,7.8577,7.8511,0.0,7.745,7.9504,7.9703,7.7484,7.9869,8.1194,8.1194,8.232,8.2883,8.2883,8.2883,8.2883,8.2883,8.2883,8.2883,8.2883,8.2883,8.2883,8.2883,8.2883,8.2883,8.2883,8.2883,8.2883,8.2883,8.2883,8.2883,8.2883,7.6576,7.809,7.9654,8.0767,8.0962,8.106,8.1186,8.0585,8.0396,8.1249,8.0807,8.0872,8.2142,8.227,8.2522,8.3208,8.3821,8.4647,8.5788,8.5376,8.5666,8.6892,8.5765,8.5401,8.5997,8.613,8.6527,8.7289,8.5931,8.5633,8.6295,8.4838,8.4241,8.4308,8.3446,8.3082,8.3049,8.295,8.2883,8.2883,8.2883,8.2883,8.2883,8.2883,8.3811,8.5103,8.5103,8.603,8.7289,8.7289,8.7289,8.7289,8.7289,8.7289,8.7289,8.7289,8.6825,8.6328,8.6328,8.5832,8.5268,8.5268,8.4705,8.4175,8.4175,8.3678,8.3215,8.3215,8.3148,8.3082,8.3082,8.2983,8.2684,8.2055,8.1061,7.9703,7.7848,0.0,7.6357,7.6457,7.6755,7.7517,7.8875,7.9471,7.9372,7.8312,7.9107,7.914,7.798,7.9769,7.9935,7.798,8.0531,8.1956,8.1956,8.2585,8.2883,8.2883,8.2883,8.2883,8.2883,8.2883,8.2883,8.2883,8.2883,8.2883,8.2883,8.2883,8.2883,8.2883,8.2883,8.2883,8.2883,8.2883,8.2883,8.2883,7.5338,7.693,7.8481,7.9557,8.0038,8.0491,8.1091,8.0585,8.0554,8.185,8.1944,8.2199,8.296,8.3024,8.3285,8.3963,8.4154,8.4239,8.4385,8.4844,8.5202,8.5434,8.5235,8.5169,8.5268,8.5865,8.6527,8.7289,8.6428,8.6395,8.709,8.5633,8.5268,8.5765,8.444,8.3844,8.3811,8.3148,8.2883,8.2883,8.2883,8.2883,8.2883,8.2883,8.3811,8.5103,8.5103,8.603,8.7289,8.7289,8.7289,8.7289,8.7289,8.7289,8.7289,8.7289,8.719,8.709,8.709,8.656,8.5997,8.5997,8.5467,8.4937,8.4937,8.4838,8.4771,8.4771,8.4275,8.3844,8.3844,8.3314,8.285,8.2751,8.0564,7.8742,7.8411,0.0,7.6556,7.7185,7.8875,8.0332,8.1194,8.0829,8.0962,8.1956,8.0531,7.9769,8.0167,8.1094,8.1194,8.02,8.1823,8.2718,8.2718,8.285,8.2883,8.2883,8.2883,8.2883,8.2883,8.2883,8.2883,8.2883,8.2883,8.2883,8.2883,8.2883,8.2883,8.2883,8.2883,8.2883,8.2883,8.2883,8.2883,8.2883,7.4495,7.5329,7.6296,7.738,7.7975,7.8657,7.9619,7.9778,8.0381,8.2006,8.2197,8.245,8.3145,8.324,8.334,8.3668,8.3961,8.4314,8.4666,8.5336,8.5908,8.6262,8.6262,8.6262,8.6262,8.6593,8.6726,8.6693,8.6726,8.6726,8.666,8.5997,8.5666,8.5567,8.4473,8.3778,8.338,8.3049,8.2883,8.2883,8.2883,8.2883,8.2883,8.2883,8.3811,8.5103,8.5103,8.603,8.7289,8.7289,8.7289,8.7289,8.7289,8.7289,8.7289,8.7289,8.7289,8.7289,8.7289,8.7024,8.6759,8.6759,8.6229,8.5798,8.6196,8.5666,8.5202,8.56,8.5103,8.4606,8.4606,8.401,8.3347,8.295,8.0432,0.0,0.0,7.7252,7.6887,7.8411,7.9836,8.1128,8.2287,8.2088,8.1989,8.2287,8.1359,8.0929,8.126,8.1624,8.1823,8.1889,8.2552,8.2883,8.2883,8.2883,8.2883,8.2883,8.2883,8.2883,8.2883,8.2883,8.2883,8.2883,8.2883,8.2883,8.2883,8.2883,8.2883,8.2883,8.2883,8.2883,8.2883,8.2883,8.2883,8.2883,7.3672,7.4021,7.4534,7.5535,7.6327,7.7227,7.837,7.8997,8.0017,8.1799,8.2025,8.2345,8.3079,8.324,8.324,8.324,8.3668,8.4347,8.514,8.5734,8.638,8.7256,8.7289,8.7289,8.7289,8.7289,8.6925,8.6163,8.6925,8.6892,8.6163,8.642,8.613,8.5567,8.4838,8.4109,8.3413,8.3215,8.3049,8.2883,8.2883,8.2883,8.2883,8.2883,8.3811,8.5103,8.5103,8.603,8.7289,8.7289,8.7289,8.7289,8.7289,8.7289,8.7289,8.7289,8.7289,8.7289,8.7289,8.7289,8.7289,8.7289,8.6858,8.656,8.7157,8.6395,8.5765,8.6328,8.5865,8.5368,8.5368,8.4771,8.401,8.3281,0.0,0.0,0.0,7.8444,7.8477,8.02,8.1161,8.2154,8.3314,8.3413,8.3181,8.2618,8.2552,8.2552,8.2552,8.2552,8.2817,8.338,8.3248,8.3148,8.3148,8.3314,8.3314,8.3148,8.3148,8.3082,8.2883,8.2883,8.2883,8.2883,8.2883,8.2883,8.2883,8.2883,8.2883,8.2883,8.2883,8.2883,8.2883,8.2883,8.2883,8.2883,7.2673,7.3562,7.4407,7.513,7.6082,7.7259,7.8573,7.8816,7.9506,8.1281,8.1542,8.198,8.3076,8.324,8.324,8.324,8.3208,8.3831,8.511,8.5265,8.5857,8.7196,8.7289,8.7289,8.7289,8.7289,8.6925,8.6163,8.6925,8.6892,8.6196,8.6858,8.7157,8.709,8.6328,8.5633,8.4904,8.4208,8.3513,8.2883,8.2883,8.2883,8.2883,8.2883,8.3811,8.5103,8.5103,8.603,8.7289,8.7289,8.7289,8.7289,8.7289,8.7289,8.7289,8.7289,8.7289,8.7289,8.7289,8.7289,8.7289,8.7289,8.7223,8.7223,8.7256,8.719,8.7123,8.719,8.6593,8.6097,8.6097,8.55,8.4771,8.4043,0.0,0.0,8.1658,8.2055,8.2486,8.2651,8.391,8.4838,8.4937,8.4937,8.4937,8.4871,8.4871,8.4871,8.4871,8.4871,8.4904,8.4937,8.4275,8.391,8.391,8.4606,8.4606,8.391,8.391,8.3579,8.2883,8.2883,8.2883,8.2883,8.2883,8.2883,8.2883,8.2883,8.2883,8.2883,8.2883,8.2883,8.2883,8.2883,8.2883,8.2883,7.2602,7.2957,7.3416,7.4089,7.4886,7.5946,7.7592,7.8172,7.896,8.0331,8.0501,8.0917,8.2042,8.2177,8.2446,8.3142,8.324,8.3602,8.4539,8.4984,8.5857,8.723,8.7289,8.7289,8.7289,8.7289,8.6925,8.6163,8.6925,8.6892,8.6255,8.6925,8.6792,8.5931,8.5633,8.4838,8.3711,8.3446,8.3148,8.2883,8.2883,8.2883,8.2883,8.2883,8.3811,8.5103,8.5103,8.603,8.7289,8.7289,8.7289,8.7289,8.7289,8.7289,8.7289,8.7289,8.7289,8.7289,8.7289,8.7289,8.7289,8.7289,8.7289,8.7389,8.7819,8.7587,8.7389,8.7819,8.7355,8.6858,8.6858,8.6262,8.5666,8.5401,0.0,8.295,8.3148,8.3016,8.3082,8.3546,8.4473,8.5103,8.5103,8.5103,8.5103,8.5103,8.5103,8.5103,8.5103,8.5103,8.5103,8.5103,8.5268,8.5136,8.4705,8.497,8.497,8.4672,8.4241,8.3844,8.3579,8.3115,8.2883,8.2883,8.2883,8.2883,8.2883,8.2883,8.2883,8.2883,8.2883,8.2883,8.2883,8.2883,8.2883,8.2883,7.2602,7.2602,7.2892,7.3734,7.4256,7.5101,7.6725,7.7401,7.8063,7.919,7.9332,7.9728,8.0817,8.0986,8.1467,8.258,8.2678,8.3111,8.4154,8.5047,8.6042,8.7256,8.7289,8.7289,8.7289,8.7289,8.6925,8.6163,8.6925,8.6792,8.5865,8.6825,8.6494,8.5136,8.5335,8.4639,8.3248,8.3248,8.3115,8.2883,8.2883,8.2883,8.2883,8.2883,8.3811,8.5103,8.5103,8.603,8.7289,8.7289,8.7289,8.7289,8.7289,8.7289,8.7289,8.7289,8.7289,8.7289,8.7289,8.7289,8.7289,8.7289,8.7289,8.7389,8.7885,8.762,8.7422,8.7885,8.762,8.7289,8.7289,8.6858,8.6428,8.6255,8.5103,8.4374,8.4639,8.444,8.4473,8.497,8.5467,8.5798,8.5798,8.5798,8.5798,8.5798,8.5798,8.5798,8.5798,8.5798,8.5798,8.5798,8.6262,8.6295,8.5798,8.5798,8.5666,8.5434,8.4937,8.4573,8.4341,8.3579,8.3248,8.3215,8.2983,8.2883,8.2883,8.2883,8.2883,8.2883,8.2883,8.2883,8.2883,8.2883,8.2883,8.2883,7.2631,7.2631,7.3008,7.4285,7.4518,7.4953,7.6259,7.6538,7.6911,7.8063,7.8209,7.8614,7.9698,7.987,8.0322,8.1399,8.1467,8.228,8.409,8.5518,8.6595,8.7289,8.7289,8.7289,8.7289,8.7289,8.6925,8.6196,8.6925,8.6527,8.5169,8.6593,8.6494,8.5136,8.5832,8.5368,8.401,8.401,8.3579,8.2916,8.2916,8.2916,8.2916,8.2916,8.3844,8.5103,8.5103,8.603,8.7289,8.7289,8.7289,8.7289,8.7289,8.7289,8.7289,8.7289,8.7289,8.7289,8.7289,8.7289,8.7289,8.7289,8.7289,8.7289,8.7289,8.7289,8.7289,8.7289,8.7289,8.7289,8.7289,8.7289,8.7024,8.6295,8.6792,8.7024,8.6295,8.6825,8.7289,8.7289,8.7289,8.7289,8.7289,8.7289,8.7289,8.7289,8.7289,8.7289,8.7289,8.7289,8.7289,8.7289,8.7289,8.7289,8.7256,8.7289,8.6892,8.6196,8.6163,8.5798,8.5103,8.4341,8.401,8.3976,8.3215,8.2883,8.2883,8.2883,8.2883,8.2883,8.2883,8.2883,8.2883,8.2883,8.2883,8.2883,7.3327,7.3327,7.3589,7.4401,7.4924,7.5504,7.6346,7.6538,7.6612,7.6957,7.7031,7.7402,7.8542,7.8687,7.9118,8.0191,8.0331,8.1063,8.2884,8.4602,8.5857,8.6595,8.7017,8.7289,8.7289,8.7289,8.7157,8.6958,8.7157,8.7057,8.6627,8.7057,8.6494,8.5136,8.5335,8.4904,8.401,8.401,8.4175,8.444,8.444,8.4142,8.3745,8.4241,8.4738,8.5169,8.5666,8.6461,8.7289,8.7289,8.7289,8.7289,8.7289,8.7289,8.7289,8.7289,8.7289,8.7289,8.7289,8.7289,8.7289,8.7289,8.7289,8.7289,8.7289,8.7289,8.7289,8.7289,8.7289,8.7289,8.7289,8.7289,8.719,8.6991,8.7123,8.719,8.6991,8.7123,8.7289,8.7289,8.7289,8.7289,8.7289,8.7289,8.7289,8.7289,8.7289,8.7289,8.7289,8.7289,8.7289,8.7289,8.7289,8.7024,8.6494,8.7024,8.7157,8.6958,8.6428,8.6063,8.5832,8.4573,8.401,8.3976,8.3215,8.2883,8.2883,8.2883,8.2883,8.2883,8.2883,8.2883,8.2883,8.2883,8.2883,8.2883,7.3618,7.3618,7.3821,7.443,7.5069,7.5737,7.6375,7.6538,7.6538,7.6538,7.6538,7.6762,7.7475,7.7549,7.796,7.9088,7.9587,8.0401,8.1782,8.2919,8.4123,8.5577,8.5748,8.6294,8.7256,8.7289,8.7289,8.7289,8.7289,8.6991,8.6428,8.6726,8.5898,8.4241,8.454,8.444,8.401,8.401,8.444,8.5103,8.5103,8.4838,8.4473,8.4937,8.5268,8.56,8.603,8.666,8.7289,8.7289,8.7289,8.7289,8.7289,8.7289,8.7289,8.7289,8.7289,8.7289,8.7289,8.7289,8.7289,8.7289,8.7289,8.7289,8.7289,8.7289,8.7289,8.7289,8.7289,8.7289,8.7289,8.7289,8.7289,8.7289,8.7289,8.7289,8.7289,8.7289,8.7289,8.7289,8.7289,8.7289,8.7289,8.7289,8.7289,8.7289,8.7289,8.7289,8.7289,8.7289,8.7289,8.7289,8.6991,8.6759,8.6627,8.6759,8.6825,8.6825,8.6693,8.6461,8.613,8.497,8.4275,8.3976,8.3215,8.2883,8.2883,8.2883,8.2883,8.2883,8.2883,8.2883,8.2883,8.2883,8.2883,8.2883,7.3792,7.3792,7.3966,7.4518,7.5156,7.5795,7.6375,7.6538,7.6538,7.6538,7.6538,7.6538,7.6538,7.6538,7.6911,7.799,7.9118,8.0011,8.0618,8.0825,8.1922,8.4155,8.3672,8.4423,8.6765,8.6971,8.709,8.709,8.709,8.6395,8.5136,8.5765,8.497,8.3016,8.3711,8.4043,8.4109,8.4109,8.4573,8.5302,8.5302,8.5268,8.5202,8.5268,8.5666,8.6196,8.6229,8.6693,8.7289,8.7289,8.7289,8.7289,8.7289,8.7289,8.7289,8.7289,8.7289,8.7289,8.7289,8.7289,8.7289,8.7289,8.7289,8.7289,8.7289,8.7289,8.7289,8.7289,8.7289,8.7289,8.7289,8.7289,8.7289,8.7289,8.7289,8.7289,8.7289,8.7289,8.7289,8.7289,8.7289,8.7289,8.7289,8.7289,8.7289,8.7289,8.7289,8.7289,8.7289,8.7289,8.7289,8.7289,8.6627,8.6527,8.709,8.6461,8.6196,8.6295,8.6958,8.6892,8.613,8.5434,8.4705,8.3976,8.3215,8.2883,8.2883,8.2883,8.2883,8.2883,8.2883,8.2883,8.2883,8.2883,8.2883,8.2883,7.5098,7.5098,7.5127,7.5272,7.5824,7.6288,7.6508,7.6538,7.6538,7.6538,7.6538,7.6538,7.6538,7.6538,7.6612,7.6837,7.7917,7.8614,7.8801,8.009,8.1058,8.1338,8.1744,8.2298,8.3227,8.4757,8.5567,8.5567,8.5567,8.5434,8.5103,8.5268,8.4771,8.3778,8.3943,8.4341,8.4871,8.4871,8.5633,8.6792,8.6792,8.6461,8.5997,8.6593,8.6527,8.6262,8.6825,8.7123,8.7289,8.7289,8.7289,8.7289,8.7289,8.7289,8.7289,8.7289,8.7289,8.7289,8.7289,8.7289,8.7289,8.7289,8.7289,8.7289,8.7289,8.7289,8.7289,8.7289,8.7289,8.7289,8.7289,8.7289,8.7289,8.7289,8.7289,8.7289,8.7289,8.7289,8.7289,8.7289,8.7289,8.7289,8.7289,8.7289,8.7289,8.7289,8.7289,8.7289,8.7289,8.7289,8.7289,8.7289,8.7123,8.656,8.56,8.5964,8.6461,8.7024,8.719,8.6892,8.613,8.5434,8.4705,8.3976,8.3215,8.2883,8.2883,8.2883,8.2883,8.2883,8.2883,8.2883,8.2883,8.2883,8.2883,8.2883,7.5504,7.5504,7.5504,7.5504,7.6027,7.6538,7.6538,7.6538,7.6538,7.6538,7.6538,7.6538,7.6538,7.6538,7.6538,7.6538,7.7031,7.7402,7.7402,7.7997,7.868,7.9399,7.9299,7.9728,8.0803,8.1681,8.297,8.4647,8.4287,8.4287,8.4573,8.4573,8.4175,8.348,8.348,8.4076,8.5103,8.5103,8.5931,8.7289,8.7289,8.7057,8.6759,8.7123,8.7024,8.6759,8.7123,8.7289,8.7289,8.7289,8.7289,8.7289,8.7289,8.7289,8.7289,8.7289,8.7289,8.7289,8.7289,8.7289,8.7289,8.7289,8.7289,8.7289,8.7289,8.7289,8.7289,8.7289,8.7289,8.7289,8.7289,8.7289,8.7289,8.7289,8.7289,8.7289,8.7289,8.7289,8.7289,8.7289,8.7289,8.7289,8.7289,8.7289,8.7289,8.7289,8.7289,8.7289,8.7289,8.7289,8.7289,8.7289,8.6925,8.656,8.613,8.6163,8.656,8.7289,8.6925,8.656,8.613,8.5434,8.4705,8.3976,8.3215,8.2883,8.2883,8.2883,8.2883,8.2883,8.2883,8.2883,8.2883,8.2883,8.2883,8.2883,7.5534,7.5592,7.565,7.5534,7.6027,7.6538,7.6538,7.6538,7.6538,7.6538,7.6375,7.6288,7.6288,7.6201,7.6172,7.6288,7.6201,7.623,7.6538,7.5853,7.6183,7.7794,7.6903,7.7166,7.8826,7.8401,7.9795,8.321,8.263,8.2747,8.3433,8.3433,8.3251,8.2883,8.2883,8.3711,8.5103,8.5103,8.5931,8.7289,8.7289,8.7289,8.7289,8.7289,8.7289,8.7289,8.7289,8.7289,8.7289,8.7289,8.7289,8.7289,8.7289,8.7289,8.7289,8.7289,8.7289,8.7289,8.7289,8.7289,8.7289,8.7289,8.7289,8.7289,8.7289,8.7289,8.7289,8.7289,8.7289,8.7289,8.7289,8.7289,8.7289,8.7289,8.7289,8.7289,8.7289,8.7289,8.7289,8.7289,8.7289,8.7289,8.7289,8.7289,8.7289,8.7289,8.7289,8.7289,8.7289,8.7289,8.7289,8.7289,8.6693,8.6593,8.709,8.6553,8.6494,8.709,8.6461,8.6097,8.5964,8.5368,8.4639,8.3778,8.3181,8.2883,8.2883,8.2883,8.2883,8.2883,8.2883,8.2883,8.2883,8.2883,8.2883,8.2883,7.5621,7.594,7.6172,7.5592,7.6027,7.6538,7.6538,7.6538,7.6538,7.6538,7.5998,7.565,7.565,7.5127,7.5011,7.5592,7.5098,7.5243,7.6375,7.5853,7.5771,7.6359,7.5726,7.5744,7.6694,7.5536,7.6488,7.9635,7.9539,8.0123,8.1328,8.1328,8.1883,8.2883,8.2883,8.3711,8.5103,8.5103,8.5931,8.7289,8.7289,8.7289,8.7289,8.7289,8.7289,8.7289,8.7289,8.7289,8.7289,8.7289,8.7289,8.7289,8.7289,8.7289,8.7289,8.7289,8.7289,8.7289,8.7289,8.7289,8.7289,8.7289,8.7289,8.7289,8.7289,8.7289,8.7289,8.7289,8.7289,8.7289,8.7289,8.7289,8.7289,8.7289,8.7289,8.7289,8.7289,8.7289,8.7289,8.7289,8.7289,8.7289,8.7289,8.7289,8.7289,8.7289,8.7289,8.7289,8.7289,8.7289,8.7289,8.7289,8.719,8.6858,8.6328,8.6229,8.6229,8.6387,8.6229,8.5865,8.5268,8.5169,8.4341,8.3049,8.295,8.2883,8.2883,8.2883,8.2883,8.2883,8.2883,8.2883,8.2883,8.2883,8.2883,8.2883,7.594,7.5998,7.594,7.6027,7.6259,7.6538,7.6538,7.6538,7.6346,7.5969,7.5679,7.5504,7.5504,7.5243,7.5185,7.5475,7.5243,7.5475,7.6479,7.5853,7.5579,7.5727,7.5335,7.5098,7.5134,7.4757,7.5099,7.6365,7.7318,7.8471,7.9777,7.9777,8.0082,8.0717,8.146,8.2341,8.3382,8.4184,8.5335,8.666,8.666,8.6892,8.7289,8.7289,8.7289,8.7289,8.7289,8.7289,8.7289,8.7289,8.7289,8.7289,8.7289,8.7289,8.7289,8.7289,8.7289,8.7289,8.7289,8.7289,8.7289,8.7289,8.7289,8.7289,8.7289,8.7289,8.7289,8.7289,8.7289,8.7289,8.7289,8.7289,8.7289,8.7289,8.7289,8.7289,8.7289,8.7289,8.7289,8.7289,8.7289,8.7289,8.7289,8.7289,8.7289,8.7289,8.7289,8.7289,8.7289,8.7289,8.7289,8.7289,8.7289,8.7123,8.6792,8.6792,8.6792,8.6792,8.6362,8.6229,8.6295,8.5467,8.4738,8.4076,8.3248,8.2651,8.2287,8.2287,8.2022,8.1691,8.2121,8.2552,8.2883,8.2883,8.2883,8.2883]}]]